[[{"header":{"parameterUnit":"m.s-1","parameterCategory":1,"la1":30.6,"la2":29.2853,"lo1":-89.7004,"lo2":-87.6739,"dy":0.0162,"dx":0.0183,"nx":112,"ny":82,"refTime":"2023-05-27T12:00:00:Z","depth":0,"parameterNumber":2,"parameterNumberName":"U-component_of_WINDS"},"data":[0.0,0.0,0.0,0.0,0.0,0.0,0.0,0.0,0.0,0.0,0.0,0.0,0.0,0.0,0.0,0.0,0.0,0.0,0.0,0.0,0.0,0.0,0.0,0.0,0.0,0.0,0.0,0.0,0.0,0.0,0.0,0.0,0.0,0.0,0.0,0.0,0.0,0.0,0.0,0.0,0.0,0.0,0.0,0.0,0.0,0.0,0.0,0.0,0.0,0.0,0.0,0.0,0.0,0.0,0.0,0.0,0.0,0.0,0.0,0.0,0.0,0.0,0.0,0.0,0.0,0.0,0.0,0.0,0.0,0.0,0.0,0.0,0.0,0.0,0.0,0.0,0.0,0.0,0.0,0.0,0.0,0.0,0.0,0.0,0.0,0.0,0.0,0.0,0.0,0.0,0.1266,-0.0935,-0.3405,-0.5047,-0.5287,-0.5673,-0.5666,-0.4987,0.0,0.0,0.0,0.0,0.0,0.0,0.0,0.0,0.0,0.0,0.0,0.0,0.0,0.0,0.0,0.0,0.0,0.0,0.0,0.0,0.0,0.0,0.0,0.0,0.0,0.0,0.0,0.0,0.0,0.0,0.0,0.0,0.0,0.0,0.0,0.0,0.0,0.0,0.0,0.0,0.0,0.0,0.0,0.0,0.0,0.0,0.0,0.0,0.0,0.0,0.0,0.0,0.0,0.0,0.0,0.0,0.0,0.0,0.0,0.0,0.0,0.0,0.0,0.0,0.0,0.0,0.0,0.0,0.0,0.0,0.0,0.0,0.0,0.0,0.0,0.0,0.0,0.0,0.0,0.0,0.0,0.0,0.0,0.0,0.0,0.0,0.0,0.0,0.0,0.0,0.0,0.0,0.0,0.0,0.0,0.0,0.0,0.0,0.0,0.0,0.0,0.0,0.0,0.0,-0.2665,-0.5936,-0.6524,-0.6841,-0.7273,-0.6832,-0.6217,-0.5367,0.0,0.0,0.0,0.0,0.0,0.0,0.0,0.0,0.0,0.0,0.0,0.0,0.0,0.0,0.0,0.0,0.0,0.0,0.0,0.0,0.0,0.0,0.0,0.0,0.0,0.0,0.0,0.0,0.0,0.0,0.0,0.0,0.0,0.0,0.0,0.0,0.0,0.0,0.0,0.0,0.0,0.0,0.0,0.0,0.0,0.0,0.0,0.0,0.0,0.0,0.0,0.0,0.0,0.0,0.0,0.0,0.0,0.0,0.0,0.0,0.0,0.0,0.0,0.0,0.0,0.0,0.0,0.0,0.0,0.0,0.0,0.0,0.0,0.0,0.0,0.0,0.0,0.0,0.0,0.0,0.0,0.0,0.0,0.0,0.0,0.0,0.0,0.0,0.0,0.0,0.0,0.0,0.0,0.0,0.0,0.0,0.0,0.0,0.0,0.0,0.0,0.0,0.0,-0.4374,-0.6139,-0.8764,-0.8837,-0.8832,-0.9184,-0.8875,-0.794,-0.6338,-0.402,0.0,0.0,0.0,0.0,0.0,0.0,0.0,0.0,0.0,0.0,0.0,0.0,0.0,0.0,0.0,0.0,0.0,0.0,0.0,0.0,0.0,0.0,0.0,0.0,0.0,0.0,0.0,0.0,0.0,0.0,0.0,0.0,0.0,0.0,0.0,0.0,0.0,0.0,0.0,0.0,0.0,0.0,0.0,0.0,0.0,0.0,0.0,0.0,0.0,0.0,0.0,0.0,0.0,0.0,0.0,0.0,0.0,0.0,0.0,0.0,0.0,0.0,0.0,0.0,0.0,0.0,0.0,0.0,0.0,0.0,0.0,0.0,0.0,0.0,0.0,0.0,0.0,0.0,0.0,0.0,0.0,0.0,0.0,0.0,0.0,0.0,0.0,0.0,0.0,0.0,0.0,0.0,0.0,0.0,0.0,0.0,0.0,0.0,0.0,0.0,0.0,0.0,-0.8134,-0.8864,-1.047,-1.0699,-1.0813,-1.0856,-1.0651,-0.9711,-0.7734,-0.6264,0.0,0.0,0.0,0.0,0.0,0.0,0.0,0.0,0.0,0.0,0.0,0.0,0.0,0.0,0.0,0.0,0.0,0.0,0.0,0.0,0.0,0.0,0.0,0.0,0.0,0.0,0.0,0.0,0.0,0.0,0.0,0.0,0.0,0.0,0.0,0.0,0.0,0.0,0.0,0.0,0.0,0.0,0.0,0.0,0.0,0.0,0.0,0.0,0.0,0.0,0.0,0.0,0.0,0.0,0.0,0.0,0.0,0.0,0.0,0.0,0.0,0.0,0.0,0.0,0.0,0.0,0.0,0.0,0.0,0.0,0.0,0.0,0.0,0.0,0.0,0.0,0.0,0.0,0.0,0.0,0.0,0.0,0.0,0.0,0.0,0.0,0.0,0.0,0.0,0.0,0.0,0.0,0.0,0.0,0.0,0.0,0.0,0.0,0.0,0.0,0.0,0.0,-1.0098,-1.0524,-1.135,-1.2348,-1.2699,-1.2119,-1.1577,-1.0824,-0.9765,-0.7749,0.0,0.0,0.0,0.0,0.0,0.0,0.0,0.0,0.0,0.0,0.0,0.0,0.0,0.0,0.0,0.0,0.0,0.0,0.0,0.0,0.0,0.0,0.0,0.0,0.0,0.0,0.0,0.0,0.0,0.0,0.0,0.0,0.0,0.0,0.0,0.0,0.0,0.0,0.0,0.0,0.0,0.0,0.0,0.0,0.0,0.0,0.0,0.0,0.0,0.0,0.0,0.0,0.0,0.0,0.0,0.0,0.0,0.0,0.0,0.0,0.0,0.0,0.0,0.0,0.0,0.0,0.0,0.0,0.0,0.0,0.0,0.0,0.0,0.0,0.0,0.0,0.0,0.0,0.0,0.0,0.0,0.0,0.0,0.0,0.0,0.0,0.0,0.0,0.0,0.0,0.0,0.0,0.0,0.0,0.0,0.0,0.0,0.0,0.0,0.0,0.0,0.0,-1.1125,-1.2262,-1.3793,-1.4582,-1.4898,-1.4535,-1.4042,-1.2964,-1.1101,0.0,0.0,0.0,0.0,0.0,0.0,0.0,0.0,0.0,0.0,0.0,0.0,0.0,0.0,0.0,0.0,0.0,0.0,0.0,0.0,0.0,0.0,0.0,0.0,0.0,0.0,0.0,0.0,0.0,0.0,0.0,0.0,0.0,0.0,0.0,0.0,0.0,0.0,0.0,0.0,0.0,0.0,0.0,0.0,0.0,0.0,0.0,0.0,0.0,0.0,0.0,0.0,0.0,0.0,0.0,0.0,0.0,0.0,0.0,0.0,0.0,0.0,0.0,0.0,0.0,0.0,0.0,0.0,0.0,0.0,0.0,0.0,0.0,0.0,0.0,0.0,0.0,0.0,0.0,0.0,0.0,0.0,0.0,0.0,0.0,0.0,0.0,0.0,0.0,0.0,0.0,0.0,0.0,0.0,0.0,0.0,0.0,0.0,0.0,0.0,0.0,0.0,-1.1469,-1.2777,-1.4101,-1.5439,-1.6188,-1.6412,-1.5737,-1.5599,-1.4502,-1.2151,0.0,0.0,0.0,0.0,0.0,0.0,0.0,0.0,0.0,0.0,0.0,0.0,0.0,0.0,0.0,0.0,0.0,0.0,0.0,0.0,0.0,0.0,0.0,0.0,0.0,0.0,0.0,0.0,0.0,0.0,0.0,0.0,0.0,0.0,0.0,0.0,0.0,0.0,0.0,0.0,0.0,0.0,0.0,0.0,0.0,0.0,0.0,0.0,0.0,0.0,0.0,0.0,0.0,0.0,0.0,0.0,0.0,0.0,0.0,0.0,0.0,0.0,0.0,0.0,0.0,0.0,0.0,0.0,0.0,0.0,0.0,0.0,0.0,0.0,0.0,0.0,0.0,0.0,0.0,0.0,0.0,0.0,0.0,0.0,0.0,0.0,0.0,0.0,0.0,0.0,0.0,0.0,0.0,0.0,0.0,0.0,0.0,0.0,0.0,0.0,0.0,0.0,-1.3859,-1.5201,-1.5944,-1.5954,-1.7026,-1.7099,-1.5459,-1.5812,-1.5201,0.0,0.0,0.0,0.0,0.0,0.0,0.0,0.0,0.0,0.0,0.0,0.0,0.0,0.0,0.0,0.0,0.0,0.0,0.0,0.0,0.0,0.0,0.0,0.0,0.0,0.0,0.0,0.0,0.0,0.0,0.0,0.0,0.0,0.0,0.0,0.0,0.0,0.0,0.0,0.0,0.0,0.0,0.0,0.0,0.0,0.0,0.0,0.0,0.0,0.0,0.0,0.0,0.0,0.0,0.0,0.0,0.0,0.0,0.0,0.0,0.0,0.0,0.0,0.0,0.0,0.0,0.0,0.0,0.0,0.0,0.0,0.0,0.0,0.0,0.0,0.0,0.0,0.0,0.0,0.0,0.0,0.0,0.0,0.0,0.0,0.0,0.0,0.0,0.0,0.0,0.0,0.0,0.0,0.0,0.0,0.0,0.0,0.0,0.0,0.0,0.0,0.0,0.0,-1.4503,-1.5871,-1.6905,-1.7533,-1.7711,-1.7729,-1.754,-1.6901,-1.5692,-1.3991,0.0,0.0,0.0,0.0,0.0,0.0,0.0,0.0,0.0,0.0,0.0,0.0,0.0,0.0,0.0,0.0,0.0,0.0,0.0,0.0,0.0,0.0,0.0,0.0,0.0,0.0,0.0,0.0,0.0,0.0,0.0,0.0,0.0,0.0,0.0,0.0,0.0,0.0,0.0,0.0,0.0,0.0,0.0,0.0,0.0,0.0,0.0,0.0,0.0,0.0,0.0,0.0,0.0,0.0,0.0,0.0,0.0,0.0,0.0,0.0,0.0,0.0,0.0,0.0,0.0,0.0,0.0,0.0,0.0,0.0,0.0,0.0,0.0,0.0,0.0,0.0,0.0,0.0,0.0,0.0,0.0,0.0,0.0,0.0,0.0,0.0,0.0,0.0,0.0,0.0,0.0,0.0,0.0,0.0,0.0,0.0,0.0,0.0,0.0,0.0,0.0,0.0,-1.5797,-1.6948,-1.7852,-1.8405,-1.8628,-1.8631,-1.8249,-1.7694,-1.658,-1.4693,0.0,0.0,0.0,0.0,0.0,0.0,0.0,0.0,0.0,0.0,0.0,0.0,0.0,0.0,0.0,0.0,0.0,0.0,0.0,0.0,0.0,0.0,0.0,0.0,0.0,0.0,0.0,0.0,0.0,0.0,0.0,0.0,0.0,0.0,0.0,0.0,0.0,0.0,0.0,0.0,0.0,0.0,0.0,0.0,0.0,0.0,0.0,0.0,0.0,0.0,0.0,0.0,0.0,0.0,0.0,0.0,0.0,0.0,0.0,0.0,0.0,0.0,0.0,0.0,0.0,0.0,0.0,0.0,0.0,0.0,0.0,0.0,0.0,0.0,0.0,0.0,0.0,0.0,0.0,0.0,0.0,0.0,0.0,0.0,0.0,0.0,0.0,0.0,0.0,0.0,0.0,0.0,0.0,0.0,0.0,0.0,0.0,0.0,0.0,0.0,0.0,0.0,-1.7578,-1.841,-1.8881,-1.8833,-1.9654,-1.9574,-1.8025,-1.8333,-1.759,-1.5095,0.0,0.0,0.0,0.0,0.0,0.0,0.0,0.0,0.0,0.0,0.0,0.0,0.0,0.0,0.0,0.0,0.0,0.0,0.0,0.0,0.0,0.0,0.0,0.0,0.0,0.0,0.0,0.0,0.0,0.0,0.0,0.0,0.0,0.0,0.0,0.0,0.0,0.0,0.0,0.0,0.0,0.0,0.0,0.0,0.0,0.0,0.0,0.0,0.0,0.0,0.0,0.0,0.0,0.0,0.0,0.0,0.0,0.0,0.0,0.0,-1.5355,-1.4048,0.0,0.0,0.0,0.0,0.0,0.0,0.0,0.0,0.0,0.0,0.0,0.0,0.0,0.0,0.0,0.0,0.0,0.0,0.0,0.0,0.0,0.0,0.0,0.0,0.0,0.0,0.0,0.0,0.0,0.0,0.0,0.0,0.0,0.0,0.0,0.0,0.0,0.0,0.0,0.0,-1.9065,-1.9806,-2.0089,-1.9629,-1.9944,-1.9808,-1.8742,-1.8635,-1.7658,-1.5487,-1.4055,0.0,0.0,0.0,0.0,0.0,0.0,0.0,0.0,0.0,0.0,0.0,0.0,0.0,0.0,0.0,0.0,0.0,0.0,0.0,0.0,0.0,0.0,0.0,0.0,0.0,0.0,0.0,0.0,0.0,0.0,0.0,0.0,0.0,0.0,0.0,0.0,0.0,0.0,0.0,0.0,0.0,0.0,0.0,0.0,0.0,0.0,0.0,0.0,0.0,0.0,0.0,0.0,0.0,0.0,0.0,0.0,0.0,0.0,0.0,-1.8609,-1.7513,0.0,0.0,0.0,0.0,0.0,0.0,0.0,0.0,0.0,0.0,0.0,0.0,0.0,0.0,0.0,0.0,0.0,0.0,0.0,0.0,0.0,0.0,0.0,0.0,0.0,0.0,0.0,0.0,0.0,0.0,0.0,0.0,0.0,0.0,0.0,0.0,0.0,0.0,0.0,0.0,-1.9924,-2.0656,-2.084,-2.0275,-2.057,-2.0246,-1.8717,-1.872,-1.7894,-1.5605,-1.418,0.0,0.0,0.0,0.0,0.0,0.0,0.0,0.0,0.0,0.0,0.0,0.0,0.0,0.0,0.0,0.0,0.0,0.0,0.0,0.0,0.0,0.0,0.0,0.0,0.0,0.0,0.0,0.0,0.0,0.0,0.0,0.0,0.0,0.0,0.0,0.0,0.0,0.0,0.0,0.0,0.0,0.0,0.0,0.0,0.0,0.0,0.0,0.0,0.0,0.0,0.0,0.0,0.0,-2.1475,-2.1754,-2.2124,-2.224,-2.2739,-2.3462,-2.2009,-2.1383,-2.1243,-2.02,0.0,0.0,0.0,0.0,0.0,0.0,0.0,0.0,0.0,0.0,0.0,0.0,0.0,0.0,0.0,0.0,0.0,0.0,0.0,0.0,0.0,0.0,-1.598,-1.5624,-1.6043,-1.6309,-1.5579,0.0,0.0,0.0,0.0,0.0,0.0,0.0,0.0,0.0,0.0,0.0,-2.074,-2.1193,-2.128,-2.0781,-2.1079,-2.0519,-1.8463,-1.8753,-1.8029,-1.5792,-1.4337,-1.3384,0.0,0.0,0.0,0.0,0.0,0.0,0.0,0.0,0.0,0.0,0.0,0.0,0.0,0.0,0.0,0.0,0.0,0.0,0.0,0.0,0.0,0.0,0.0,0.0,0.0,0.0,0.0,0.0,0.0,0.0,0.0,0.0,-1.3324,-1.4481,0.0,0.0,0.0,0.0,0.0,0.0,0.0,0.0,0.0,0.0,0.0,0.0,0.0,-2.263,-2.4416,-2.3115,-2.3022,-2.4265,-2.4295,-2.4304,-2.4372,-2.4896,-2.5436,-2.607,-2.6258,0.0,-2.319,-2.3467,0.0,0.0,0.0,0.0,0.0,0.0,0.0,0.0,0.0,0.0,0.0,0.0,0.0,0.0,0.0,0.0,0.0,0.0,0.0,0.0,0.0,0.0,-1.818,-1.8088,-1.8177,-1.8605,-1.9675,-1.7832,-1.6163,-1.6826,-1.7376,-1.7624,0.0,0.0,0.0,0.0,0.0,0.0,-2.2081,-2.1725,-2.128,-2.0781,-2.0781,-2.0116,-1.8441,-1.8451,-1.7975,-1.6605,-1.4818,-1.3926,-1.4221,-1.2582,0.0,0.0,0.0,0.0,0.0,0.0,0.0,0.0,0.0,0.0,0.0,0.0,0.0,0.0,0.0,0.0,0.0,0.0,0.0,0.0,0.0,0.0,0.0,0.0,0.0,0.0,0.0,0.0,0.0,-1.2903,-1.4493,-1.5775,-1.6347,-1.6918,0.0,0.0,0.0,0.0,0.0,0.0,0.0,0.0,0.0,-2.5214,-2.4842,-2.5219,-2.6349,-2.5699,-2.5794,-2.6688,-2.6244,-2.6115,-2.644,-2.6511,-2.6854,-2.7419,-2.7971,-2.7391,-2.6033,-2.5141,-2.4073,-2.2774,0.0,0.0,0.0,0.0,-1.7959,-1.7779,-1.7651,-1.7944,-1.8174,-1.7501,0.0,0.0,0.0,0.0,0.0,0.0,0.0,-1.7588,0.0,0.0,-1.9062,-1.9297,-1.9355,-1.9756,-2.1125,-2.0175,-1.9293,-1.9948,-2.0027,-1.9776,-1.9394,-2.0627,0.0,0.0,0.0,-2.3138,-2.2811,-2.256,-2.1898,-2.0692,-2.0269,-1.9337,-1.7427,-1.7597,-1.7385,-1.64,-1.5355,-1.4612,-1.4288,-1.3196,-1.218,0.0,0.0,0.0,0.0,0.0,0.0,0.0,0.0,0.0,0.0,0.0,0.0,0.0,0.0,0.0,0.0,0.0,0.0,0.0,0.0,0.0,0.0,0.0,0.0,0.0,0.0,0.0,0.0,-1.4535,-1.6066,-1.7342,-1.885,-1.9915,0.0,0.0,0.0,0.0,0.0,0.0,-2.6167,-2.6056,-2.6509,-2.7787,-2.744,-2.7589,-2.8384,-2.7977,-2.8066,-2.8738,-2.7843,-2.7755,-2.8314,-2.798,-2.813,-2.8689,-2.8824,-2.8699,-2.8161,-2.6588,-2.5586,-2.4765,-2.2517,-2.1344,-2.0684,-1.9991,-1.9565,-1.9473,-1.9678,-2.0107,-2.043,-1.9399,-1.9269,-1.9303,-1.7796,0.0,0.0,0.0,0.0,-1.8873,-1.849,-1.9129,-1.9909,-2.0337,-2.0357,-2.0761,-2.2381,-2.2358,-2.2042,0.0,-2.2158,-2.1789,-2.1231,-2.2306,0.0,-2.1898,-2.3079,-2.3841,-2.3414,-2.2795,-2.1903,-2.0565,-1.9601,-1.8383,-1.6627,-1.6806,-1.6814,-1.6282,-1.5908,-1.5239,-1.4413,-1.3834,-1.2888,-1.165,0.0,0.0,0.0,0.0,0.0,0.0,0.0,0.0,0.0,0.0,0.0,0.0,0.0,0.0,0.0,0.0,0.0,0.0,0.0,0.0,0.0,0.0,0.0,0.0,0.0,0.0,0.0,0.0,0.0,-2.0546,-2.2701,0.0,0.0,0.0,0.0,-2.7116,-2.6831,-2.7665,-3.0161,-2.968,-3.0,-3.1273,-2.99,-2.9813,-3.1292,-2.9682,-2.9346,-3.0187,-2.9285,-2.9254,-2.9859,-2.948,-2.9684,-3.025,-2.9274,-2.8913,-2.8837,-2.8186,-2.6547,-2.4345,-2.4148,-2.2729,-2.0755,-2.0755,-2.039,-1.9824,-1.9453,-1.9863,-2.0566,-2.0537,-2.0547,-2.0401,-1.9868,-1.9723,0.0,0.0,-2.043,-2.1494,-2.0131,-2.0525,-2.1366,-2.1816,-2.1596,-2.1983,-2.4304,-2.4097,-2.3274,0.0,-2.3167,-2.3124,-2.2275,0.0,-2.4369,-2.3532,-2.3732,-2.3991,-2.3954,-2.1944,-2.0483,-2.0435,-1.8757,-1.7379,-1.6539,-1.6503,-1.656,-1.6641,-1.6318,-1.5789,-1.5134,-1.447,-1.3477,-1.2245,-1.1653,0.0,0.0,0.0,0.0,0.0,0.0,0.0,0.0,0.0,0.0,0.0,0.0,0.0,0.0,0.0,0.0,0.0,0.0,0.0,0.0,0.0,0.0,0.0,0.0,0.0,0.0,0.0,0.0,-2.1966,-2.4187,0.0,-2.592,-2.6835,-2.8013,-2.9416,-2.9735,-3.0433,-3.1834,-3.1662,-3.1779,-3.2219,-3.1717,-3.1452,-3.1482,-3.0908,-3.0734,-3.1043,-3.0242,-2.9964,-3.0168,-2.9268,-2.8921,-2.9144,-2.8647,-2.8197,-2.7858,-2.7657,-2.7064,-2.6058,-2.446,-2.3289,-2.2361,-2.1131,-2.0576,-2.0312,-2.0166,-2.0498,-2.0996,-2.0996,-2.0801,-2.0537,-2.0381,-2.0332,-2.0303,-2.0156,-2.0619,-2.0971,-2.0448,-2.0629,-2.0887,-2.1038,-2.0737,-2.0966,-2.3082,-2.301,-2.2748,-2.356,-2.413,-2.4376,-2.4097,-2.4718,-2.4979,-2.4082,-2.3785,-2.3575,-2.3235,-2.1616,-2.0075,-1.901,-1.7947,-1.6922,-1.5894,-1.5806,-1.6019,-1.667,-1.5977,-1.5462,-1.5201,-1.4355,-1.326,-1.2096,-1.1817,-1.1616,0.0,0.0,0.0,0.0,0.0,0.0,0.0,0.0,0.0,0.0,0.0,0.0,0.0,0.0,0.0,0.0,0.0,0.0,0.0,0.0,0.0,0.0,0.0,0.0,0.0,-2.1312,-2.293,-2.3884,-2.5864,-2.7444,-2.8233,-2.9205,-3.0408,-3.1823,-3.2118,-3.2656,-3.3573,-3.3411,-3.3194,-3.2917,-3.2896,-3.2449,-3.1482,-3.1691,-3.1691,-3.1482,-3.097,-3.0686,-3.0585,-2.9433,-2.8932,-2.8802,-2.8137,-2.762,-2.7268,-2.6714,-2.6556,-2.6377,-2.4681,-2.3588,-2.285,-2.1517,-2.0857,-2.0586,-2.0742,-2.0889,-2.1016,-2.1016,-2.081,-2.0537,-2.0391,-2.0449,-2.0566,-2.0566,-2.0867,-2.1001,-2.0712,-2.0857,-2.1078,-2.1078,-2.0747,-2.0851,-2.243,-2.2529,-2.2558,-2.3363,-2.4178,-2.4661,-2.4529,-2.4695,-2.4665,-2.405,-2.3548,-2.3024,-2.2511,-2.1124,-1.964,-1.8364,-1.7367,-1.6536,-1.5713,-1.5329,-1.5444,-1.6154,-1.5447,-1.4934,-1.4712,-1.4141,-1.3375,-1.2244,-1.2064,-1.1964,-1.187,0.0,0.0,0.0,0.0,0.0,0.0,0.0,0.0,0.0,0.0,0.0,0.0,0.0,0.0,0.0,0.0,0.0,0.0,0.0,0.0,0.0,0.0,0.0,-2.0849,-2.3073,-2.5228,-2.65,-2.7771,-2.9281,-3.1223,-3.0896,-3.1696,-3.4303,-3.3979,-3.4236,-3.5526,-3.502,-3.4366,-3.3675,-3.3607,-3.2886,-3.1511,-3.2198,-3.2183,-3.1482,-3.1482,-3.1397,-3.1133,-3.0183,-2.9659,-2.9372,-2.7895,-2.7256,-2.7147,-2.5658,-2.5004,-2.4933,-2.4933,-2.3745,-2.2027,-2.1952,-2.1375,-2.0625,-2.1045,-2.0908,-2.0547,-2.0527,-2.0537,-2.0469,-2.0029,-2.0215,-2.0557,-2.0527,-2.1191,-2.1714,-2.0827,-2.1257,-2.191,-2.191,-2.1649,-2.1605,-2.2611,-2.2835,-2.2689,-2.2217,-2.3236,-2.3956,-2.3559,-2.3503,-2.3514,-2.3514,-2.3017,0.0,-2.2034,-2.0396,-1.9055,-1.8595,-1.7081,-1.6094,-1.6064,-1.5179,-1.4836,-1.5212,-1.474,-1.4212,-1.3715,-1.3978,-1.3697,-1.2795,-1.2445,-1.2158,-1.187,0.0,0.0,0.0,0.0,0.0,0.0,0.0,0.0,0.0,0.0,0.0,0.0,0.0,0.0,0.0,0.0,0.0,0.0,0.0,0.0,0.0,-2.1216,-2.2369,-2.2826,-2.467,-2.6336,-2.7175,-2.8774,-3.0212,-3.1309,-3.2117,-3.3122,-3.4415,-3.4824,-3.52,-3.556,-3.5997,-3.564,-3.4328,-3.4825,-3.4189,-3.2258,-3.2422,-3.2183,-3.1482,-3.1482,-3.1176,-3.0513,-2.9631,-2.8817,-2.8131,-2.7143,-2.6747,-2.6596,-2.5501,-2.4564,-2.3818,-2.3147,-2.2478,-2.1886,-2.1231,-2.0779,-2.0537,-2.0342,-2.0195,-2.0039,-1.9736,-1.9844,-2.001,-1.959,-1.998,-2.0439,-1.9814,-2.0068,-2.0387,-1.9791,-1.9851,-2.0062,-2.0062,-1.9723,-1.9606,-2.0567,-2.0695,-2.0759,-2.0973,-2.1603,-2.2258,-2.2977,-2.329,-2.3514,-2.3514,-2.2237,0.0,-2.1188,-1.9545,-1.8168,-1.7795,-1.6655,-1.5744,-1.5297,-1.4301,-1.3832,-1.406,-1.3513,-1.3264,-1.3379,-1.3063,-1.2613,-1.219,-1.2238,-1.2158,0.0,0.0,0.0,0.0,0.0,0.0,0.0,0.0,0.0,0.0,0.0,0.0,0.0,0.0,0.0,0.0,0.0,0.0,0.0,0.0,0.0,0.0,-2.3109,-2.4471,-2.4878,-2.6079,-2.7368,-2.8543,-2.9615,-3.0701,-3.1681,-3.2763,-3.3691,-3.4415,-3.5505,-3.5984,-3.5611,-3.6357,-3.5963,-3.4241,-3.5124,-3.45,-3.2123,-3.2647,-3.2258,-3.1029,-3.1029,-3.0389,-2.9192,-2.8684,-2.7986,-2.7162,-2.6714,-2.6245,-2.5804,-2.4779,-2.3818,0.0,0.0,0.0,0.0,0.0,-2.0293,-2.0225,-1.9805,-1.9648,-1.958,-1.915,-1.9307,-1.957,-1.9141,-1.9492,-1.9922,-1.9424,-1.9463,-1.959,-1.9346,-1.9287,-1.9287,-1.9287,-1.8955,-1.8773,-1.9233,-1.9371,-1.9453,-1.9717,-2.0276,0.0,-2.1502,-2.203,-2.2264,-2.2264,-2.1208,-2.0339,-2.0227,-1.9033,-1.8115,-1.7686,-1.6477,-1.5604,-1.5151,-1.3747,0.0,0.0,0.0,-1.2308,-1.2692,-1.2435,0.0,0.0,0.0,-1.2345,-1.2051,-1.2218,0.0,0.0,-1.2906,-1.326,0.0,0.0,0.0,0.0,0.0,0.0,0.0,0.0,0.0,0.0,0.0,0.0,0.0,0.0,0.0,0.0,-2.5293,-2.6562,-2.6796,-2.728,-2.8278,-3.0009,-3.0247,-3.0769,-3.2032,-3.2923,-3.3666,-3.4315,-3.571,-3.624,-3.5534,-3.616,0.0,0.0,0.0,-3.4235,-3.1616,-3.2736,-3.2237,-3.0329,-3.0208,-2.9275,-2.7644,-2.7644,-2.7219,-2.6276,-2.6339,-2.582,-2.4755,-2.372,-2.272,-2.1738,-2.179,-2.1298,-2.0508,-2.0078,-1.9912,-1.9844,-1.9375,0.0,0.0,-1.8711,-1.8857,-1.9131,-1.8701,-1.8906,-1.9268,-1.917,-1.918,-1.9209,-1.916,-1.9141,-1.9141,-1.9141,-1.8848,-1.8494,-1.8494,-1.8603,-1.8562,-1.8562,-1.9326,-1.9912,-1.9912,-2.0273,-2.0547,-2.0498,-2.0127,-1.9687,-1.9268,-1.8789,-1.828,-1.7833,0.0,0.0,-1.5129,-1.326,-1.2049,-1.2012,-1.1597,-1.151,-1.1804,-1.2064,-1.2191,-1.2158,-1.2445,-1.2452,-1.2151,-1.2191,-1.2238,-1.2318,-1.2859,-1.3387,0.0,0.0,0.0,0.0,0.0,0.0,0.0,0.0,0.0,0.0,0.0,0.0,0.0,0.0,0.0,-2.4002,-2.5149,-2.6344,-2.7906,-2.8253,-2.8605,-2.9466,-2.9917,-3.0454,-3.1331,-3.2606,-3.3472,-3.3589,-3.4464,-3.4959,-3.4832,-3.5483,-3.5159,-3.3587,-3.4879,-3.453,-3.2347,-3.1894,-3.1174,-3.0269,0.0,0.0,-2.705,-2.7525,-2.6791,-2.5159,-2.5586,-2.5031,-2.3744,-2.2673,-2.1496,-2.0361,-2.0718,-2.0789,-2.0508,-2.0078,-1.9912,-1.9805,-1.9033,-1.876,-1.8691,-1.8271,-1.8418,-1.8682,-1.8262,-1.8672,0.0,-1.8447,-1.8496,-1.8682,-1.835,-1.8262,-1.8262,-1.8262,-1.8193,-1.8135,-1.8135,-1.8398,-1.8562,-1.8562,-1.9326,-1.9912,-1.9912,-2.0273,-2.0449,-2.0088,-1.9678,-1.9258,-1.8818,-1.8096,-1.7302,-1.6578,-1.5204,-1.4031,-1.3099,-1.192,-1.1142,-1.0903,-1.1039,-1.1209,-1.1503,-1.1563,-1.1483,-1.1249,-1.1536,-1.1536,-1.1249,-1.1483,-1.1837,-1.2305,-1.2425,-1.2538,0.0,0.0,0.0,0.0,0.0,0.0,0.0,0.0,0.0,0.0,0.0,-1.8681,-2.0133,0.0,-2.3431,-2.4742,-2.5879,-2.6935,-2.7906,-2.8001,-2.842,-2.9681,-3.007,-3.0454,-3.114,-3.2243,-3.2892,-3.2902,-3.3965,-3.4484,-3.4149,-3.4801,-3.4565,-3.3093,-3.3623,-3.3062,-3.1395,-3.0845,-2.994,-2.8609,-2.817,-2.7189,-2.5846,-2.6129,-2.5494,-2.4144,-2.4467,-2.3661,-2.2058,-2.1086,-2.0247,-1.9619,-1.9844,-2.0049,-2.0166,-1.9512,-1.9277,-1.9107,-1.7944,-1.7586,-1.7558,-1.7351,-1.7426,-1.7618,-1.793,-1.8311,-1.8564,-1.8135,-1.8164,-1.8271,-1.8066,-1.8008,-1.8008,-1.8008,-1.8008,-1.8008,-1.8008,-1.8174,-1.8389,-1.8523,-1.8533,-1.8591,-1.8873,-1.8683,-1.8813,-1.9761,-1.9375,-1.8666,-1.7802,-1.7128,-1.6317,-1.5296,-1.4024,-1.304,-1.2425,-1.1291,-1.0494,-1.0347,-1.0341,-1.0468,-1.0762,-1.0915,-1.0995,-1.0995,-1.1276,-1.1356,-1.1209,-1.1356,-1.165,-1.2084,-1.2084,-1.2325,0.0,0.0,0.0,0.0,0.0,0.0,0.0,-1.5586,-1.6856,-1.8193,-1.895,-1.9825,-2.1152,-2.3175,-2.4816,-2.5312,-2.6657,-2.7625,-2.7625,-2.7515,-2.8077,-2.9762,-3.0049,-3.0308,-3.0958,-3.1872,-3.2385,-3.2396,-3.3603,-3.4045,-3.3439,-3.3973,-3.3644,-3.2231,-3.1972,-3.1233,-2.99,-2.9449,-2.8383,-2.677,-2.6579,-2.573,-2.4238,-2.4449,-2.3835,-2.2698,-2.2491,-2.1632,-2.0149,-1.9043,-1.8663,-1.8726,-1.8495,-1.8689,-1.9041,-1.8519,-1.8199,-1.7911,-1.6702,-1.6305,-1.6251,-1.6332,-1.6296,-1.6399,-1.7198,-1.7442,-1.7442,-1.7442,-1.7442,-1.7442,-1.7442,-1.7442,-1.7413,-1.7338,-1.7387,-1.7387,-1.7387,-1.7387,-1.7442,-1.7849,-1.7413,-1.7062,-1.7456,-1.6813,-1.6899,-1.8836,-1.848,-1.7563,-1.6531,-1.5909,-1.5151,-1.4073,-1.2954,-1.2161,-1.1973,-1.0815,-1.0094,-1.004,-0.9813,-0.9728,-0.9779,-1.0076,-1.0242,-1.0335,-1.0546,-1.0754,-1.0894,-1.0953,-1.1273,-1.1703,-1.1757,-1.2231,-0.5701,-0.6954,-0.8817,-1.0933,-1.307,-1.5232,0.0,-1.7881,-1.8203,-1.9787,-2.0322,-2.0795,-2.1982,-2.3888,-2.5347,-2.5392,-2.6657,-2.7625,-2.7625,-2.756,-2.7871,-2.8596,-2.9087,-2.9606,-3.0333,-3.1626,-3.238,-3.2397,-3.2653,-3.2819,-3.2695,-3.2707,-3.2065,-3.0584,-3.0594,-2.9883,-2.846,-2.7195,-2.6419,-2.6162,-2.5397,-2.4076,-2.233,-2.3215,-2.2232,-1.9701,-1.8971,-1.8488,-1.8176,-1.6567,-1.634,-1.6806,-1.5687,-1.5638,-1.6323,-1.7063,-1.6802,-1.6007,-1.5501,-1.5158,-1.4932,-1.5267,-1.515,-1.5009,-1.5415,-1.5517,-1.5517,-1.5517,-1.5517,-1.5517,-1.5517,-1.5517,-1.5432,-1.5172,-1.5087,-1.5087,-1.5087,-1.5087,-1.5197,-1.55,-1.5766,-1.6001,-1.6043,-1.597,-1.5987,-1.6249,-1.5982,-1.5581,-1.5001,-1.4345,-1.358,-1.2721,-1.2153,-1.1472,-1.0411,-1.0215,-1.0007,-0.9746,-0.9699,-0.9402,-0.877,-0.88,-0.8527,-0.7892,-0.8057,-0.8487,-0.9252,-0.9436,-1.008,-1.1096,-1.1356,-1.181,-0.5167,-0.6838,-0.8472,-1.0582,-1.2518,-1.4497,-1.6546,-1.6839,-1.7415,-1.9627,-2.0392,-2.09,-2.1874,-2.3555,-2.4914,-2.5312,-2.6249,-2.714,-2.753,-2.7625,-2.767,-2.7936,-2.8811,-2.9617,-3.0272,-3.1227,-3.1823,-3.1797,-3.1921,-3.1766,-3.1261,-3.0881,-3.0219,-2.9106,-2.8316,-2.7585,-2.6972,-2.589,-2.4925,-2.4116,-2.3515,-2.2327,-2.0788,-2.0989,-2.0154,-1.8473,-1.7161,-1.6534,-1.6461,-1.5248,-1.4985,-1.5212,-1.4866,-1.447,-1.4236,-1.5348,-1.5494,-1.5014,-1.4186,-1.3766,-1.3671,-1.3821,-1.3766,-1.3779,-1.4665,-1.4911,-1.496,-1.5176,-1.5234,-1.5234,-1.5234,-1.5076,-1.4877,-1.472,-1.4588,-1.4438,-1.4438,-1.4605,-1.467,-1.468,-1.4477,-1.4371,-1.4371,-1.3704,-1.329,-1.3482,-1.4379,-1.4648,-1.3755,-1.3215,-1.2519,-1.1454,-1.1023,-1.0601,-1.0127,-0.9446,-0.8971,-0.8858,-0.8241,-0.783,-0.7742,-0.7747,-0.7639,-0.7478,-0.7571,-0.7738,-0.8105,-0.821,-0.8896,-1.0147,-0.9718,-1.0331,-0.3894,-0.5855,-0.7716,-0.9924,-1.1952,-1.3748,-1.5415,-1.6025,-1.686,-1.9033,-1.9912,-2.0522,-2.1367,-2.2857,-2.4106,-2.468,-2.5536,-2.6373,-2.6923,-2.7167,-2.7373,-2.758,-2.8743,-2.9786,-3.0386,-3.1031,-3.1396,-3.1396,-3.1261,-3.0822,-3.0069,-2.9416,-2.8612,-2.7673,-2.6478,-2.5634,-2.52,-2.4243,-2.3201,-2.1893,-2.1502,-2.0534,-1.9171,-1.8327,-1.7517,-1.6713,-1.5412,-1.4808,-1.4744,-1.3969,-1.364,-1.3688,-1.368,-1.3157,-1.2586,-1.339,-1.3703,-1.3682,-1.2781,-1.2453,-1.2394,-1.2475,-1.2453,-1.2565,-1.3483,-1.3789,-1.3837,-1.4088,-1.4167,-1.4167,-1.4167,-1.397,-1.3758,-1.3671,-1.3526,-1.341,-1.341,-1.3541,-1.3668,-1.3518,-1.3089,-1.2778,-1.2778,-1.204,-1.1496,-1.1717,-1.2829,-1.3359,-1.2476,-1.2094,-1.1518,-1.0593,-1.0247,-1.0053,-0.9886,-0.8845,-0.8137,-0.8066,-0.7171,-0.6604,-0.6646,-0.6651,-0.6667,-0.6648,-0.671,-0.6856,-0.7086,-0.7151,-0.777,-0.8919,-0.8414,-0.9012,-0.1619,-0.383,-0.6507,-0.9529,-1.166,-1.3428,-1.538,-1.6489,-1.7427,-1.8359,-1.8985,-1.9624,-2.0461,-2.1958,-2.304,-2.3062,-2.4385,-2.5439,-2.5453,-2.6085,-2.6751,-2.7411,-2.8733,-2.9828,-3.0458,-3.1021,-3.1396,-3.1396,-3.0745,-3.0055,-2.9464,-2.8637,-2.7585,-2.6233,-2.5561,-2.4458,-2.2815,-2.1798,-2.0838,-2.0008,-1.9584,-1.8722,-1.7408,-1.531,-1.4144,-1.3718,-1.3252,-1.3103,-1.3033,-1.2236,-1.2044,-1.2208,-1.1397,-1.1249,-1.139,-1.1182,-1.1263,-1.1505,-1.143,-1.131,-1.1122,-1.1336,-1.1303,-1.1128,-1.1417,-1.1505,-1.1505,-1.1518,-1.1518,-1.1518,-1.1518,-1.1512,-1.1431,-1.1149,-1.1141,-1.1068,-1.1068,-1.1081,-1.1162,-1.1438,-1.1498,-1.1436,-1.1436,-1.143,-1.143,-1.1436,-1.1263,-1.1081,-1.1075,-1.0819,-1.0524,-1.016,-1.012,-0.9886,-0.9263,-0.8571,-0.806,-0.7753,-0.7025,-0.6258,-0.5601,-0.555,-0.5226,-0.4584,-0.4737,-0.5208,-0.6054,-0.6189,-0.6708,-0.7573,-0.8007,-0.8032,0.0135,-0.3019,-0.577,-0.6951,-0.9101,-1.1508,-1.3503,-1.3866,-1.4339,-1.6294,-1.7352,-1.7994,-1.8305,-2.0236,-2.1987,-2.2456,-2.3748,-2.4854,-2.531,-2.5924,-2.6357,-2.6594,-2.7764,-2.8604,-2.8802,-2.9609,-3.0066,-3.0066,-2.9015,-2.7991,-2.7256,-2.6559,-2.5463,-2.3864,-2.3331,-2.2309,-2.0859,-2.0515,-1.9744,-1.8628,-1.6869,-1.5536,-1.4513,-1.3361,-1.2751,-1.2597,-1.2107,-1.1864,-1.1759,-1.0622,-1.02,-1.0226,-0.9438,-0.9165,-0.9168,-0.9148,-0.9171,-0.9311,-1.0451,-1.0788,-1.0722,-1.0822,-1.0782,-1.0697,-1.0378,-1.0257,-1.0221,-0.9765,-0.9667,-0.9667,-0.9667,-0.9548,-0.94,-0.9321,-0.9107,-0.8989,-0.8989,-0.9119,-0.9275,-0.913,-0.9309,-0.9423,-0.9423,-0.9287,-0.9122,-0.8952,-0.961,-0.9987,-0.9686,-0.9113,-0.8584,-0.8406,-0.8229,-0.8005,-0.7835,-0.6941,-0.638,-0.6253,-0.5605,-0.5117,-0.4842,-0.4842,-0.4732,-0.4519,-0.457,-0.4703,-0.4979,-0.5035,-0.5571,-0.6499,-0.6176,-0.6635,0.2154,-0.1006,-0.3888,-0.4904,-0.6832,-0.8964,-1.0747,-1.1297,-1.1918,-1.3874,-1.5104,-1.5837,-1.6138,-1.8154,-1.9935,-2.0251,-2.1666,-2.3068,-2.4034,-2.4567,-2.5249,-2.6302,-2.7201,-2.7878,-2.8319,-2.8251,-2.8443,-2.8907,-2.7825,-2.6641,-2.5419,-2.4554,-2.3306,-2.1776,-2.121,-2.0412,-1.9225,-1.91,-1.8141,-1.6457,-1.4508,-1.3121,-1.23,-1.1863,-1.1359,-1.085,-1.0479,-1.021,-0.986,-0.9033,-0.8675,-0.8612,-0.8163,-0.7954,-0.7899,-0.7963,-0.8014,-0.8156,-0.9256,-0.9648,-0.958,-0.9679,-0.9642,-0.9485,-0.9165,-0.9046,-0.8892,-0.8591,-0.8456,-0.841,-0.8497,-0.841,-0.8235,-0.8235,-0.8128,-0.8027,-0.8027,-0.8139,-0.8195,-0.8052,-0.8139,-0.8235,-0.8235,-0.8052,-0.7853,-0.77,-0.8117,-0.8477,-0.847,-0.7995,-0.7542,-0.7384,-0.7177,-0.7054,-0.6921,-0.6055,-0.5487,-0.5487,-0.4897,-0.4519,-0.4519,-0.4519,-0.4519,-0.4519,-0.4519,-0.4519,-0.4519,-0.4519,-0.4842,-0.5446,-0.5056,-0.5479,0.4392,0.2091,-0.0674,-0.3111,-0.4651,-0.5844,-0.7162,-0.8821,-1.0336,-1.1231,-1.2248,-1.3227,-1.3986,-1.5908,-1.7193,-1.6859,-1.8577,-2.0449,-2.1768,-2.2137,-2.3361,-2.6358,-2.687,-2.7467,-2.8647,-2.7095,-2.6516,-2.7769,-2.7086,-2.5803,-2.3976,-2.2591,-2.1237,-1.9817,-1.9396,-1.8791,-1.7892,-1.7459,-1.6042,-1.3677,-1.2573,-1.1607,-1.0797,-1.0741,-0.9937,-0.851,-0.8528,-0.8117,-0.7462,-0.7472,-0.7423,-0.7418,-0.7349,-0.7416,-0.7536,-0.7526,-0.7666,-0.7862,-0.7862,-0.779,-0.7716,-0.7935,-0.7853,-0.77,-0.7861,-0.7775,-0.7648,-0.7812,-0.7721,-0.7606,-0.7822,-0.7887,-0.7892,-0.7882,-0.7887,-0.7897,-0.7897,-0.7897,-0.7897,-0.7897,-0.7897,-0.7897,-0.7897,-0.7706,-0.7551,-0.7541,-0.675,-0.6446,-0.7284,-0.7403,-0.7262,-0.6981,-0.6956,-0.6819,-0.6495,-0.5873,-0.5433,-0.5433,-0.4838,-0.4519,-0.4519,-0.4519,-0.4519,-0.4519,-0.4519,-0.4519,-0.4519,-0.4519,-0.4519,-0.4522,-0.4619,-0.4691,0.6721,0.5109,0.3418,0.1414,-0.0336,-0.1949,-0.3574,-0.5368,-0.7108,-0.8618,-0.977,-1.0742,-1.1582,-1.4345,-1.6588,-1.7165,-1.9254,-2.0983,-2.1368,-2.1514,-2.2286,-2.4169,-2.4406,-2.471,-2.5423,-2.4715,-2.3884,-2.3179,-2.2847,-2.242,-2.1958,-2.0674,-1.9497,-1.8534,-1.8121,-1.7459,-1.6587,-1.5332,-1.3848,-1.2081,-1.1285,-1.0339,-0.9233,-0.8769,-0.8015,-0.7096,-0.7383,-0.7406,-0.7187,-0.6698,-0.652,-0.6446,-0.5722,-0.5489,-0.5624,-0.5493,-0.5555,-0.5705,-0.5705,-0.6555,-0.769,-0.7746,-0.768,-0.7456,-0.6838,-0.6637,-0.645,-0.5962,-0.5788,-0.5761,-0.5811,-0.5979,-0.6048,-0.5853,-0.5982,-0.6079,-0.6079,-0.6079,-0.6079,-0.6079,-0.6079,-0.6079,-0.6079,-0.5868,-0.5712,-0.5655,-0.5314,-0.5381,-0.6298,-0.5843,-0.5377,-0.5202,-0.5183,-0.5112,-0.5066,-0.4842,-0.4732,-0.4732,-0.457,-0.4519,-0.4519,-0.4519,-0.4519,-0.4519,-0.4519,-0.4519,-0.4519,-0.4519,-0.4519,-0.4522,-0.4619,-0.4691,0.9145,0.7772,0.6429,0.4359,0.2485,0.0801,-0.0521,-0.1662,-0.3063,-0.5666,-0.6759,-0.7671,-0.896,-1.1977,-1.4547,-1.5349,-1.7503,-1.9484,-2.0539,-2.0424,-2.0885,-2.2703,-2.2689,-2.2814,-2.3304,-2.2907,-2.2209,-2.1246,-2.1072,-2.0769,-2.0098,-1.8588,-1.7332,-1.6467,-1.5537,-1.4821,-1.4326,-1.3007,-1.1762,-1.0586,-0.9714,-0.8757,-0.7741,-0.7391,-0.6799,-0.615,-0.6327,-0.6207,-0.594,-0.5592,-0.5459,-0.5393,-0.4848,-0.4684,-0.4809,-0.4786,-0.4858,-0.4992,-0.4935,-0.5605,-0.6471,-0.6481,-0.6375,-0.618,-0.5787,-0.5576,-0.5493,-0.5116,-0.4989,-0.4952,-0.502,-0.5104,-0.5145,-0.5057,-0.5152,-0.526,-0.526,-0.5315,-0.5428,-0.5428,-0.5308,-0.526,-0.526,-0.5081,-0.4911,-0.484,-0.4697,-0.4766,-0.5265,-0.4925,-0.4558,-0.4525,-0.4519,-0.4519,-0.4519,-0.4519,-0.4519,-0.4519,-0.4519,-0.4519,-0.4519,-0.4519,-0.4519,-0.4519,-0.4519,-0.4519,-0.4519,-0.4519,-0.4519,-0.4519,-0.4551,-0.4589,1.165,1.0184,0.8673,0.6576,0.4541,0.2836,0.2123,0.1711,0.0682,-0.2471,-0.3542,-0.4414,-0.631,-0.9083,-1.1527,-1.2691,-1.4728,-1.6903,-1.9282,-1.8859,-1.9162,-2.1515,-2.1364,-2.1252,-2.1823,-2.1297,-2.0718,-2.0167,-2.0079,-1.9508,-1.8281,-1.6367,-1.4917,-1.4037,-1.2794,-1.1933,-1.166,-1.0802,-0.9937,-0.9002,-0.8027,-0.7182,-0.648,-0.648,-0.6036,-0.5378,-0.5378,-0.5058,-0.4519,-0.4519,-0.4522,-0.4522,-0.4522,-0.4548,-0.4667,-0.4735,-0.4765,-0.4693,-0.4578,-0.4561,-0.4598,-0.485,-0.4789,-0.4691,-0.4823,-0.4769,-0.4697,-0.479,-0.4736,-0.4724,-0.486,-0.4908,-0.4918,-0.4837,-0.4941,-0.5108,-0.5108,-0.5277,-0.5373,-0.5373,-0.5264,-0.5108,-0.5108,-0.488,-0.4759,-0.4827,-0.4462,-0.4196,-0.4196,-0.4359,-0.4522,-0.4519,-0.4522,-0.4522,-0.4519,-0.4522,-0.4522,-0.4519,-0.4522,-0.4522,-0.4519,-0.4519,-0.4519,-0.4519,-0.4519,-0.4519,-0.4519,-0.4519,-0.4519,-0.4519,-0.4519,-0.4519,1.4857,1.2827,1.0868,0.9964,0.7274,0.4823,0.4408,0.3006,0.1529,0.0767,-0.0914,-0.2604,-0.3909,-0.5481,-0.7808,-1.179,-1.3573,-1.5049,-1.6619,-1.6937,-1.7584,-1.9443,-1.9328,-1.935,-1.9897,-1.9094,-1.7978,-1.6555,-1.6103,-1.602,-1.6214,-1.4262,-1.2788,-1.2044,-1.2049,-1.1177,-0.9316,-0.9512,-0.8725,-0.7068,-0.6874,-0.6416,-0.5706,-0.5706,-0.5328,-0.468,-0.468,0.0,-0.4477,-0.4477,-0.4484,-0.449,-0.449,-0.4507,-0.4531,-0.4531,-0.3741,-0.2725,-0.2671,-0.2661,-0.2891,-0.4413,-0.4714,-0.4535,-0.4562,-0.4551,-0.4562,-0.4536,-0.4559,-0.4604,-0.4814,-0.4917,-0.4854,-0.4608,-0.475,-0.4986,-0.5305,-0.5388,-0.541,-0.541,-0.5388,-0.5239,-0.4986,-0.49,-0.4841,-0.4903,-0.3602,-0.2621,-0.2621,-0.3694,-0.4487,-0.4477,-0.4484,-0.4487,-0.4477,-0.4484,-0.4487,-0.4477,-0.4484,-0.4487,-0.4477,-0.4477,-0.4477,-0.4477,-0.4522,-0.4522,-0.4477,-0.4522,-0.4519,-0.4519,-0.4519,-0.4519,1.6961,1.5515,1.416,1.2232,1.0014,0.8057,0.7021,0.57,0.4504,0.3571,0.2248,0.0594,-0.1326,-0.3509,-0.6028,-0.9077,-1.1793,-1.4191,-1.6216,-1.659,-1.6978,-1.8115,-1.8095,-1.7985,-1.8039,-1.7096,-1.6056,-1.5038,-1.3787,-1.3502,-1.4337,-1.2569,-1.1052,-1.0121,-0.9926,-0.9308,-0.8178,-0.8027,-0.7323,-0.6036,-0.6036,-0.566,-0.4959,-0.4959,-0.4798,-0.448,-0.448,-0.4484,-0.4432,-0.3633,-0.3297,-0.3302,-0.3302,-0.3302,-0.3413,-0.4216,-0.4045,-0.3307,-0.2464,-0.2184,-0.2359,-0.3204,-0.3411,-0.3302,-0.3302,-0.3302,-0.3312,-0.3308,-0.3323,-0.3323,-0.3439,-0.348,-0.3447,-0.3335,-0.3409,-0.3565,-0.3936,-0.4011,-0.4011,-0.4011,-0.4019,-0.3914,-0.3792,-0.3632,-0.3789,-0.4555,-0.3972,-0.3081,-0.2291,-0.3538,-0.4222,-0.3408,-0.3297,-0.3299,-0.3294,-0.4036,-0.415,-0.335,-0.3297,-0.3299,-0.3294,-0.4089,-0.4487,-0.4487,-0.3685,-0.3685,-0.4487,-0.4484,-0.4477,-0.4525,-0.4525,-0.4522,1.8966,1.8108,1.7295,1.4316,1.253,1.1088,0.9411,0.8527,0.7604,0.6121,0.5199,0.3949,0.1595,-0.1165,-0.3855,-0.5993,-0.9297,-1.2641,-1.5455,-1.573,-1.5851,-1.6499,-1.6665,-1.6533,-1.6107,-1.5155,-1.43,-1.38,-1.1929,-1.1167,-1.2095,-1.0707,-0.9442,-0.8381,-0.7777,-0.7396,-0.723,-0.6696,-0.6046,-0.5277,-0.5277,-0.5014,-0.4484,-0.4141,-0.403,-0.3984,-0.3984,-0.4212,-0.4386,-0.319,-0.2289,-0.173,-0.173,-0.173,-0.1899,-0.3086,-0.3543,-0.3375,-0.2133,-0.1741,-0.1741,-0.1741,-0.1736,-0.173,-0.173,-0.173,-0.173,-0.173,-0.173,-0.173,-0.173,-0.173,-0.173,-0.173,-0.1709,-0.1812,-0.2039,-0.2111,-0.2111,-0.2111,-0.2127,-0.2148,-0.2148,-0.1876,-0.2124,-0.337,-0.3543,-0.3088,-0.1903,-0.2811,-0.3322,-0.2742,-0.2122,-0.173,-0.1729,-0.2852,-0.3304,-0.2738,-0.2065,-0.173,-0.1729,-0.2907,-0.3814,-0.4501,-0.2963,-0.2625,-0.353,-0.3869,-0.4033,-0.4027,-0.4366,-0.4477,2.1647,2.05,1.9342,1.6766,1.4493,1.2555,1.1177,1.0187,0.9257,0.8246,0.7363,0.6415,0.5111,0.3261,0.0671,-0.3231,-0.5993,-0.8845,-1.2231,-1.2518,-1.2848,-1.3943,-1.4263,-1.4252,-1.3946,-1.3278,-1.2496,-1.1673,-0.9657,-0.8526,-0.8664,-0.819,-0.758,-0.6804,-0.675,-0.6367,-0.5701,-0.5891,-0.5521,-0.4588,-0.4598,-0.4549,-0.4438,-0.3072,-0.2399,-0.2399,-0.2399,-0.319,0.0,-0.434,-0.2693,-0.0224,-0.0224,-0.0224,-0.0224,-0.0336,-0.0392,-0.0392,-0.0224,-0.0224,-0.0224,-0.0224,-0.0224,-0.0224,-0.0224,-0.0224,-0.0224,-0.0224,-0.0224,-0.0224,-0.0224,-0.0224,-0.0224,-0.0224,-0.0225,-0.0225,-0.0226,-0.0226,-0.0226,-0.0226,-0.0226,-0.0225,-0.0225,-0.0224,-0.0224,-0.0392,-0.0392,-0.0336,-0.0224,-0.0336,-0.1403,-0.4011,-0.1852,-0.0224,-0.0223,-0.0336,-0.1513,-0.411,-0.1737,-0.0224,-0.0223,-0.0335,-0.1677,-0.4455,-0.2965,-0.1618,-0.0391,-0.1785,-0.2399,-0.2454,-0.3866,-0.4487,2.3681,2.2799,2.1794,1.9709,1.7523,1.5466,1.3887,1.2766,1.1711,1.0504,0.9627,0.877,0.7634,0.5687,0.3251,0.0199,-0.292,-0.6029,-0.9117,-1.0243,-1.1791,-1.4328,-1.4156,-1.3811,-1.3733,-1.2845,-1.1447,-0.9312,-0.7982,-0.7044,-0.6593,-0.6851,-0.7031,-0.7058,-0.6505,-0.6182,-0.6146,-0.5428,-0.4418,-0.3125,-0.313,-0.3588,-0.4507,-0.3878,-0.2575,-0.0895,-0.0895,-0.1231,0.0,-0.1794,-0.1065,0.0168,0.202,0.2695,0.2581,0.1677,0.134,0.134,0.134,0.134,0.134,0.134,0.134,0.1509,0.2411,0.1456,-0.0,-0.0,-0.0,-0.0,-0.0,-0.0,-0.0,-0.0,-0.0,-0.0,-0.0,-0.0,-0.0,-0.0,-0.0,-0.0,-0.0,-0.0,-0.0,-0.0,-0.0,-0.0,-0.0,-0.0,-0.0449,-0.1685,-0.0729,-0.0,-0.0,-0.0,-0.0505,-0.1738,-0.0673,-0.0,-0.0,-0.0,-0.056,-0.1794,-0.1175,-0.0559,-0.0,-0.0615,-0.0894,-0.0893,-0.2406,-0.3132,2.4965,2.4389,2.3629,2.1689,1.9901,1.8126,1.6328,1.5454,1.4634,1.309,1.2339,1.1548,1.0069,0.7911,0.561,0.3223,-0.0133,-0.3432,-0.6073,-0.7436,-0.9365,-1.2714,-1.2714,-1.246,-1.2546,-1.1847,-1.0294,-0.7591,-0.6912,-0.6204,-0.5273,-0.5719,-0.6168,-0.6519,-0.5854,-0.5419,-0.5317,-0.4775,-0.3931,-0.2852,-0.1955,-0.2125,-0.3147,-0.224,-0.0671,0.1289,0.084,0.0671,0.0,0.0671,0.0671,0.084,0.2972,0.4107,0.4392,0.3302,0.2905,0.2905,0.2905,0.2905,0.2905,0.2905,0.2903,0.3072,0.4157,0.3023,0.1228,0.0781,0.067,0.056,0.0112,-0.0,-0.0,-0.0,-0.0,-0.0,-0.0,-0.0,-0.0,-0.0,-0.0,-0.0,-0.0,-0.0,-0.0,-0.0,-0.0,-0.0,-0.0,-0.0,-0.0,-0.0,-0.0,-0.0,-0.0,-0.0,-0.0,-0.0,-0.0,-0.0,-0.0,-0.0,-0.0,-0.0,-0.0,-0.0,-0.0,-0.0,-0.0,-0.0,-0.1063,-0.1566,2.5391,2.5041,2.4455,2.2248,2.1164,2.0162,1.8194,1.8148,1.8015,1.6045,1.5603,1.4829,1.2592,1.0279,0.8025,0.5728,0.2337,-0.0875,-0.3233,-0.3582,-0.4795,-0.7733,-0.9043,-0.971,-0.9559,-0.9629,-0.8858,-0.6786,-0.6588,-0.5991,-0.457,-0.4529,-0.4532,-0.4532,-0.4536,-0.3799,-0.2287,-0.3764,-0.4514,-0.4455,-0.1457,-0.0056,0.0056,0.3033,0.4399,0.4343,0.2852,0.2174,0.0,0.2174,0.2174,0.2174,0.2232,0.3132,0.4497,0.4497,0.4497,0.4497,0.4497,0.4497,0.4497,0.4497,0.449,0.448,0.448,0.4487,0.4154,0.2623,0.2174,0.184,0.0391,-0.0,-0.0,-0.0,-0.0,-0.0,-0.0,-0.0,-0.0,-0.0,-0.0,-0.0,-0.0,-0.0,-0.0,-0.0,-0.0,-0.0,-0.0,-0.0,-0.0,-0.0,-0.0,-0.0,-0.0,-0.0,-0.0,-0.0,-0.0,-0.0,-0.0,-0.0,-0.0,-0.0,-0.0,-0.0,-0.0,-0.0,-0.0,-0.0,-0.0,-0.0,2.6001,2.5668,2.5153,2.4151,2.3082,2.1927,2.0566,1.9829,1.9134,1.816,1.6569,1.5103,1.4005,1.1744,0.9649,0.8566,0.5766,0.3021,0.103,-0.3903,-0.7861,-0.9422,-1.0635,-1.121,-1.0912,-0.8864,-0.729,-0.6652,-0.5714,-0.4959,-0.4529,-0.4477,-0.4484,-0.449,-0.4497,-0.3254,-0.0727,-0.1176,-0.1401,-0.1401,0.1624,0.3091,0.3091,0.2968,0.353,0.4501,0.3984,0.3755,0.3755,0.3755,0.3755,0.3755,0.3747,0.4086,0.4484,0.4477,0.4473,0.4473,0.4473,0.4473,0.4473,0.4473,0.4525,0.4522,0.4522,0.4477,0.4373,0.3922,0.3755,0.3641,0.319,0.2289,0.1506,0.1507,0.1507,0.1507,0.1507,0.1507,0.1507,0.1507,0.1507,0.1507,0.1507,0.1507,0.1507,0.1507,0.1507,0.1117,0.0112,-0.0,-0.0,-0.0,-0.0,-0.0,-0.0,-0.0,-0.0,-0.0,-0.0,-0.0,-0.0,-0.0,-0.0,-0.0,-0.0,-0.0,-0.0,-0.0,-0.0,-0.0,-0.0,-0.0,2.5685,2.5551,2.5235,2.4693,2.4046,2.3265,2.2313,2.1631,2.0966,2.0203,1.8544,1.6979,1.6279,1.4185,1.2425,1.1985,0.8823,0.4745,0.013,-0.6013,-1.0403,-1.1489,-1.1986,-1.1841,-1.0934,-0.8854,-0.7215,-0.6386,-0.5508,-0.486,-0.4539,-0.3405,-0.2788,-0.2792,-0.2796,-0.1903,-0.0,-0.0,0.056,0.1738,0.3602,0.4511,0.4452,0.3524,0.3577,0.449,0.4487,0.4484,0.0,0.4484,0.4484,0.4477,0.4416,0.4392,0.4392,0.4382,0.4382,0.4389,0.4498,0.4519,0.4519,0.4519,0.4519,0.4519,0.4519,0.4522,0.4473,0.448,0.4484,0.4484,0.449,0.3805,0.307,0.3074,0.3074,0.3074,0.3074,0.3074,0.3074,0.3074,0.3074,0.3074,0.3074,0.3074,0.3074,0.3074,0.3074,0.2738,0.1843,0.1172,0.0837,0.0838,0.0838,0.0838,0.0838,0.0336,-0.0,-0.0,-0.0,-0.0,-0.0,-0.0,-0.0,-0.0,-0.0,-0.0,-0.0,-0.0,-0.0,-0.0,-0.0,-0.0,0.0,2.4829,2.4835,2.4199,2.4234,2.4231,2.3479,2.3428,0.0,2.2172,2.1135,2.0094,1.9035,1.7496,1.6209,1.5776,1.1947,0.5559,-0.4323,-0.9401,-1.2577,-1.3725,-1.3057,-1.1772,-0.998,-0.9361,-0.8172,-0.6082,-0.5626,-0.5077,-0.4209,-0.1504,0.0111,0.0334,0.0334,0.0334,0.0336,0.0224,0.1566,0.434,0.4455,0.4504,0.4494,0.4484,0.4477,0.4477,0.4522,0.4512,0.4501,0.4501,0.4501,0.4433,0.4247,0.4197,0.4197,0.4207,0.4204,0.4214,0.4464,0.457,0.457,0.4625,0.4625,0.457,0.457,0.4519,0.4519,0.4519,0.4519,0.4519,0.4477,0.4477,0.448,0.449,0.4494,0.4494,0.4494,0.4494,0.4494,0.4494,0.4494,0.4494,0.4494,0.4494,0.4494,0.4494,0.4494,0.4494,0.4494,0.3244,0.2343,0.2343,0.2343,0.2343,0.2343,0.1006,0.0168,0.0168,0.0168,0.0112,-0.0,-0.0,-0.0,-0.0,-0.0,-0.0,-0.0,-0.0,-0.0,-0.0,-0.0,-0.0,2.323,0.0,2.4763,2.4398,2.4503,2.4659,0.0,0.0,0.0,0.0,0.0,2.111,2.0553,1.9961,1.9368,1.9006,1.8661,1.3289,-0.1678,-1.1638,-1.72,-1.6713,-1.4769,-1.2456,-0.9978,-0.859,-0.7274,-0.6023,-0.3099,-0.1274,-0.1057,-0.0389,0.1055,0.3357,0.3463,0.3463,0.3421,0.2289,0.2065,0.2738,0.3922,0.4487,0.4484,0.4525,0.4522,0.4522,0.4519,0.4399,0.4244,0.4244,0.4244,0.4241,0.4207,0.4197,0.4207,0.4372,0.4341,0.4319,0.4996,0.5273,0.5382,0.5932,0.5714,0.5273,0.5273,0.4893,0.4519,0.4519,0.4519,0.4519,0.4522,0.4522,0.4522,0.4525,0.4525,0.4525,0.4525,0.4525,0.4525,0.4525,0.4525,0.4525,0.4525,0.4525,0.4525,0.4525,0.4525,0.4473,0.4484,0.4196,0.3971,0.3981,0.3981,0.3981,0.3981,0.2571,0.1675,0.1675,0.1675,0.1173,0.0056,-0.0,-0.0,-0.0,-0.0,-0.0,-0.0,-0.0,-0.0,-0.0,-0.0,-0.0,2.1267,2.2492,2.3786,2.396,2.3889,2.3877,2.4255,0.0,0.0,0.0,0.0,2.1789,2.0816,1.8752,1.7313,1.7654,1.7013,1.1635,-0.2176,-0.717,-1.0165,-1.2091,-1.0793,-1.0063,-1.0725,-0.9475,-0.7711,-0.5432,-0.1998,0.0612,0.2011,0.2058,0.2839,0.4432,0.4477,0.448,0.4497,0.3694,0.3239,0.3239,0.4082,0.4477,0.4525,0.4846,0.4948,0.4948,0.4948,0.4899,0.4759,0.4379,0.4197,0.418,0.4043,0.4039,0.4046,0.443,0.4509,0.4557,0.5379,0.5706,0.5889,0.6269,0.6226,0.5982,0.5982,0.5764,0.5336,0.468,0.4519,0.4519,0.4519,0.4519,0.4519,0.4519,0.4519,0.4519,0.4519,0.4519,0.4519,0.4519,0.4519,0.4519,0.4519,0.4519,0.4519,0.4519,0.4519,0.4519,0.4525,0.4525,0.4473,0.448,0.448,0.448,0.448,0.3741,0.3236,0.3244,0.3244,0.2907,0.2124,0.1395,0.067,-0.0,-0.0,-0.0,-0.0,-0.0,-0.0,-0.0,-0.0,-0.0,1.8964,2.002,2.149,2.2553,2.2551,2.2432,2.2941,0.0,0.0,0.0,0.0,2.1546,1.9496,1.6223,1.3948,1.4234,1.0815,0.4796,-0.48,-0.3529,-0.3206,-0.7566,-0.7325,-0.8174,-1.1652,-0.9926,-0.725,-0.4039,-0.089,0.2004,0.4556,0.4653,0.4639,0.4639,0.4629,0.4636,0.4653,0.4646,0.4639,0.4639,0.4639,0.4691,0.4842,0.5245,0.5512,0.5647,0.5621,0.0,0.5498,0.4677,0.4299,0.4254,0.4038,0.3932,0.4026,0.4658,0.4836,0.493,0.5697,0.6206,0.6549,0.6549,0.666,0.675,0.675,0.6696,0.6372,0.5171,0.4736,0.4625,0.4515,0.4519,0.4519,0.4519,0.4519,0.4519,0.4519,0.4519,0.4519,0.4519,0.4519,0.4519,0.4519,0.4519,0.4519,0.4519,0.4519,0.4519,0.4519,0.4519,0.4519,0.4519,0.4519,0.4519,0.4519,0.4519,0.4525,0.449,0.449,0.449,0.4494,0.3244,0.1842,0.0391,0.0112,-0.0,-0.0,-0.0,-0.0,-0.0,-0.0,-0.0,1.6528,1.5985,1.6153,1.8978,2.0293,2.0693,1.9844,0.0,0.0,0.0,0.0,1.8667,1.4902,1.5593,1.5519,1.1659,0.3857,-0.3649,-0.9172,-1.4819,-1.8046,-1.7117,-1.5881,-1.4119,-1.1683,-0.543,-0.1308,-0.0723,0.2826,0.5179,0.5639,0.5449,0.5328,0.5328,0.5324,0.5328,0.5332,0.5328,0.5328,0.5328,0.5328,0.566,0.6253,0.5492,0.5611,0.6411,0.0,0.6035,0.5878,0.525,0.4849,0.4613,0.4556,0.4582,0.4646,0.5366,0.5514,0.5487,0.6362,0.726,0.8062,0.8062,0.7829,0.7509,0.7509,0.7074,0.6534,0.6317,0.5819,0.5218,0.4625,0.4519,0.4519,0.4519,0.4519,0.4519,0.4519,0.4519,0.4519,0.4519,0.4519,0.4519,0.4519,0.4519,0.4519,0.4519,0.4519,0.4519,0.4519,0.4519,0.4519,0.4519,0.4519,0.4519,0.4519,0.4519,0.4519,0.4522,0.4522,0.4473,0.448,0.4262,0.3413,0.1896,0.0614,-0.0,-0.0,-0.0,-0.0,-0.0,-0.0,-0.0,1.3723,1.319,1.2899,1.3259,1.438,1.5389,1.5338,0.0,0.0,0.0,0.0,0.0,0.9836,0.7911,0.4091,-0.4406,-0.4284,-0.4677,-0.9182,-0.9069,-0.9632,-1.2604,-1.0618,-0.9197,-0.9624,-0.4465,-0.0109,0.2232,0.5066,0.6465,0.5909,0.605,0.6091,0.6091,0.6091,0.6091,0.6091,0.647,0.647,0.6091,0.5706,0.5873,0.6578,0.5982,0.6147,0.6974,0.0,0.6499,0.6395,0.5601,0.5269,0.5125,0.5055,0.5014,0.5117,0.5757,0.6136,0.6361,0.6785,0.745,0.8136,0.8136,0.8177,0.8321,0.8321,0.8049,0.7723,0.7289,0.6637,0.5928,0.5222,0.5058,0.4948,0.457,0.4519,0.4519,0.4519,0.4519,0.4519,0.4519,0.4519,0.4519,0.4519,0.4519,0.4519,0.4519,0.4519,0.4519,0.4519,0.4519,0.4519,0.4519,0.4519,0.4519,0.4519,0.4519,0.4519,0.4519,0.4519,0.4519,0.4525,0.448,0.4144,0.3463,0.2794,0.1619,-0.0,-0.0,-0.0,-0.0,-0.0,-0.0,1.1126,1.0698,1.0019,0.8223,0.0,0.0,0.0,0.0,0.0,0.0,0.0,0.7402,0.4313,-0.0302,-0.6707,-1.6055,-1.0759,-0.6798,-1.062,-0.6297,-0.4644,-0.9738,-0.8419,-0.7404,-0.8223,-0.357,0.1031,0.473,0.637,0.6895,0.6123,0.6328,0.6561,0.678,0.667,0.6639,0.6639,0.7222,0.7278,0.6858,0.6303,0.6392,0.6982,0.6524,0.6728,0.7442,0.7104,0.6978,0.6919,0.6078,0.5702,0.5641,0.5548,0.5604,0.5733,0.6215,0.6641,0.6992,0.7101,0.7482,0.7895,0.8009,0.8383,0.8804,0.8804,0.8804,0.8699,0.8103,0.7563,0.6907,0.5977,0.576,0.5655,0.5117,0.4846,0.4732,0.4732,0.4625,0.4519,0.4519,0.4519,0.4519,0.4519,0.4546,0.456,0.4522,0.4549,0.456,0.4522,0.4519,0.4519,0.4519,0.4519,0.4519,0.4519,0.4519,0.4519,0.4519,0.4519,0.4519,0.4519,0.4525,0.4477,0.4477,0.4487,0.3357,0.1059,0.067,0.0335,-0.0,-0.0,-0.0,0.9068,0.7958,0.6737,0.5896,0.7632,0.0,0.6202,0.5328,0.0,0.4406,0.0,0.1029,-0.1833,-0.5617,-0.9059,-1.14,-1.3336,-1.5259,-1.7364,-1.8855,-1.9286,-1.8064,-1.9887,-1.7824,-0.9124,-0.0868,0.4641,0.6295,0.6599,0.6647,0.6534,0.633,0.653,0.7212,0.697,0.679,0.679,0.6838,0.713,0.7616,0.7557,0.781,0.8239,0.723,0.7158,0.7847,0.7583,0.745,0.7405,0.6793,0.6375,0.6165,0.6147,0.6428,0.6894,0.6937,0.6979,0.7061,0.7335,0.7649,0.7928,0.825,0.8557,0.8804,0.8804,0.8804,0.8804,0.8752,0.8699,0.8315,0.6907,0.6529,0.6534,0.648,0.5928,0.5433,0.5433,0.4948,0.4519,0.4519,0.4519,0.4519,0.4519,0.4579,0.4626,0.4539,0.4582,0.4623,0.4536,0.4519,0.4519,0.4519,0.4519,0.4519,0.4519,0.4519,0.4519,0.4519,0.4519,0.4519,0.4519,0.4519,0.4519,0.4519,0.4473,0.4366,0.4193,0.2734,0.1338,-0.0,-0.0,-0.0,0.6469,0.5317,0.4283,0.3049,0.283,0.0,0.0,0.1483,0.0218,-0.0487,-0.1478,-0.2984,-0.5194,-0.8978,-1.2045,-1.2877,-1.4276,-1.5879,-1.7446,-1.8011,-1.8496,-1.9113,-1.533,-1.2293,-1.1245,0.256,1.05,0.8153,0.8751,0.8553,0.7125,0.7778,0.8187,0.8166,0.7724,0.7665,0.7977,0.7659,0.7588,0.781,0.7566,0.7664,0.8048,0.7176,0.7132,0.7629,0.7321,0.7188,0.7188,0.6929,0.6778,0.6683,0.6683,0.681,0.6979,0.6979,0.6979,0.7068,0.7361,0.7669,0.7976,0.8277,0.8571,0.8804,0.8804,0.8804,0.8804,0.8804,0.8804,0.8586,0.7563,0.7289,0.7182,0.6696,0.6367,0.6204,0.6204,0.6142,0.5949,0.5389,0.5385,0.5303,0.4845,0.4714,0.467,0.4613,0.4653,0.4636,0.4536,0.4519,0.4519,0.4519,0.4519,0.4519,0.4519,0.4519,0.4519,0.4519,0.4519,0.4519,0.4519,0.4519,0.4519,0.4519,0.4522,0.4473,0.448,0.3913,0.3355,0.2747,0.0894,-0.0,0.4529,0.3534,0.265,0.1391,0.0,0.0,-0.0055,-0.1564,-0.3271,-0.3937,-0.4625,-0.5572,-0.7189,-1.0129,-1.2363,-1.2635,-1.3771,-1.4821,-1.5476,-1.582,-1.6253,-1.6968,-1.2103,-0.8706,-0.8804,0.4463,1.2082,0.9644,0.9925,0.9472,0.7639,0.8296,0.8768,0.8822,0.8049,0.7864,0.8446,0.8098,0.7786,0.7603,0.7596,0.7676,0.7736,0.7242,0.7132,0.7315,0.7108,0.6979,0.6979,0.6979,0.6979,0.6979,0.6979,0.6979,0.6979,0.6979,0.6979,0.7068,0.7361,0.7609,0.7849,0.8243,0.851,0.8691,0.8778,0.8804,0.8804,0.8804,0.8804,0.8699,0.8156,0.8049,0.7937,0.7402,0.7128,0.6966,0.6966,0.6929,0.6758,0.6192,0.6131,0.608,0.564,0.5557,0.5514,0.5572,0.5338,0.5107,0.5001,0.4712,0.4519,0.4519,0.4519,0.4519,0.4519,0.4519,0.4519,0.4519,0.4519,0.4519,0.4519,0.4519,0.4519,0.4519,0.4519,0.4522,0.4473,0.4473,0.4484,0.4445,0.2066,0.0614,0.3481,0.272,0.2006,0.1276,0.0,0.0,-0.1882,-0.357,-0.5052,-0.5649,-0.6239,-0.6931,-0.8002,-0.886,-0.9444,-0.9629,-1.1624,-1.2857,-1.19,-1.3779,-1.4394,-1.2041,-1.2475,-0.9537,-0.0828,0.4416,0.827,1.0646,0.9768,0.8869,0.8147,0.7563,0.7783,0.9074,0.7723,0.728,0.7919,0.7919,0.7621,0.7021,0.7889,0.7996,0.7506,0.7513,0.7301,0.6979,0.6979,0.6979,0.6979,0.6979,0.6979,0.6979,0.6979,0.6979,0.6979,0.6979,0.6979,0.7068,0.7361,0.7513,0.7607,0.8225,0.842,0.843,0.8717,0.8804,0.8804,0.8804,0.8804,0.8804,0.8804,0.8804,0.8804,0.8804,0.8262,0.7723,0.7723,0.7128,0.6647,0.6593,0.6593,0.6718,0.7054,0.7211,0.7354,0.7483,0.6763,0.6155,0.6032,0.5113,0.4519,0.4519,0.4519,0.4519,0.4519,0.4519,0.4519,0.4519,0.4519,0.4519,0.4519,0.4519,0.4519,0.4519,0.4519,0.4519,0.4519,0.4519,0.4522,0.448,0.3458,0.1949,0.2223,0.1225,0.0501,-0.0278,-0.1474,-0.2636,0.0,-0.3416,0.0,0.0,-0.6749,-0.7572,-0.7143,-0.8677,-0.9627,-0.8435,-0.9622,-1.0466,-0.9717,-1.0606,-1.1033,-1.0149,-0.5996,-0.1957,0.1108,0.8087,1.275,1.3638,1.2923,1.1401,0.895,0.8733,0.8909,0.9374,0.824,0.7904,0.8439,0.848,0.8193,0.7621,0.7884,0.7716,0.7161,0.7412,0.7301,0.6979,0.6979,0.6979,0.6979,0.6979,0.6979,0.6979,0.6979,0.6979,0.6979,0.6979,0.6979,0.7068,0.7361,0.7513,0.7574,0.7936,0.8203,0.844,0.8477,0.8644,0.8804,0.8804,0.8804,0.8804,0.8804,0.8804,0.8804,0.8804,0.8646,0.848,0.848,0.8467,0.8269,0.7644,0.779,0.7877,0.7456,0.7481,0.7578,0.7644,0.727,0.6866,0.6457,0.6137,0.5769,0.5273,0.5218,0.5003,0.4519,0.4519,0.4519,0.4519,0.4519,0.4519,0.4519,0.4519,0.4519,0.4519,0.4519,0.4519,0.4519,0.4519,0.4522,0.448,0.4193,0.3747,0.1117,0.0335,-0.0168,-0.0909,-0.185,-0.2741,-0.3256,-0.3546,-0.4119,-0.5269,-0.6349,-0.7015,-0.6668,-0.7829,-0.8575,-0.7741,-0.8081,-0.8325,-0.7868,-0.8182,-0.7964,-0.6612,-0.2092,0.1924,0.4382,0.9882,1.3946,1.5532,1.4516,1.2707,1.0094,1.0108,1.0092,0.9843,0.8941,0.8545,0.8716,0.8918,0.8635,0.7919,0.8316,0.8103,0.737,0.7559,0.7538,0.7363,0.7363,0.7238,0.6979,0.6979,0.6979,0.7021,0.728,0.7363,0.7405,0.7607,0.7523,0.7391,0.758,0.7513,0.7341,0.7649,0.801,0.8352,0.8396,0.8643,0.8954,0.8823,0.8804,0.8804,0.8804,0.8804,0.8804,0.8804,0.8804,0.8804,0.8804,0.8945,0.8902,0.8336,0.8472,0.8591,0.8411,0.8329,0.8383,0.8644,0.8077,0.738,0.6688,0.6588,0.6421,0.5982,0.5928,0.5655,0.4948,0.4893,0.4787,0.4515,0.4519,0.4519,0.4519,0.4519,0.4519,0.4519,0.4519,0.4519,0.4519,0.4519,0.4522,0.4473,0.4473,0.448,0.0168,-0.0056,-0.0283,-0.0933,-0.1175,-0.1586,-0.2999,-0.3892,-0.4567,-0.5273,-0.5433,-0.5706,-0.6367,-0.6534,-0.674,-0.7233,-0.6773,-0.6342,-0.6119,-0.6163,-0.5135,-0.2263,-0.0212,0.3017,0.8463,1.0489,1.2982,1.6607,1.5066,1.3203,1.1481,1.1522,1.1226,1.039,0.9797,0.9275,0.8837,0.9319,0.9079,0.8077,0.9039,0.8999,0.8036,0.7995,0.7953,0.7953,0.7953,0.7614,0.7063,0.7063,0.7063,0.7147,0.7704,0.7919,0.8036,0.8521,0.8398,0.7953,0.7953,0.7572,0.7152,0.7429,0.7842,0.8252,0.8352,0.8735,0.9062,0.8874,0.8804,0.8804,0.8804,0.8804,0.8804,0.8804,0.8804,0.8804,0.8804,0.8804,0.8804,0.8804,0.8831,0.9018,0.9552,0.9446,0.9396,0.996,0.9054,0.7906,0.6944,0.6804,0.675,0.6696,0.6696,0.6421,0.5651,0.5597,0.5328,0.4736,0.4625,0.457,0.457,0.4515,0.4519,0.4519,0.4519,0.4519,0.4519,0.4519,0.4519,0.4519,0.4519,0.4522,0.0056,-0.04,-0.0874,-0.1055,-0.1525,-0.2065,-0.2602,-0.314,-0.3788,-0.4567,-0.5109,-0.5542,-0.5706,-0.6199,-0.6249,-0.5237,-0.4973,-0.4481,-0.3267,-0.3643,-0.2914,0.0055,0.0753,0.3873,1.1207,1.2484,1.4144,1.7193,1.6536,1.4808,1.2153,1.175,1.1373,1.0867,1.034,0.9982,0.9865,1.0021,0.9804,0.9159,0.9399,0.9359,0.9159,0.8716,0.8521,0.8521,0.8521,0.8234,0.7704,0.7704,0.7704,0.7704,0.7829,0.816,0.8561,0.8635,0.8643,0.8521,0.8521,0.8152,0.7712,0.7785,0.7759,0.7715,0.7963,0.8281,0.8582,0.8776,0.8804,0.8804,0.8804,0.8804,0.8804,0.8804,0.8804,0.8804,0.8804,0.8804,0.8804,0.8804,0.8991,0.913,0.9256,0.9479,0.9552,0.9389,0.9151,0.8802,0.8406,0.8321,0.8103,0.7509,0.745,0.7182,0.6421,0.6367,0.6312,0.615,0.5601,0.5269,0.5269,0.4787,0.4519,0.4519,0.4519,0.4519,0.4519,0.4519,0.4519,0.4519,0.4519,0.4519,0.0,-0.0284,-0.0577,-0.0586,-0.1153,-0.1804,-0.1815,-0.237,-0.3014,-0.3312,-0.4284,-0.4889,-0.4498,-0.4772,-0.4714,-0.355,-0.3329,-0.283,-0.1335,-0.1498,-0.0773,0.1818,0.3599,0.6643,1.1828,1.3828,1.5706,1.795,1.7449,1.6083,1.3925,1.361,1.2969,1.1718,1.1402,1.0908,1.0215,1.0264,1.004,0.9518,0.9765,0.9883,0.9883,0.9319,0.9079,0.9079,0.9079,0.8797,0.8275,0.8275,0.8275,0.8316,0.8561,0.8837,0.9119,0.9359,0.9319,0.9079,0.9079,0.8716,0.8275,0.8275,0.8185,0.8113,0.8247,0.8406,0.863,0.913,0.9263,0.9263,0.9263,0.951,0.9666,0.9361,0.9061,0.8804,0.8804,0.8804,0.8804,0.8804,0.8931,0.9024,0.9157,0.9372,0.9372,0.9078,0.9031,0.8978,0.8824,0.8804,0.8646,0.8268,0.8209,0.7943,0.7182,0.7128,0.6966,0.6642,0.6258,0.5869,0.5542,0.5164,0.4842,0.4519,0.4519,0.4519,0.4519,0.4519,0.4519,0.4519,0.4519,0.4519,-0.0056,0.0,0.0,0.0,-0.0567,-0.1038,-0.0965,-0.1624,-0.2159,-0.1863,-0.3063,-0.3846,-0.306,-0.295,-0.2728,-0.1781,-0.1614,-0.1112,0.0389,0.0555,0.1438,0.3744,0.6665,0.9467,1.1894,1.4684,1.6956,1.8441,1.7993,1.7103,1.5836,1.5771,1.4829,1.2795,1.2634,1.1987,1.072,1.0591,1.0302,0.9746,1.0196,1.035,1.0281,0.9914,0.9716,0.9637,0.9637,0.9319,0.8837,0.8837,0.8837,0.8878,0.9319,0.9558,0.9677,1.0118,1.0,0.9637,0.9637,0.9279,0.8837,0.8837,0.8756,0.8717,0.8746,0.8743,0.882,0.9509,0.9769,0.9814,0.9814,1.0312,1.061,0.9961,0.9361,0.8956,0.8956,0.8857,0.8804,0.8804,0.8804,0.8884,0.907,0.911,0.903,0.8844,0.8804,0.8804,0.8804,0.8804,0.8804,0.8804,0.8851,0.8592,0.7943,0.7925,0.7663,0.702,0.6858,0.6475,0.5706,0.5542,0.5164,0.4519,0.4519,0.4519,0.4519,0.4519,0.4519,0.4519,0.4519,0.4519,-0.0168,0.0,0.0,0.0,-0.0063,-0.0187,-0.0123,-0.0722,-0.111,-0.0449,-0.1447,-0.2284,-0.1554,-0.1386,-0.0942,0.0443,0.0665,0.1163,0.2654,0.2877,0.3902,0.6691,0.7976,0.9857,1.3137,1.5011,1.6594,1.7907,1.8189,1.7757,1.6528,1.6417,1.5677,1.4119,1.3644,1.3208,1.2738,1.1984,1.1319,1.0781,1.0867,1.066,1.0226,1.0606,1.0572,1.0196,1.0196,0.9883,0.9399,0.9399,0.9399,0.9399,0.9478,0.9804,1.0205,1.0283,1.0244,1.0196,1.0196,0.9843,0.9399,0.9399,0.9079,0.8758,0.899,0.8874,0.8776,0.9151,0.9554,0.9814,0.9814,1.0312,1.061,0.9961,0.971,0.9666,0.9666,0.9211,0.8804,0.8804,0.8804,0.8818,0.8858,0.8864,0.8851,0.8811,0.8804,0.8804,0.8804,0.8804,0.8804,0.8804,0.9031,0.9024,0.8665,0.8869,0.8854,0.8553,0.7883,0.7235,0.6475,0.5814,0.5164,0.4519,0.4519,0.4519,0.4519,0.4519,0.4519,0.4519,0.4519,0.4519,-0.0112,0.0,0.0,0.0,0.0,0.0123,0.0543,0.0356,0.0349,0.1065,0.0723,0.0222,0.0166,0.0111,0.0499,0.1556,0.1725,0.222,0.3707,0.4242,0.5421,0.7893,0.9453,1.1103,1.3032,1.5605,1.7277,1.7539,1.8741,1.8991,1.7881,1.7511,1.6765,1.5551,1.4743,1.4155,1.3794,1.2669,1.174,1.1019,1.1019,1.0704,1.0205,1.0772,1.0733,1.0257,1.0291,1.0166,0.9961,0.9961,0.9961,0.9961,0.9961,1.0079,1.0283,1.0283,1.0283,1.0283,1.0283,1.0166,0.9961,0.9961,0.9597,0.9189,0.9477,0.9415,0.9407,1.0138,1.0351,1.0364,1.0364,1.0568,1.061,0.9961,0.9814,0.9814,0.9814,0.9256,0.8804,0.8804,0.8804,0.8804,0.8804,0.8804,0.8804,0.8804,0.8804,0.8804,0.8804,0.8945,0.8985,0.8824,0.9065,0.9064,0.8831,0.8925,0.8945,0.8818,0.848,0.7777,0.6642,0.6312,0.5605,0.4515,0.4519,0.4519,0.4519,0.4519,0.4519,0.4519,0.4519,0.4519,0.028,0.0399,0.0582,0.0587,0.0602,0.0795,0.1242,0.1418,0.1702,0.2583,0.2781,0.2722,0.2544,0.2213,0.2215,0.3164,0.3437,0.4033,0.5287,0.607,0.7278,0.9475,1.1064,1.2397,1.3423,1.6093,1.7667,1.7469,1.9062,1.9711,1.893,1.8555,1.7918,1.6898,1.5971,1.5225,1.4631,1.3119,1.2154,1.1707,1.145,1.111,1.0747,1.1289,1.1184,1.057,1.0494,1.0467,1.0467,1.0467,1.039,1.0322,1.0428,1.039,1.0273,1.0156,1.0117,1.0117,1.0117,1.0117,1.0137,1.0244,1.004,0.9732,0.9944,0.9952,1.0072,1.0818,1.105,1.1065,1.1065,1.1166,1.1174,1.0466,1.0167,0.9961,0.9614,0.9159,0.8804,0.8804,0.8804,0.8804,0.8804,0.8804,0.8804,0.8804,0.8804,0.8804,0.8804,0.8998,0.9051,0.8831,0.9065,0.9064,0.8831,0.8878,0.8884,0.8811,0.8804,0.8156,0.6642,0.6588,0.5937,0.4515,0.4519,0.4519,0.4519,0.4519,0.4519,0.4519,0.4519,0.4519,0.1062,0.1566,0.2085,0.2093,0.2222,0.2316,0.2184,0.228,0.2767,0.4042,0.4262,0.47,0.6086,0.5198,0.47,0.6145,0.6929,0.76,0.8357,0.9061,1.0277,1.2357,1.2667,1.347,1.5252,1.6226,1.7078,1.7821,1.8796,1.9301,1.9199,1.9278,1.8897,1.794,1.7434,1.6662,1.5533,1.3396,1.2768,1.3631,1.269,1.2212,1.22,1.2755,1.2494,1.1579,1.1151,1.0943,1.0943,1.0943,1.0687,1.0361,1.0791,1.0687,1.0234,0.9787,0.9631,0.9631,0.9631,0.9631,0.9699,1.0146,1.0283,1.0244,1.0264,1.0433,1.057,1.0633,1.1181,1.1765,1.1765,1.2246,1.2618,1.1873,1.1216,1.0415,0.9113,0.8804,0.8804,0.8804,0.8804,0.8804,0.8804,0.8804,0.8804,0.8804,0.8804,0.8804,0.8804,0.8824,0.8824,0.8804,0.9065,0.9064,0.8831,0.9058,0.9044,0.8824,0.8804,0.8156,0.6642,0.6588,0.5937,0.4515,0.4519,0.4519,0.4519,0.4519,0.4519,0.4519,0.4519,0.4519,0.1118,0.1619,0.2193,0.2209,0.2269,0.2432,0.2805,0.3304,0.3996,0.4897,0.5479,0.6234,0.7682,0.6773,0.6126,0.709,0.7452,0.8022,0.9172,1.0311,1.146,1.2667,1.3846,1.488,1.5531,1.709,1.8014,1.7974,1.9102,1.9742,1.9523,1.9355,1.9156,1.8911,1.8412,1.7346,1.5662,1.4588,1.3615,1.278,1.242,1.1965,1.1478,1.2015,1.1928,1.137,1.1485,1.1514,1.1505,1.1505,1.1172,1.0712,1.0891,1.0637,1.0151,0.9753,0.9599,0.9605,0.9603,0.9592,0.967,1.0137,1.0283,1.0283,1.0283,1.0512,1.0851,1.117,1.1315,1.145,1.1751,1.1674,1.1484,1.1216,1.0965,1.0559,0.9666,0.9113,0.8804,0.8804,0.8804,0.8804,0.8804,0.8804,0.8804,0.8804,0.8804,0.8804,0.8804,0.8971,0.9011,0.8831,0.9065,0.9064,0.8831,0.8898,0.8918,0.8811,0.8804,0.8156,0.6642,0.6588,0.5937,0.4515,0.4519,0.4519,0.4519,0.4519,0.4519,0.4519,0.4519,0.4519,0.1005,0.184,0.2579,0.2579,0.2801,0.3182,0.3621,0.4326,0.5053,0.5719,0.6475,0.7337,0.8495,0.8178,0.79,0.8554,0.8854,0.9313,1.025,1.1576,1.2657,1.3338,1.4699,1.5676,1.5864,1.7505,1.8452,1.8131,1.9431,2.0118,1.9814,1.9759,1.9666,1.9511,1.891,1.7807,1.6201,1.535,1.4298,1.3081,1.2597,1.218,1.1857,1.2141,1.2044,1.1655,1.1915,1.1921,1.1778,1.1861,1.1514,1.092,1.1307,1.0889,1.0091,0.9907,0.9713,0.9563,0.9399,0.9372,0.9407,0.9744,0.9951,1.0068,1.0068,1.0459,1.0967,1.126,1.1436,1.1593,1.1861,1.1733,1.1434,1.1166,1.1166,1.0965,1.0261,0.9614,0.9061,0.8857,0.8804,0.8804,0.8804,0.8804,0.8804,0.8804,0.8804,0.8804,0.8804,0.8978,0.9018,0.8831,0.8978,0.9018,0.8824,0.8804,0.8804,0.8804,0.8586,0.7883,0.6642,0.6367,0.566,0.4515,0.4519,0.4519,0.4519,0.4519,0.4519,0.4519,0.4519,0.4519,0.0,0.0,0.0,0.3287,0.3999,0.4646,0.4553,0.5189,0.5997,0.6465,0.7182,0.7937,0.8699,0.9361,1.0064,1.0712,1.1366,1.1814,1.1814,1.2986,1.405,1.4606,1.5231,1.5864,1.6423,1.7463,1.8134,1.8268,1.9645,2.0323,2.0035,2.0514,2.0469,1.9747,1.9004,1.8139,1.7152,1.5647,1.4857,1.4805,1.3412,1.3008,1.3479,1.3266,1.2922,1.2485,1.2485,1.2186,1.173,1.1989,1.1649,1.1012,1.2048,1.1513,1.0132,1.0239,0.9948,0.9455,0.9043,0.8931,0.8942,0.9024,0.9277,0.9619,0.9629,1.0215,1.0879,1.0898,1.1533,1.2151,1.218,1.2559,1.2725,1.1972,1.1814,1.1616,1.0965,1.0312,0.9614,0.9008,0.8857,0.8857,0.8857,0.8857,0.8804,0.8804,0.8804,0.8804,0.8804,0.8804,0.8804,0.8804,0.8804,0.8804,0.8804,0.8804,0.8804,0.8804,0.8156,0.7396,0.6642,0.5923,0.5218,0.4519,0.4519,0.4519,0.4519,0.4519,0.4519,0.4519,0.4519,0.4519,0.0111,0.0,0.0,0.0,0.0,0.0,0.4525,0.5483,0.6439,0.6549,0.7616,0.8685,0.9406,1.0064,1.0762,1.1408,1.1665,1.1972,1.251,1.3684,1.4514,1.4698,1.5611,1.6337,1.6466,1.7105,1.7706,1.811,1.8678,1.9384,2.0314,2.0645,2.0573,2.0075,1.9641,1.9012,1.8197,1.7472,1.6395,1.4929,1.4401,1.3768,1.3051,1.2869,1.2556,1.2201,1.2246,1.2154,1.2021,1.227,1.2045,1.1464,1.1545,1.1048,1.0253,0.9813,0.9547,0.9422,0.9344,0.9316,0.9393,0.9681,0.9695,0.9668,0.995,1.0006,1.0079,1.0732,1.1084,1.1416,1.2015,1.2559,1.2832,1.2657,1.2187,1.1765,1.1566,1.1015,1.0466,1.0261,1.0269,1.0269,1.0269,0.9865,0.951,0.951,0.9106,0.8804,0.8804,0.8804,0.8804,0.8804,0.8804,0.8804,0.8804,0.8804,0.8804,0.8804,0.8593,0.8156,0.745,0.6691,0.5982,0.5218,0.4732,0.4519,0.4519,0.4519,0.4519,0.4519,0.4519,0.4519,0.0,0.0,0.0,0.2674,0.0,0.0,0.4015,0.5109,0.6145,0.6131,0.7331,0.858,0.9256,1.0167,1.0914,1.1316,1.1882,1.2491,1.319,1.4107,1.4789,1.5062,1.592,1.6522,1.6522,1.6993,1.7612,1.8338,1.8695,1.9448,2.0682,2.057,2.0424,2.0327,1.9929,1.9361,1.8644,1.838,1.727,1.5373,1.5026,1.4274,1.3225,1.2881,1.2619,1.2418,1.24,1.2509,1.2749,1.2488,1.2105,1.172,1.2033,1.1509,1.0623,1.0596,1.0255,0.9788,0.9547,0.9454,0.9471,0.9548,0.9567,0.9649,1.0109,1.0074,0.9986,1.0753,1.1063,1.1338,1.2005,1.2559,1.2881,1.2881,1.2559,1.2178,1.1873,1.1516,1.1116,1.0864,1.0559,1.0364,1.0364,0.9814,0.9361,0.9361,0.9061,0.8804,0.8804,0.8804,0.8804,0.8804,0.8804,0.8804,0.8804,0.8804,0.8804,0.8804,0.8533,0.8156,0.7723,0.6966,0.6421,0.5982,0.555,0.5226,0.4897,0.4625,0.4519,0.4519,0.4519,0.4519,0.0,0.0,0.0,0.1615,0.2619,0.0,0.34,0.4553,0.5642,0.5617,0.6876,0.815,0.8798,1.002,1.0914,1.0914,1.2049,1.3104,1.3732,1.4329,1.4926,1.5543,1.6139,1.6522,1.6522,1.6909,1.7639,1.8655,1.9302,2.0047,2.0891,2.0329,2.014,2.0438,1.9955,1.94,1.8828,1.8773,1.7866,1.6086,1.5577,1.4798,1.3783,1.3275,1.304,1.3006,1.2785,1.3041,1.3589,1.2643,1.2149,1.2078,1.2927,1.2347,1.1142,1.1818,1.1389,1.0371,0.9777,0.9528,0.9449,0.9078,0.9221,0.9567,1.0091,1.0255,1.0322,1.0909,1.1338,1.1723,1.2122,1.2528,1.2822,1.2871,1.2822,1.2608,1.203,1.1864,1.1665,1.1124,1.0415,0.9909,0.9909,0.9361,0.8903,0.8903,0.8857,0.8804,0.8804,0.8804,0.8804,0.8804,0.8804,0.8804,0.8804,0.8804,0.8804,0.8804,0.8209,0.783,0.783,0.7128,0.6696,0.6696,0.6642,0.6258,0.5597,0.4948,0.457,0.4519,0.4519,0.4519,-0.4197,-0.194,0.0056,0.0334,0.1892,0.0,0.34,0.4937,0.6367,0.6362,0.8013,0.9451,0.9562,1.0712,1.1616,1.1616,1.2353,1.3104,1.3732,1.4329,1.4926,1.5543,1.6139,1.6522,1.6522,1.6595,1.7105,1.8171,1.9426,2.0059,1.9828,1.9933,2.0016,2.0101,1.9731,1.9525,1.9508,1.9706,1.8945,1.7263,1.6997,1.6018,1.441,1.4095,1.3924,1.3831,1.3359,1.3259,1.3341,1.2754,1.3015,1.367,1.2265,1.1846,1.197,1.1363,1.0993,1.0787,1.0643,1.0434,1.0197,1.0122,0.9787,0.9509,0.9927,1.0162,1.0454,1.1372,1.1651,1.1758,1.2158,1.2328,1.2441,1.2803,1.2452,1.2138,1.2608,1.2236,1.1922,1.2403,1.1484,1.0618,1.0618,1.0064,0.9614,0.9614,0.9159,0.8804,0.8804,0.8804,0.8804,0.8804,0.8804,0.8804,0.8804,0.8804,0.8804,0.8804,0.8646,0.8593,0.8593,0.7883,0.7509,0.7509,0.6912,0.6534,0.6367,0.5655,0.5003,0.4519,0.4519,0.4519,-0.5479,-0.3583,-0.1826,-0.0389,0.0834,0.0,0.0,0.3944,0.5152,0.5905,0.7202,0.8547,0.9607,1.0618,1.1408,1.1765,1.2403,1.32,1.4107,1.4514,1.5017,1.5964,1.6337,1.6522,1.6522,1.6522,1.6837,1.7626,1.9082,1.9825,1.9564,1.9793,1.9924,1.9912,1.9461,1.9232,1.9295,1.9247,1.8595,1.7405,1.698,1.6114,1.4844,1.4541,1.4378,1.4327,1.389,1.3866,1.4054,1.3275,1.3648,1.4553,1.3056,1.2372,1.2209,1.1911,1.1513,1.1094,1.0944,1.0801,1.0667,1.0667,1.0507,1.0395,1.0849,1.1195,1.1411,1.141,1.1548,1.1746,1.1897,1.2064,1.2344,1.2773,1.2608,1.2344,1.2344,1.208,1.1823,1.1841,1.1275,1.0914,1.1266,1.0466,0.9814,0.9814,0.9211,0.8804,0.8804,0.8804,0.8804,0.8804,0.8804,0.8804,0.8804,0.8804,0.8804,0.8804,0.8804,0.8804,0.8804,0.8427,0.8262,0.8262,0.7883,0.7509,0.7128,0.6794,0.6032,0.5003,0.5003,0.4842,-0.6738,-0.5433,-0.4191,-0.1495,-0.0499,0.0111,0.0,0.0,0.0,0.5015,0.6112,0.7368,0.9228,1.0254,1.1015,1.1715,1.2295,1.318,1.4514,1.4698,1.5164,1.638,1.6595,1.6595,1.6522,1.6696,1.6965,1.7284,1.863,1.945,1.9462,1.9549,1.9693,1.9807,1.9123,1.881,1.8894,1.8498,1.7918,1.7164,1.6673,1.5976,1.5093,1.4801,1.4671,1.4669,1.433,1.4425,1.474,1.3841,1.4023,1.4768,1.3792,1.3004,1.25,1.2634,1.2164,1.1431,1.1233,1.1071,1.0991,1.0991,1.1135,1.1429,1.1871,1.2279,1.2424,1.1645,1.1627,1.185,1.1901,1.2007,1.2236,1.2807,1.2781,1.2493,1.1999,1.1862,1.1706,1.1163,1.1123,1.1275,1.1566,1.072,1.0012,1.0012,0.9413,0.9008,0.9008,0.8857,0.8804,0.8804,0.8804,0.8804,0.8804,0.8804,0.8804,0.8804,0.8804,0.8804,0.8804,0.8804,0.8804,0.8804,0.8804,0.848,0.7937,0.7937,0.7176,0.5706,0.5542,0.5218,-0.8892,-0.7306,-0.5905,-0.43,-0.2426,-0.0772,0.0056,0.0,0.3539,0.4368,0.0,0.7781,0.8672,0.0,0.0,1.1715,1.1864,1.2589,1.4422,1.4698,1.5164,1.638,1.6909,1.7034,1.6552,1.7385,1.7807,1.7352,1.8344,1.8953,1.8896,1.8682,1.9002,1.9869,1.8838,1.8466,1.8888,1.8497,1.7869,1.7017,1.6952,1.6283,1.5096,1.4999,1.4985,1.5023,1.4694,1.4541,1.4526,1.4165,1.4019,1.3951,1.3061,1.3019,1.3372,1.2832,1.2399,1.2086,1.2066,1.171,1.1265,1.1265,1.1503,1.1853,1.1957,1.2429,1.2948,1.2954,1.2686,1.2492,1.2831,1.2338,1.1975,1.2782,1.2333,1.1816,1.2115,1.2155,1.2155,1.2062,1.2368,1.2304,1.1124,1.0762,1.0669,1.0669,1.0115,0.9666,0.9666,0.9159,0.8804,0.8804,0.8804,0.8804,0.8804,0.8804,0.8804,0.8804,0.8804,0.8804,0.8804,0.8804,0.8804,0.8804,0.8804,0.8752,0.8699,0.8699,0.7937,0.648,0.5814,0.5487,-1.0897,-0.9424,-0.7915,-0.6065,-0.4915,-0.371,-0.1707,-0.055,0.0658,0.2695,0.0,0.0,0.0,0.0,0.0,0.0,1.1548,1.2346,1.3946,1.4468,1.5164,1.638,1.7015,1.7262,1.7055,1.7448,1.7478,1.6876,1.7866,1.8341,1.7933,1.8124,1.8477,1.9015,1.8238,1.7931,1.8251,1.7584,1.6884,1.613,1.6181,1.5696,1.4823,1.4977,1.5079,1.5096,1.4942,1.4782,1.459,1.4453,1.4234,1.398,1.3601,1.3447,1.3394,1.2985,1.2665,1.2416,1.2416,1.2174,1.1813,1.1812,1.2202,1.2659,1.2545,1.2993,1.3409,1.2926,1.265,1.2543,1.2674,1.2413,1.2272,1.2861,1.2487,1.207,1.222,1.2213,1.2148,1.1895,1.2402,1.2483,1.1226,1.0872,1.0813,1.0813,0.9917,0.9211,0.9211,0.8956,0.8804,0.8804,0.8804,0.8804,0.8804,0.8804,0.8804,0.8804,0.8804,0.8804,0.8804,0.8804,0.8804,0.8804,0.8804,0.8804,0.8804,0.8374,0.783,0.7235,0.647,0.571,-1.2387,-1.1271,-1.0058,-0.7909,-0.7067,-0.6202,-0.3875,-0.3068,-0.2082,0.0493,0.1586,0.0,0.0,0.0,0.8097,0.0,0.0,1.1531,1.3273,1.3994,1.4821,1.612,1.6798,1.727,1.7552,1.7498,1.7226,1.6761,1.7506,1.7787,1.7338,1.7666,1.804,1.8303,1.7699,1.7421,1.7525,1.6847,1.6192,1.5578,1.5557,1.5262,1.4762,1.4882,1.4957,1.4965,1.5058,1.499,1.479,1.4754,1.456,1.4309,1.4258,1.3971,1.3567,1.3261,1.2964,1.2722,1.2722,1.2491,1.2199,1.2115,1.2675,1.3279,1.2823,1.3435,1.4011,1.2905,1.2738,1.2828,1.2652,1.2518,1.2528,1.2934,1.2582,1.2171,1.2298,1.2306,1.2152,1.1854,1.2298,1.2528,1.1808,1.134,1.1015,1.0813,0.9814,0.9061,0.9061,0.891,0.8804,0.8804,0.8804,0.8804,0.8804,0.8804,0.8804,0.8804,0.8804,0.8804,0.8804,0.8804,0.8804,0.8804,0.8804,0.8804,0.8804,0.8049,0.7616,0.7402,0.6637,0.5769,-1.328,-1.2715,-1.2211,-1.0132,-0.8553,-0.7331,-0.6531,-0.53,-0.3893,-0.2358,-0.1471,-0.0054,0.2843,0.405,0.5453,0.0,0.0,0.0,0.0,1.3165,1.4003,1.5457,1.6163,1.6947,1.7974,1.7665,1.7346,1.7282,1.7388,1.7377,1.7297,1.7312,1.7572,1.8104,1.7446,1.7032,1.6843,1.6596,1.6256,1.5778,1.5529,1.5332,1.517,1.4721,1.4558,1.4635,1.4956,1.5063,1.4999,1.5054,1.5001,1.4855,1.4663,1.4487,1.4301,1.3777,1.3345,1.2995,1.2995,1.2626,1.2164,1.1906,1.2709,1.3589,1.2532,1.3556,1.4762,1.3307,1.3336,1.3735,1.3279,1.2827,1.2591,1.3012,1.2456,1.1905,1.2296,1.2407,1.2352,1.2299,1.2287,1.2423,1.2753,1.2236,1.1566,1.0914,1.021,0.9762,0.9762,0.9211,0.8804,0.8804,0.8804,0.8804,0.8804,0.8804,0.8804,0.8804,0.8804,0.8804,0.8804,0.8804,0.8804,0.8804,0.8804,0.8804,0.8804,0.8049,0.7343,0.6642,0.5869,0.5487,0.0,0.0,-1.3679,-1.2143,-1.137,-1.0639,-0.8961,-0.7933,-0.6818,-0.5338,-0.3704,-0.2128,-0.0601,0.0,0.0,0.0,0.0,0.0,0.0,1.2067,1.3511,1.4835,1.5784,1.6827,1.8061,1.7689,1.739,1.7352,1.7397,1.7213,1.6778,1.6752,1.6811,1.697,1.6731,1.6502,1.6396,1.6146,1.5875,1.5533,1.4955,1.4622,1.4538,1.4126,1.4083,1.4301,1.4612,1.4788,1.481,1.5025,1.5077,1.5036,1.4967,1.476,1.4485,1.4089,1.3701,1.3362,1.3104,1.2887,1.2662,1.221,1.2962,1.3894,1.3092,1.3912,1.4925,1.4159,1.4115,1.4246,1.4084,1.394,1.3782,1.3651,1.3132,1.2626,1.2492,1.2419,1.2212,1.1551,1.1933,1.2009,1.1069,1.1195,1.142,1.1481,1.0914,1.0312,0.9865,0.9614,0.9309,0.8857,0.8804,0.8804,0.8804,0.8804,0.8804,0.8804,0.8804,0.8804,0.8804,0.8804,0.8804,0.8804,0.8804,0.8804,0.8804,0.8049,0.7557,0.7289,0.6583,0.5982,-1.6046,-1.5443,0.0,-1.3975,-1.327,0.0,-1.1089,-1.0105,-0.9127,-0.7868,-0.6362,-0.4854,0.0,0.0,0.0,0.0,0.0,0.0,0.0,1.137,1.3067,1.4121,1.5126,1.6033,1.6892,1.6783,1.6614,1.6433,1.659,1.6399,1.5913,1.5876,1.582,1.5784,1.5758,1.5724,1.5689,1.5468,1.5355,1.5317,1.4516,1.4109,1.3986,1.3662,1.3507,1.3514,1.4059,1.4362,1.451,1.4794,1.4983,1.5107,1.5097,1.4973,1.4736,1.436,1.398,1.3661,1.3311,1.3158,1.3034,1.2594,1.3147,1.3868,1.3202,1.3994,1.4993,1.4341,1.4431,1.469,1.4533,1.4501,1.4438,1.4181,1.3848,1.3504,1.3067,1.295,1.2666,1.1875,1.2015,1.2019,1.1142,1.1288,1.1469,1.1279,1.0981,1.0669,1.021,1.0167,1.0012,0.9562,0.951,0.9413,0.9159,0.8956,0.8804,0.8804,0.8804,0.8804,0.8804,0.8804,0.8804,0.8804,0.8804,0.8804,0.8804,0.8049,0.7723,0.767,0.7235,0.6745]},{"header":{"parameterUnit":"m.s-1","parameterCategory":1,"la1":30.6,"la2":29.2853,"lo1":-89.7004,"lo2":-87.6739,"dy":0.0162,"dx":0.0183,"nx":112,"ny":82,"refTime":"2023-05-27T12:00:00:Z","depth":0,"parameterNumber":3,"parameterNumberName":"V-component_of_WINDS"},"data":[0.0,0.0,0.0,0.0,0.0,0.0,0.0,0.0,0.0,0.0,0.0,0.0,0.0,0.0,0.0,0.0,0.0,0.0,0.0,0.0,0.0,0.0,0.0,0.0,0.0,0.0,0.0,0.0,0.0,0.0,0.0,0.0,0.0,0.0,0.0,0.0,0.0,0.0,0.0,0.0,0.0,0.0,0.0,0.0,0.0,0.0,0.0,0.0,0.0,0.0,0.0,0.0,0.0,0.0,0.0,0.0,0.0,0.0,0.0,0.0,0.0,0.0,0.0,0.0,0.0,0.0,0.0,0.0,0.0,0.0,0.0,0.0,0.0,0.0,0.0,0.0,0.0,0.0,0.0,0.0,0.0,0.0,0.0,0.0,0.0,0.0,0.0,0.0,0.0,0.0,-2.5203,-2.5197,-2.6304,-2.7569,-2.8875,-3.0611,-3.095,-2.9404,0.0,0.0,0.0,0.0,0.0,0.0,0.0,0.0,0.0,0.0,0.0,0.0,0.0,0.0,0.0,0.0,0.0,0.0,0.0,0.0,0.0,0.0,0.0,0.0,0.0,0.0,0.0,0.0,0.0,0.0,0.0,0.0,0.0,0.0,0.0,0.0,0.0,0.0,0.0,0.0,0.0,0.0,0.0,0.0,0.0,0.0,0.0,0.0,0.0,0.0,0.0,0.0,0.0,0.0,0.0,0.0,0.0,0.0,0.0,0.0,0.0,0.0,0.0,0.0,0.0,0.0,0.0,0.0,0.0,0.0,0.0,0.0,0.0,0.0,0.0,0.0,0.0,0.0,0.0,0.0,0.0,0.0,0.0,0.0,0.0,0.0,0.0,0.0,0.0,0.0,0.0,0.0,0.0,0.0,0.0,0.0,0.0,0.0,0.0,0.0,0.0,0.0,0.0,0.0,-2.4838,-2.4727,-2.5688,-2.6938,-2.838,-2.9593,-2.9888,-2.896,0.0,0.0,0.0,0.0,0.0,0.0,0.0,0.0,0.0,0.0,0.0,0.0,0.0,0.0,0.0,0.0,0.0,0.0,0.0,0.0,0.0,0.0,0.0,0.0,0.0,0.0,0.0,0.0,0.0,0.0,0.0,0.0,0.0,0.0,0.0,0.0,0.0,0.0,0.0,0.0,0.0,0.0,0.0,0.0,0.0,0.0,0.0,0.0,0.0,0.0,0.0,0.0,0.0,0.0,0.0,0.0,0.0,0.0,0.0,0.0,0.0,0.0,0.0,0.0,0.0,0.0,0.0,0.0,0.0,0.0,0.0,0.0,0.0,0.0,0.0,0.0,0.0,0.0,0.0,0.0,0.0,0.0,0.0,0.0,0.0,0.0,0.0,0.0,0.0,0.0,0.0,0.0,0.0,0.0,0.0,0.0,0.0,0.0,0.0,0.0,0.0,0.0,0.0,-2.4495,-2.4396,-2.4578,-2.5484,-2.6784,-2.8477,-2.9963,-3.0426,-2.9503,-3.0025,0.0,0.0,0.0,0.0,0.0,0.0,0.0,0.0,0.0,0.0,0.0,0.0,0.0,0.0,0.0,0.0,0.0,0.0,0.0,0.0,0.0,0.0,0.0,0.0,0.0,0.0,0.0,0.0,0.0,0.0,0.0,0.0,0.0,0.0,0.0,0.0,0.0,0.0,0.0,0.0,0.0,0.0,0.0,0.0,0.0,0.0,0.0,0.0,0.0,0.0,0.0,0.0,0.0,0.0,0.0,0.0,0.0,0.0,0.0,0.0,0.0,0.0,0.0,0.0,0.0,0.0,0.0,0.0,0.0,0.0,0.0,0.0,0.0,0.0,0.0,0.0,0.0,0.0,0.0,0.0,0.0,0.0,0.0,0.0,0.0,0.0,0.0,0.0,0.0,0.0,0.0,0.0,0.0,0.0,0.0,0.0,0.0,0.0,0.0,0.0,0.0,0.0,-2.4135,-2.4189,-2.4518,-2.5672,-2.7102,-2.8845,-3.0498,-3.1036,-3.0177,-3.0117,0.0,0.0,0.0,0.0,0.0,0.0,0.0,0.0,0.0,0.0,0.0,0.0,0.0,0.0,0.0,0.0,0.0,0.0,0.0,0.0,0.0,0.0,0.0,0.0,0.0,0.0,0.0,0.0,0.0,0.0,0.0,0.0,0.0,0.0,0.0,0.0,0.0,0.0,0.0,0.0,0.0,0.0,0.0,0.0,0.0,0.0,0.0,0.0,0.0,0.0,0.0,0.0,0.0,0.0,0.0,0.0,0.0,0.0,0.0,0.0,0.0,0.0,0.0,0.0,0.0,0.0,0.0,0.0,0.0,0.0,0.0,0.0,0.0,0.0,0.0,0.0,0.0,0.0,0.0,0.0,0.0,0.0,0.0,0.0,0.0,0.0,0.0,0.0,0.0,0.0,0.0,0.0,0.0,0.0,0.0,0.0,0.0,0.0,0.0,0.0,0.0,0.0,-2.4378,-2.4495,-2.4339,-2.633,-2.819,-2.9439,-3.0556,-3.0996,-3.0506,-3.0234,0.0,0.0,0.0,0.0,0.0,0.0,0.0,0.0,0.0,0.0,0.0,0.0,0.0,0.0,0.0,0.0,0.0,0.0,0.0,0.0,0.0,0.0,0.0,0.0,0.0,0.0,0.0,0.0,0.0,0.0,0.0,0.0,0.0,0.0,0.0,0.0,0.0,0.0,0.0,0.0,0.0,0.0,0.0,0.0,0.0,0.0,0.0,0.0,0.0,0.0,0.0,0.0,0.0,0.0,0.0,0.0,0.0,0.0,0.0,0.0,0.0,0.0,0.0,0.0,0.0,0.0,0.0,0.0,0.0,0.0,0.0,0.0,0.0,0.0,0.0,0.0,0.0,0.0,0.0,0.0,0.0,0.0,0.0,0.0,0.0,0.0,0.0,0.0,0.0,0.0,0.0,0.0,0.0,0.0,0.0,0.0,0.0,0.0,0.0,0.0,0.0,0.0,-2.4271,-2.4593,-2.567,-2.6997,-2.8466,-3.0135,-3.1355,-3.1689,-3.0919,0.0,0.0,0.0,0.0,0.0,0.0,0.0,0.0,0.0,0.0,0.0,0.0,0.0,0.0,0.0,0.0,0.0,0.0,0.0,0.0,0.0,0.0,0.0,0.0,0.0,0.0,0.0,0.0,0.0,0.0,0.0,0.0,0.0,0.0,0.0,0.0,0.0,0.0,0.0,0.0,0.0,0.0,0.0,0.0,0.0,0.0,0.0,0.0,0.0,0.0,0.0,0.0,0.0,0.0,0.0,0.0,0.0,0.0,0.0,0.0,0.0,0.0,0.0,0.0,0.0,0.0,0.0,0.0,0.0,0.0,0.0,0.0,0.0,0.0,0.0,0.0,0.0,0.0,0.0,0.0,0.0,0.0,0.0,0.0,0.0,0.0,0.0,0.0,0.0,0.0,0.0,0.0,0.0,0.0,0.0,0.0,0.0,0.0,0.0,0.0,0.0,0.0,-2.4456,-2.4285,-2.4672,-2.595,-2.7209,-2.8571,-3.0231,-3.1288,-3.1639,-3.1046,0.0,0.0,0.0,0.0,0.0,0.0,0.0,0.0,0.0,0.0,0.0,0.0,0.0,0.0,0.0,0.0,0.0,0.0,0.0,0.0,0.0,0.0,0.0,0.0,0.0,0.0,0.0,0.0,0.0,0.0,0.0,0.0,0.0,0.0,0.0,0.0,0.0,0.0,0.0,0.0,0.0,0.0,0.0,0.0,0.0,0.0,0.0,0.0,0.0,0.0,0.0,0.0,0.0,0.0,0.0,0.0,0.0,0.0,0.0,0.0,0.0,0.0,0.0,0.0,0.0,0.0,0.0,0.0,0.0,0.0,0.0,0.0,0.0,0.0,0.0,0.0,0.0,0.0,0.0,0.0,0.0,0.0,0.0,0.0,0.0,0.0,0.0,0.0,0.0,0.0,0.0,0.0,0.0,0.0,0.0,0.0,0.0,0.0,0.0,0.0,0.0,0.0,-2.4248,-2.4564,-2.4788,-2.4804,-2.6854,-2.8598,-2.9539,-3.0214,-3.0657,0.0,0.0,0.0,0.0,0.0,0.0,0.0,0.0,0.0,0.0,0.0,0.0,0.0,0.0,0.0,0.0,0.0,0.0,0.0,0.0,0.0,0.0,0.0,0.0,0.0,0.0,0.0,0.0,0.0,0.0,0.0,0.0,0.0,0.0,0.0,0.0,0.0,0.0,0.0,0.0,0.0,0.0,0.0,0.0,0.0,0.0,0.0,0.0,0.0,0.0,0.0,0.0,0.0,0.0,0.0,0.0,0.0,0.0,0.0,0.0,0.0,0.0,0.0,0.0,0.0,0.0,0.0,0.0,0.0,0.0,0.0,0.0,0.0,0.0,0.0,0.0,0.0,0.0,0.0,0.0,0.0,0.0,0.0,0.0,0.0,0.0,0.0,0.0,0.0,0.0,0.0,0.0,0.0,0.0,0.0,0.0,0.0,0.0,0.0,0.0,0.0,0.0,0.0,-2.4869,-2.4556,-2.4712,-2.575,-2.7273,-2.8511,-2.9336,-3.0649,-3.1132,-3.0348,0.0,0.0,0.0,0.0,0.0,0.0,0.0,0.0,0.0,0.0,0.0,0.0,0.0,0.0,0.0,0.0,0.0,0.0,0.0,0.0,0.0,0.0,0.0,0.0,0.0,0.0,0.0,0.0,0.0,0.0,0.0,0.0,0.0,0.0,0.0,0.0,0.0,0.0,0.0,0.0,0.0,0.0,0.0,0.0,0.0,0.0,0.0,0.0,0.0,0.0,0.0,0.0,0.0,0.0,0.0,0.0,0.0,0.0,0.0,0.0,0.0,0.0,0.0,0.0,0.0,0.0,0.0,0.0,0.0,0.0,0.0,0.0,0.0,0.0,0.0,0.0,0.0,0.0,0.0,0.0,0.0,0.0,0.0,0.0,0.0,0.0,0.0,0.0,0.0,0.0,0.0,0.0,0.0,0.0,0.0,0.0,0.0,0.0,0.0,0.0,0.0,0.0,-2.5159,-2.4659,-2.4571,-2.5448,-2.6727,-2.7883,-2.8784,-3.0039,-3.0379,-2.947,0.0,0.0,0.0,0.0,0.0,0.0,0.0,0.0,0.0,0.0,0.0,0.0,0.0,0.0,0.0,0.0,0.0,0.0,0.0,0.0,0.0,0.0,0.0,0.0,0.0,0.0,0.0,0.0,0.0,0.0,0.0,0.0,0.0,0.0,0.0,0.0,0.0,0.0,0.0,0.0,0.0,0.0,0.0,0.0,0.0,0.0,0.0,0.0,0.0,0.0,0.0,0.0,0.0,0.0,0.0,0.0,0.0,0.0,0.0,0.0,0.0,0.0,0.0,0.0,0.0,0.0,0.0,0.0,0.0,0.0,0.0,0.0,0.0,0.0,0.0,0.0,0.0,0.0,0.0,0.0,0.0,0.0,0.0,0.0,0.0,0.0,0.0,0.0,0.0,0.0,0.0,0.0,0.0,0.0,0.0,0.0,0.0,0.0,0.0,0.0,0.0,0.0,-2.5221,-2.4766,-2.4385,-2.4323,-2.5613,-2.6941,-2.8024,-2.8777,-2.8987,-2.8539,0.0,0.0,0.0,0.0,0.0,0.0,0.0,0.0,0.0,0.0,0.0,0.0,0.0,0.0,0.0,0.0,0.0,0.0,0.0,0.0,0.0,0.0,0.0,0.0,0.0,0.0,0.0,0.0,0.0,0.0,0.0,0.0,0.0,0.0,0.0,0.0,0.0,0.0,0.0,0.0,0.0,0.0,0.0,0.0,0.0,0.0,0.0,0.0,0.0,0.0,0.0,0.0,0.0,0.0,0.0,0.0,0.0,0.0,0.0,0.0,-2.8133,-2.8176,0.0,0.0,0.0,0.0,0.0,0.0,0.0,0.0,0.0,0.0,0.0,0.0,0.0,0.0,0.0,0.0,0.0,0.0,0.0,0.0,0.0,0.0,0.0,0.0,0.0,0.0,0.0,0.0,0.0,0.0,0.0,0.0,0.0,0.0,0.0,0.0,0.0,0.0,0.0,0.0,-2.53,-2.49,-2.4369,-2.3812,-2.5413,-2.6769,-2.7526,-2.8559,-2.9242,-2.9281,-2.85,0.0,0.0,0.0,0.0,0.0,0.0,0.0,0.0,0.0,0.0,0.0,0.0,0.0,0.0,0.0,0.0,0.0,0.0,0.0,0.0,0.0,0.0,0.0,0.0,0.0,0.0,0.0,0.0,0.0,0.0,0.0,0.0,0.0,0.0,0.0,0.0,0.0,0.0,0.0,0.0,0.0,0.0,0.0,0.0,0.0,0.0,0.0,0.0,0.0,0.0,0.0,0.0,0.0,0.0,0.0,0.0,0.0,0.0,0.0,-2.8249,-2.8301,0.0,0.0,0.0,0.0,0.0,0.0,0.0,0.0,0.0,0.0,0.0,0.0,0.0,0.0,0.0,0.0,0.0,0.0,0.0,0.0,0.0,0.0,0.0,0.0,0.0,0.0,0.0,0.0,0.0,0.0,0.0,0.0,0.0,0.0,0.0,0.0,0.0,0.0,0.0,0.0,-2.5849,-2.5394,-2.4837,-2.4163,-2.5288,-2.6267,-2.6855,-2.7753,-2.8223,-2.8152,-2.8285,0.0,0.0,0.0,0.0,0.0,0.0,0.0,0.0,0.0,0.0,0.0,0.0,0.0,0.0,0.0,0.0,0.0,0.0,0.0,0.0,0.0,0.0,0.0,0.0,0.0,0.0,0.0,0.0,0.0,0.0,0.0,0.0,0.0,0.0,0.0,0.0,0.0,0.0,0.0,0.0,0.0,0.0,0.0,0.0,0.0,0.0,0.0,0.0,0.0,0.0,0.0,0.0,0.0,-2.8498,-2.9265,-3.0036,-3.0193,-3.004,-2.9628,-2.9074,-2.9029,-2.9373,-2.9392,0.0,0.0,0.0,0.0,0.0,0.0,0.0,0.0,0.0,0.0,0.0,0.0,0.0,0.0,0.0,0.0,0.0,0.0,0.0,0.0,0.0,0.0,-3.0214,-3.1166,-3.115,-3.0835,-3.0576,0.0,0.0,0.0,0.0,0.0,0.0,0.0,0.0,0.0,0.0,0.0,-2.6427,-2.5939,-2.536,-2.4657,-2.5121,-2.568,-2.6246,-2.6782,-2.7111,-2.7079,-2.7987,-2.8217,0.0,0.0,0.0,0.0,0.0,0.0,0.0,0.0,0.0,0.0,0.0,0.0,0.0,0.0,0.0,0.0,0.0,0.0,0.0,0.0,0.0,0.0,0.0,0.0,0.0,0.0,0.0,0.0,0.0,0.0,0.0,0.0,-2.9236,-2.9204,0.0,0.0,0.0,0.0,0.0,0.0,0.0,0.0,0.0,0.0,0.0,0.0,0.0,-2.721,-2.7477,-2.767,-2.8303,-2.9305,-2.9735,-2.9879,-2.9697,-3.0202,-3.0719,-3.1207,-3.1712,0.0,-3.0359,-3.0861,0.0,0.0,0.0,0.0,0.0,0.0,0.0,0.0,0.0,0.0,0.0,0.0,0.0,0.0,0.0,0.0,0.0,0.0,0.0,0.0,0.0,0.0,-3.197,-3.2134,-3.2128,-3.2063,-3.2107,-3.1359,-3.0559,-3.0199,-2.9206,-2.876,0.0,0.0,0.0,0.0,0.0,0.0,-2.6549,-2.6006,-2.536,-2.4657,-2.4657,-2.5177,-2.6214,-2.635,-2.703,-2.8617,-2.7291,-2.7779,-3.0672,-2.9286,0.0,0.0,0.0,0.0,0.0,0.0,0.0,0.0,0.0,0.0,0.0,0.0,0.0,0.0,0.0,0.0,0.0,0.0,0.0,0.0,0.0,0.0,0.0,0.0,0.0,0.0,0.0,0.0,0.0,-2.7989,-2.784,-2.8169,-2.6289,-2.4964,0.0,0.0,0.0,0.0,0.0,0.0,0.0,0.0,0.0,-2.3307,-2.5725,-2.7885,-2.9783,-2.7923,-2.73,-2.7879,-2.9275,-2.991,-2.9754,-3.104,-3.2003,-3.2677,-3.3335,-3.3081,-3.2148,-3.2035,-3.1945,-3.1929,0.0,0.0,0.0,0.0,-3.3076,-3.3438,-3.3197,-3.3571,-3.418,-3.3981,0.0,0.0,0.0,0.0,0.0,0.0,0.0,-3.3429,0.0,0.0,-3.3017,-3.3423,-3.3525,-3.354,-3.3644,-3.2923,-3.1951,-3.1013,-3.0986,-3.1193,-3.134,-2.9595,0.0,0.0,0.0,-2.7575,-2.7186,-2.6886,-2.6447,-2.5667,-2.5255,-2.5315,-2.6081,-2.646,-2.7158,-2.8262,-2.8133,-2.8833,-3.0641,-3.0532,-3.1119,0.0,0.0,0.0,0.0,0.0,0.0,0.0,0.0,0.0,0.0,0.0,0.0,0.0,0.0,0.0,0.0,0.0,0.0,0.0,0.0,0.0,0.0,0.0,0.0,0.0,0.0,0.0,0.0,-2.6221,-2.6347,-2.7486,-2.5243,-2.3317,0.0,0.0,0.0,0.0,0.0,0.0,-2.0628,-2.275,-2.3974,-2.3943,-2.5588,-2.7709,-3.0173,-2.7734,-2.6633,-2.6916,-2.8582,-2.9505,-2.9837,-3.1626,-3.2791,-3.3443,-3.42,-3.4203,-3.3711,-3.298,-3.2456,-3.2129,-3.2158,-3.2248,-3.2467,-3.2944,-3.338,-3.3728,-3.4083,-3.4827,-3.5565,-3.536,-3.5675,-3.5924,-3.4927,0.0,0.0,0.0,0.0,-3.4223,-3.4232,-3.3811,-3.3631,-3.4353,-3.4387,-3.4213,-3.4137,-3.3779,-3.3144,0.0,-3.2241,-3.2609,-3.2229,-3.0701,0.0,-3.0418,-2.9408,-2.8412,-2.7904,-2.753,-2.7048,-2.644,-2.5777,-2.5536,-2.5974,-2.6508,-2.7171,-2.806,-2.8698,-2.9588,-3.0733,-3.1255,-3.1699,-3.2008,0.0,0.0,0.0,0.0,0.0,0.0,0.0,0.0,0.0,0.0,0.0,0.0,0.0,0.0,0.0,0.0,0.0,0.0,0.0,0.0,0.0,0.0,0.0,0.0,0.0,0.0,0.0,0.0,0.0,-2.7266,-2.5212,0.0,0.0,0.0,0.0,-2.2955,-2.3018,-2.2907,-2.2935,-2.5126,-2.6309,-2.6357,-2.6453,-2.6609,-2.6726,-2.6609,-2.7008,-2.8027,-2.8157,-2.8748,-2.9859,-3.1475,-3.2537,-3.3157,-3.4125,-3.4457,-3.4367,-3.3741,-3.2637,-3.1442,-3.1471,-3.1865,-3.2422,-3.2422,-3.3273,-3.4336,-3.3694,-3.4404,-3.5622,-3.5571,-3.5588,-3.5514,-3.4762,-3.4507,0.0,0.0,-3.4002,-3.4565,-3.452,-3.3991,-3.37,-3.4409,-3.4063,-3.3371,-3.2845,-3.3166,-3.3393,0.0,-3.1451,-3.0826,-3.1373,0.0,-2.9826,-3.0392,-2.9438,-2.8592,-2.8547,-2.7342,-2.6454,-2.6392,-2.5699,-2.5406,-2.5961,-2.603,-2.6892,-2.8822,-2.8264,-2.9231,-3.2272,-3.103,-3.1368,-3.3642,-3.2236,0.0,0.0,0.0,0.0,0.0,0.0,0.0,0.0,0.0,0.0,0.0,0.0,0.0,0.0,0.0,0.0,0.0,0.0,0.0,0.0,0.0,0.0,0.0,0.0,0.0,0.0,0.0,0.0,-2.4611,-2.3873,0.0,-2.204,-1.9948,-1.9889,-2.2879,-2.2104,-2.1508,-2.1472,-2.2273,-2.3839,-2.6441,-2.6496,-2.6508,-2.6533,-2.6515,-2.6716,-2.7105,-2.7591,-2.8065,-2.8504,-3.0573,-3.17,-3.1945,-3.3247,-3.3604,-3.32,-3.2961,-3.2541,-3.2179,-3.2607,-3.2953,-3.3307,-3.4147,-3.4757,-3.5182,-3.4928,-3.5504,-3.6366,-3.6366,-3.6028,-3.5571,-3.5301,-3.5216,-3.5165,-3.4912,-3.5004,-3.5249,-3.5239,-3.502,-3.4935,-3.5186,-3.4684,-3.3881,-3.2812,-3.2408,-3.2187,-3.1986,-3.1877,-3.1911,-3.2123,-3.1075,-3.0437,-3.1102,-3.0443,-2.9638,-2.921,-2.8685,-2.8144,-2.7531,-2.686,-2.6434,-2.6452,-2.6436,-2.7195,-2.8873,-2.8972,-3.0022,-3.2413,-3.2242,-3.2412,-3.301,-3.2467,-3.2353,0.0,0.0,0.0,0.0,0.0,0.0,0.0,0.0,0.0,0.0,0.0,0.0,0.0,0.0,0.0,0.0,0.0,0.0,0.0,0.0,0.0,0.0,0.0,0.0,0.0,-2.2855,-2.2533,-2.3065,-2.3085,-2.2623,-2.1469,-1.9885,-1.9841,-2.2076,-2.1258,-2.0605,-2.0573,-2.0575,-2.239,-2.6418,-2.6878,-2.6868,-2.6533,-2.671,-2.671,-2.6533,-2.704,-2.7509,-2.8026,-2.9951,-3.1025,-3.157,-3.2655,-3.2916,-3.2497,-3.2551,-3.2503,-3.2573,-3.3052,-3.3531,-3.4037,-3.4941,-3.5407,-3.5656,-3.5926,-3.618,-3.64,-3.64,-3.6045,-3.5571,-3.5318,-3.5419,-3.5622,-3.5622,-3.5424,-3.5299,-3.5515,-3.5407,-3.5253,-3.5253,-3.47,-3.386,-3.2789,-3.2174,-3.1771,-3.1573,-3.1939,-3.2431,-3.2848,-3.2183,-3.1713,-3.2207,-3.1679,-3.0974,-3.0284,-2.989,-2.9394,-2.8549,-2.7793,-2.725,-2.708,-2.7232,-2.7861,-2.9143,-2.9832,-3.0961,-3.266,-3.3314,-3.3524,-3.3413,-3.3146,-3.2871,-3.2614,0.0,0.0,0.0,0.0,0.0,0.0,0.0,0.0,0.0,0.0,0.0,0.0,0.0,0.0,0.0,0.0,0.0,0.0,0.0,0.0,0.0,0.0,0.0,-2.3462,-2.1422,-2.0704,-2.2834,-2.2994,-2.1667,-1.83,-1.9588,-2.0583,-2.0612,-2.0619,-2.0571,-2.0615,-2.0629,-2.2424,-2.631,-2.7458,-2.7595,-2.6559,-2.7017,-2.7005,-2.6533,-2.6533,-2.7173,-2.8528,-2.9531,-3.0712,-3.2054,-3.2374,-3.2482,-3.2496,-3.2548,-3.2586,-3.2641,-3.2641,-3.3443,-3.4576,-3.4624,-3.5052,-3.5723,-3.6451,-3.6214,-3.5588,-3.5554,-3.5571,-3.5453,-3.4692,-3.5013,-3.5605,-3.5554,-3.5094,-3.475,-3.5357,-3.5031,-3.4558,-3.4558,-3.3983,-3.3268,-3.2593,-3.246,-3.2253,-3.1582,-3.1546,-3.2081,-3.3335,-3.3566,-3.3582,-3.3582,-3.3024,0.0,-3.1614,-3.0815,-3.0054,-2.9329,-2.8427,-2.7875,-2.7824,-2.825,-2.8806,-2.9535,-3.073,-3.192,-3.3112,-3.3954,-3.4552,-3.4917,-3.4192,-3.3403,-3.2614,0.0,0.0,0.0,0.0,0.0,0.0,0.0,0.0,0.0,0.0,0.0,0.0,0.0,0.0,0.0,0.0,0.0,0.0,0.0,0.0,0.0,-2.0849,-2.086,-2.0825,-2.1635,-2.2394,-2.3005,-2.0905,-1.9062,-1.8076,-1.9585,-2.0597,-2.0577,-2.0615,-2.0631,-2.0634,-2.1736,-2.3367,-2.5518,-2.6482,-2.6952,-2.7067,-2.7205,-2.7005,-2.6533,-2.6533,-2.6982,-2.796,-2.8866,-2.9841,-3.0834,-3.1501,-3.1735,-3.1837,-3.2348,-3.2895,-3.3391,-3.3836,-3.4284,-3.4688,-3.5161,-3.5453,-3.5571,-3.5233,-3.4979,-3.4709,-3.4184,-3.437,-3.4658,-3.3931,-3.4607,-3.5402,-3.432,-3.424,-3.4438,-3.4107,-3.3869,-3.3722,-3.3722,-3.3151,-3.2469,-3.1823,-3.1716,-3.1814,-3.2142,-3.2639,-3.3,-3.2814,-3.3262,-3.3582,-3.3582,-3.2967,0.0,-3.2164,-3.143,-3.069,-2.9911,-2.9892,-2.9455,-2.832,-2.8683,-2.8999,-2.9149,-3.035,-3.1438,-3.23,-3.3375,-3.3735,-3.3266,-3.3623,-3.3403,0.0,0.0,0.0,0.0,0.0,0.0,0.0,0.0,0.0,0.0,0.0,0.0,0.0,0.0,0.0,0.0,0.0,0.0,0.0,0.0,0.0,0.0,-2.1268,-2.1179,-2.1154,-2.2274,-2.2561,-2.1121,-1.9233,-1.7994,-1.8016,-1.8916,-1.9845,-2.0577,-2.1228,-2.1302,-2.0664,-2.2718,-2.4257,-2.4877,-2.683,-2.7566,-2.6954,-2.7394,-2.743,-2.6973,-2.6973,-2.7604,-2.8812,-2.9317,-3.0011,-3.0837,-3.1278,-3.1697,-3.2007,-3.2734,-3.3391,0.0,0.0,0.0,0.0,0.0,-3.5148,-3.503,-3.4303,-3.4032,-3.3914,-3.3169,-3.344,-3.3897,-3.3152,-3.3761,-3.4506,-3.3643,-3.3711,-3.3931,-3.3508,-3.3406,-3.3406,-3.3406,-3.2831,-3.2191,-3.1851,-3.1766,-3.19,-3.2333,-3.3251,0.0,-3.3428,-3.3923,-3.4447,-3.4447,-3.3776,-3.319,-3.2846,-3.2152,-3.1376,-3.0632,-3.0347,-2.9816,-2.8951,-2.9147,0.0,0.0,0.0,-3.1447,-3.2219,-3.3259,0.0,0.0,0.0,-3.3917,-3.3109,-3.3568,0.0,0.0,-3.5459,-3.6431,0.0,0.0,0.0,0.0,0.0,0.0,0.0,0.0,0.0,0.0,0.0,0.0,0.0,0.0,0.0,0.0,-2.3279,-2.309,-2.3089,-2.3094,-2.1796,-1.8389,-1.7995,-1.8034,-1.8031,-1.8156,-1.895,-2.0517,-2.2206,-2.2536,-2.1141,-2.382,0.0,0.0,0.0,-2.86,-2.6647,-2.7591,-2.8023,-2.767,-2.7802,-2.8643,-3.0168,-3.03,-3.063,-3.1315,-3.139,-3.1743,-3.2408,-3.3101,-3.3843,-3.462,-3.4703,-3.5098,-3.552,-3.4776,-3.4489,-3.437,-3.3558,0.0,0.0,-3.2408,-3.2662,-3.3136,-3.2391,-3.2747,-3.3372,-3.3203,-3.322,-3.3271,-3.3186,-3.3152,-3.3152,-3.3152,-3.2645,-3.2195,-3.2195,-3.2222,-3.2313,-3.2313,-3.3474,-3.4489,-3.4489,-3.5115,-3.5588,-3.5504,-3.4861,-3.41,-3.3372,-3.2544,-3.1822,-3.1201,0.0,0.0,-2.9534,-2.9608,-2.9636,-2.9546,-3.0611,-3.1623,-3.243,-3.3146,-3.3495,-3.3403,-3.4192,-3.4211,-3.3385,-3.3495,-3.3623,-3.3844,-3.533,-3.678,0.0,0.0,0.0,0.0,0.0,0.0,0.0,0.0,0.0,0.0,0.0,0.0,0.0,0.0,0.0,-2.3587,-2.3146,-2.3103,-2.3106,-2.3084,-2.1851,-1.8413,-1.7976,-1.8029,-1.7998,-1.9302,-2.0212,-2.0584,-2.2381,-2.358,-2.3939,-2.5426,-2.6494,-2.6956,-2.7496,-2.759,-2.7143,-2.7971,-2.8192,-2.7736,0.0,0.0,-2.952,-3.0038,-3.0148,-2.9983,-3.0492,-3.0773,-3.0944,-3.1641,-3.2943,-3.4566,-3.5172,-3.547,-3.552,-3.4776,-3.4489,-3.4303,-3.2966,-3.2493,-3.2374,-3.1647,-3.1901,-3.2357,-3.163,-3.2341,0.0,-3.1952,-3.2036,-3.2357,-3.1782,-3.163,-3.163,-3.163,-3.1512,-3.141,-3.141,-3.1867,-3.2313,-3.2313,-3.3474,-3.4489,-3.4489,-3.5115,-3.5419,-3.4793,-3.4083,-3.3355,-3.2594,-3.1343,-3.0581,-3.0692,-3.0328,-2.992,-2.9594,-2.9878,-2.9801,-2.9161,-2.9923,-3.0797,-3.1604,-3.177,-3.1549,-3.0907,-3.1696,-3.1696,-3.0907,-3.1549,-3.2522,-3.3807,-3.4137,-3.4449,0.0,0.0,0.0,0.0,0.0,0.0,0.0,0.0,0.0,0.0,0.0,-2.5246,-2.5538,0.0,-2.6601,-2.3582,-2.3098,-2.3107,-2.3106,-2.3083,-2.1513,-1.7223,-1.7448,-1.8029,-1.7978,-2.005,-2.136,-2.1163,-2.3235,-2.4371,-2.4134,-2.5634,-2.6403,-2.6323,-2.7594,-2.8113,-2.7533,-2.8638,-2.8912,-2.8484,-2.8918,-2.9285,-2.9471,-2.9795,-2.9982,-3.0083,-3.035,-3.0835,-3.1502,-3.2161,-3.304,-3.3981,-3.437,-3.4726,-3.4928,-3.3795,-3.3389,-3.3262,-3.2371,-3.2055,-3.2004,-3.1627,-3.1764,-3.1948,-3.137,-3.1715,-3.2154,-3.141,-3.1461,-3.1647,-3.1292,-3.119,-3.119,-3.119,-3.119,-3.119,-3.119,-3.1478,-3.185,-3.2246,-3.3093,-3.3887,-3.4223,-3.4771,-3.5012,-3.4575,-3.3558,-3.2659,-3.2115,-3.1059,-3.0367,-3.0347,-3.0074,-2.9812,-2.9629,-2.9223,-2.8833,-2.8429,-2.8411,-2.876,-2.9567,-2.9989,-3.021,-3.021,-3.098,-3.1201,-3.0797,-3.1201,-3.2008,-3.3201,-3.3201,-3.3862,0.0,0.0,0.0,0.0,0.0,0.0,0.0,-2.9007,-3.1207,-3.1196,-2.7573,-2.5035,-2.7196,-2.7619,-2.6612,-2.3603,-2.307,-2.3078,-2.3078,-2.3088,-2.1544,-1.7357,-1.7524,-1.8121,-1.8327,-2.0599,-2.1947,-2.1544,-2.3858,-2.4849,-2.3852,-2.5601,-2.6286,-2.5523,-2.7793,-2.862,-2.7761,-2.894,-2.9392,-2.9087,-2.9262,-2.9339,-2.9403,-2.9659,-2.9831,-2.985,-2.9982,-3.0608,-3.1627,-3.2328,-3.2819,-3.3097,-3.3025,-3.3543,-3.4175,-3.29,-3.2497,-3.2479,-3.2085,-3.1828,-3.1724,-3.1881,-3.1811,-3.167,-3.1511,-3.1466,-3.1466,-3.1466,-3.1466,-3.1466,-3.1466,-3.1466,-3.1414,-3.1278,-3.1206,-3.1206,-3.1206,-3.1206,-3.1466,-3.22,-3.2748,-3.3306,-3.3894,-3.4283,-3.4458,-3.4333,-3.3168,-3.2179,-3.1756,-3.089,-3.0223,-3.0008,-2.9615,-2.9358,-2.9267,-2.8359,-2.7732,-2.7585,-2.6961,-2.6909,-2.7616,-2.8257,-2.8924,-2.9595,-3.0411,-3.0793,-3.0765,-3.093,-3.1397,-3.2155,-3.2302,-3.3605,-3.5007,-3.4182,-3.4093,-3.6911,-3.3393,-2.8798,0.0,-2.9037,-3.1213,-3.1209,-2.9022,-2.7224,-2.7511,-2.7602,-2.6594,-2.3575,-2.307,-2.3078,-2.3078,-2.3125,-2.2873,-2.2342,-1.9712,-1.841,-1.9417,-2.0833,-2.1534,-2.0938,-2.3507,-2.4956,-2.4862,-2.6367,-2.7265,-2.7417,-2.7668,-2.7866,-2.7968,-2.8285,-2.8455,-2.8426,-2.9215,-2.9207,-2.8581,-2.9847,-2.937,-2.7619,-2.8126,-2.8469,-2.8669,-2.9583,-3.0731,-3.1942,-3.1637,-3.2422,-3.3653,-3.313,-3.3154,-3.3371,-3.2682,-3.1958,-3.1482,-3.2188,-3.1941,-3.1467,-3.2139,-3.235,-3.235,-3.235,-3.235,-3.235,-3.235,-3.235,-3.2174,-3.1454,-3.1278,-3.1278,-3.1278,-3.1278,-3.1507,-3.2315,-3.3054,-3.3547,-3.3635,-3.367,-3.3706,-3.3688,-3.295,-3.2124,-3.1449,-3.0074,-2.929,-2.9609,-2.8981,-2.8395,-2.8031,-2.7875,-2.7493,-2.6778,-2.6649,-2.6735,-2.699,-2.7083,-2.7252,-2.7524,-2.833,-2.8652,-2.8476,-2.9258,-2.9909,-3.0485,-3.1201,-3.2449,-3.2621,-3.2172,-3.2467,-3.5161,-3.304,-3.0564,-3.1616,-3.2871,-3.3277,-3.1563,-2.9259,-2.761,-2.7622,-2.758,-2.66,-2.3603,-2.3121,-2.3077,-2.31,-2.3078,-2.3115,-2.3131,-2.1612,-2.0834,-2.1295,-2.248,-2.3121,-2.2891,-2.4716,-2.607,-2.6582,-2.6845,-2.721,-2.7863,-2.7948,-2.807,-2.8175,-2.8753,-2.9055,-2.8997,-2.891,-2.8706,-2.8352,-2.8495,-2.8255,-2.7778,-2.8561,-2.8929,-2.8948,-2.9605,-3.0219,-3.0847,-3.1167,-3.1568,-3.1974,-3.1998,-3.2122,-3.2199,-3.1676,-3.1285,-3.107,-3.141,-3.1285,-3.113,-3.1629,-3.1794,-3.1901,-3.236,-3.2484,-3.2484,-3.2484,-3.2148,-3.1724,-3.1388,-3.0932,-3.0614,-3.0614,-3.0967,-3.1282,-3.1126,-3.1951,-3.2662,-3.2662,-3.2481,-3.2484,-3.2954,-3.2295,-3.1593,-3.1076,-3.0034,-2.9314,-2.9264,-2.853,-2.7981,-2.7824,-2.705,-2.6429,-2.6096,-2.5744,-2.5811,-2.6347,-2.6366,-2.6641,-2.7194,-2.7533,-2.7669,-2.7584,-2.794,-2.8651,-2.968,-3.0132,-3.1102,-3.0613,-3.0478,-3.0947,-3.3237,-3.3519,-3.3605,-3.4827,-3.5367,-3.476,-3.1834,-2.98,-2.8376,-2.7721,-2.7605,-2.689,-2.468,-2.4021,-2.3746,-2.3715,-2.3616,-2.3586,-2.3764,-2.338,-2.3167,-2.3316,-2.3919,-2.4309,-2.4309,-2.5884,-2.7031,-2.7433,-2.7192,-2.739,-2.8038,-2.8024,-2.8221,-2.8609,-2.8891,-2.9037,-2.9185,-2.8404,-2.8005,-2.7895,-2.7429,-2.763,-2.8373,-2.8835,-2.9062,-2.9094,-2.9453,-2.9757,-3.0036,-3.0725,-3.0995,-3.0957,-3.098,-3.1142,-3.1279,-3.1046,-3.0822,-3.0677,-3.0876,-3.0822,-3.0713,-3.1195,-3.1339,-3.1446,-3.2018,-3.2197,-3.2197,-3.2197,-3.175,-3.1267,-3.107,-3.0558,-3.0118,-3.0118,-3.0594,-3.088,-3.054,-3.1214,-3.1827,-3.1827,-3.1571,-3.1586,-3.2192,-3.1554,-3.0908,-3.0686,-2.9934,-2.9239,-2.8714,-2.8154,-2.7622,-2.7163,-2.6245,-2.5613,-2.539,-2.5008,-2.5083,-2.5697,-2.5716,-2.6015,-2.6664,-2.691,-2.6995,-2.6915,-2.716,-2.7782,-2.8725,-2.9345,-2.9943,-3.0895,-3.064,-3.0944,-3.3231,-3.6154,-3.7658,-3.4543,-3.4764,-3.4763,-3.1799,-3.1133,-3.0363,-2.8034,-2.7605,-2.758,-2.7485,-2.6265,-2.5329,-2.5342,-2.4862,-2.4837,-2.5562,-2.5088,-2.4918,-2.5444,-2.4786,-2.4309,-2.4309,-2.6375,-2.742,-2.6763,-2.7534,-2.807,-2.8254,-2.7652,-2.8012,-2.9465,-2.8153,-2.7779,-2.8311,-2.7583,-2.7113,-2.6934,-2.7198,-2.791,-2.8923,-2.8258,-2.794,-2.795,-2.8309,-2.8899,-2.9656,-3.0081,-3.0699,-3.1292,-3.0516,-3.0736,-3.1396,-3.1403,-3.0864,-3.0351,-3.1146,-3.0846,-3.0369,-3.1157,-3.1396,-3.1396,-3.1433,-3.1433,-3.1433,-3.1433,-3.1414,-3.1194,-3.0424,-3.0198,-3.0204,-3.0204,-3.0241,-3.0461,-3.1212,-3.1378,-3.1421,-3.1421,-3.1403,-3.1403,-3.1421,-3.0736,-3.0241,-3.0222,-2.9525,-2.8718,-2.7915,-2.7805,-2.7163,-2.5623,-2.5616,-2.5371,-2.4588,-2.4704,-2.4869,-2.5005,-2.5037,-2.5126,-2.5351,-2.6196,-2.6485,-2.6224,-2.7075,-2.7414,-2.7309,-2.8871,-2.9209,-3.0839,-3.0652,-3.113,-3.4163,-3.519,-3.5157,-3.4062,-3.4105,-3.3782,-3.1636,-2.9606,-2.7974,-2.7138,-2.7981,-2.8525,-2.7731,-2.6607,-2.5849,-2.5869,-2.5811,-2.5901,-2.6133,-2.6695,-2.7144,-2.7332,-2.6427,-2.5906,-2.5906,-2.6704,-2.7387,-2.7736,-2.7623,-2.8033,-2.9078,-2.8429,-2.8299,-2.8711,-2.8237,-2.8067,-2.8144,-2.7528,-2.664,-2.5652,-2.5941,-2.6289,-2.671,-2.7192,-2.7448,-2.7536,-2.8599,-2.9208,-2.9488,-2.9709,-2.9978,-3.0222,-2.9922,-2.9997,-3.0219,-2.9927,-2.9641,-2.9457,-2.9732,-2.9622,-2.9591,-3.0572,-3.088,-3.0995,-3.1694,-3.1867,-3.1867,-3.1867,-3.1474,-3.0988,-3.0727,-3.0261,-2.9868,-2.9868,-3.0298,-3.0577,-3.0335,-3.0689,-3.1063,-3.1063,-3.0615,-3.0073,-2.9512,-3.0023,-3.0064,-2.895,-2.8685,-2.8297,-2.7494,-2.6915,-2.6391,-2.583,-2.5458,-2.512,-2.485,-2.5024,-2.5149,-2.5203,-2.5203,-2.5224,-2.5303,-2.5591,-2.5686,-2.5614,-2.5902,-2.6211,-2.656,-2.7859,-2.8455,-3.0804,-3.0745,-3.1106,-3.3313,-3.3211,-3.2599,-3.259,-3.3519,-3.3655,-3.098,-2.9327,-2.8134,-2.7261,-2.8359,-2.9005,-2.7873,-2.7238,-2.6891,-2.6928,-2.6576,-2.6606,-2.7356,-2.768,-2.8,-2.8443,-2.7763,-2.7228,-2.7193,-2.7583,-2.7951,-2.8231,-2.7876,-2.8147,-2.9029,-2.8404,-2.8094,-2.8236,-2.792,-2.7669,-2.7389,-2.686,-2.6173,-2.5358,-2.5587,-2.5815,-2.6033,-2.6772,-2.7127,-2.7276,-2.8218,-2.8596,-2.8615,-2.8705,-2.8926,-2.9225,-2.9207,-2.9396,-2.9661,-2.9357,-2.9045,-2.8841,-2.9138,-2.9026,-2.8975,-2.9978,-3.0055,-3.0019,-3.0979,-3.1016,-3.0847,-3.1167,-3.0847,-3.0469,-3.0469,-3.0073,-2.9696,-2.9696,-3.0111,-3.0318,-2.979,-3.0111,-3.0469,-3.0469,-2.979,-2.9055,-2.8489,-2.9023,-2.9083,-2.7923,-2.788,-2.7662,-2.6855,-2.6324,-2.5872,-2.5605,-2.5221,-2.501,-2.501,-2.5192,-2.5303,-2.5303,-2.5303,-2.5303,-2.5303,-2.5303,-2.5303,-2.5303,-2.5303,-2.5501,-2.5898,-2.6952,-2.7546,-3.0762,-3.0867,-3.0871,-3.0898,-3.0665,-3.042,-3.0418,-3.2921,-3.4072,-3.0039,-3.0314,-3.0603,-2.836,-2.8698,-2.9042,-2.8059,-2.82,-2.8405,-2.8497,-2.7337,-2.7232,-2.9146,-2.8191,-2.7829,-2.9025,-2.8677,-2.8311,-2.8135,-2.8793,-2.891,-2.8196,-2.8274,-2.8311,-2.8302,-2.7572,-2.7469,-2.8086,-2.7273,-2.6567,-2.5996,-2.5637,-2.5618,-2.5906,-2.593,-2.6228,-2.6786,-2.6842,-2.6969,-2.7137,-2.7175,-2.7229,-2.721,-2.7188,-2.7676,-2.8372,-2.8334,-2.8862,-2.9599,-2.9599,-2.9072,-2.8546,-2.9357,-2.9055,-2.8489,-2.9336,-2.9015,-2.8544,-2.941,-2.907,-2.8636,-2.9448,-2.9693,-2.9712,-2.9674,-2.9693,-2.9731,-2.9731,-2.9731,-2.9731,-2.9731,-2.9731,-2.9731,-2.9731,-2.9013,-2.8428,-2.8391,-2.7846,-2.7376,-2.7185,-2.7153,-2.6868,-2.6054,-2.5959,-2.5672,-2.4889,-2.4943,-2.5022,-2.5022,-2.5184,-2.5303,-2.5303,-2.5303,-2.5303,-2.5303,-2.5303,-2.5303,-2.5303,-2.5303,-2.5303,-2.5322,-2.6197,-2.6601,-3.0318,-3.0532,-3.0591,-3.0846,-3.0838,-3.0759,-3.077,-3.1241,-3.1733,-3.1883,-3.0751,-2.9512,-2.8667,-2.925,-2.9773,-2.9286,-2.9648,-2.9966,-2.9957,-2.9611,-2.9574,-3.0114,-2.9872,-2.9976,-3.0704,-3.025,-2.9892,-2.9801,-2.8595,-2.7811,-2.7605,-2.7561,-2.7716,-2.8135,-2.7378,-2.7273,-2.788,-2.6826,-2.5773,-2.4769,-2.4906,-2.4807,-2.4531,-2.4763,-2.5038,-2.5374,-2.5963,-2.6261,-2.6362,-2.7115,-2.7419,-2.7376,-2.6918,-2.7285,-2.7955,-2.7304,-2.7611,-2.8358,-2.8358,-2.8394,-2.8452,-2.8659,-2.8171,-2.7584,-2.7945,-2.7913,-2.7937,-2.8983,-2.9098,-2.8964,-2.9213,-2.9717,-3.0062,-2.9423,-2.9736,-3.0215,-3.0215,-3.0215,-3.0215,-3.0215,-3.0215,-3.0215,-3.0215,-2.95,-2.8715,-2.8109,-2.734,-2.6749,-2.6488,-2.6632,-2.6431,-2.557,-2.5474,-2.5409,-2.5179,-2.5203,-2.5224,-2.5224,-2.5274,-2.5303,-2.5303,-2.5303,-2.5303,-2.5303,-2.5303,-2.5303,-2.5303,-2.5303,-2.5303,-2.5322,-2.6197,-2.6601,-2.9453,-2.9784,-2.9923,-3.053,-3.072,-3.0575,-2.9839,-3.0443,-3.1099,-3.095,-3.049,-2.9931,-2.9305,-3.0212,-3.0843,-3.0124,-3.0624,-3.1031,-3.0884,-3.0279,-3.0106,-3.0822,-3.0663,-3.0691,-3.135,-3.0817,-3.0289,-2.9924,-2.887,-2.8196,-2.8176,-2.73,-2.7076,-2.7679,-2.6776,-2.6465,-2.6802,-2.5946,-2.5224,-2.4639,-2.466,-2.456,-2.4366,-2.4556,-2.4727,-2.4896,-2.5375,-2.5606,-2.5729,-2.6307,-2.6534,-2.6508,-2.6156,-2.6563,-2.7274,-2.6802,-2.7206,-2.7956,-2.7986,-2.786,-2.7752,-2.807,-2.7613,-2.7037,-2.7523,-2.7407,-2.7304,-2.8291,-2.8294,-2.8082,-2.8467,-2.8948,-2.9179,-2.8679,-2.9217,-2.9833,-2.9833,-3.014,-3.0398,-3.0398,-3.0102,-2.9833,-2.9833,-2.8813,-2.7852,-2.7448,-2.664,-2.6032,-2.5876,-2.5943,-2.5851,-2.5341,-2.5303,-2.5303,-2.5303,-2.5303,-2.5303,-2.5303,-2.5303,-2.5303,-2.5303,-2.5303,-2.5303,-2.5303,-2.5303,-2.5303,-2.5303,-2.5303,-2.5303,-2.5303,-2.5813,-2.6024,-2.8301,-2.8758,-2.9045,-2.9971,-3.0385,-3.014,-2.8573,-3.0127,-3.1242,-2.8977,-2.9928,-3.0917,-3.0008,-3.1164,-3.1887,-3.083,-3.1405,-3.1958,-3.1775,-3.0476,-3.0079,-3.1451,-3.0796,-3.0493,-3.1166,-3.0557,-2.9865,-2.9343,-2.9215,-2.9059,-2.8834,-2.7238,-2.65,-2.6822,-2.5943,-2.5446,-2.5293,-2.4992,-2.4907,-2.5073,-2.4705,-2.4639,-2.4832,-2.4832,-2.4904,-2.5034,-2.5034,-2.5141,-2.5303,-2.5303,-2.5322,-2.5322,-2.5322,-2.5793,-2.6467,-2.6514,-2.7024,-2.7671,-2.773,-2.7258,-2.6756,-2.7505,-2.7159,-2.6601,-2.7351,-2.7044,-2.664,-2.7516,-2.7208,-2.6794,-2.7563,-2.7832,-2.789,-2.7785,-2.8382,-2.8967,-2.8967,-2.9552,-3.009,-3.009,-2.9475,-2.8967,-2.8967,-2.7678,-2.6649,-2.6696,-2.5967,-2.5418,-2.5418,-2.537,-2.5322,-2.5303,-2.5322,-2.5322,-2.5303,-2.5322,-2.5322,-2.5303,-2.5322,-2.5322,-2.5303,-2.5303,-2.5303,-2.5303,-2.5303,-2.5303,-2.5303,-2.5303,-2.5303,-2.5303,-2.5303,-2.5303,-2.6802,-2.7508,-2.813,-2.8938,-2.9728,-3.0025,-2.9062,-2.9849,-3.045,-2.9306,-2.9908,-3.0534,-3.0197,-3.1083,-3.191,-3.1957,-3.2367,-3.3022,-3.4073,-3.2535,-3.1722,-3.2681,-3.0782,-2.9655,-3.0348,-2.9263,-2.8771,-2.9411,-2.8902,-2.803,-2.6852,-2.6682,-2.6076,-2.4831,-2.5262,-2.5105,-2.4269,-2.478,-2.4985,-2.4854,-2.4787,-2.4809,-2.4962,-2.4962,-2.5065,-2.5253,-2.5253,0.0,-2.539,-2.539,-2.5428,-2.5466,-2.5466,-2.5563,-2.5697,-2.5697,-2.5804,-2.5931,-2.5957,-2.5859,-2.5874,-2.6728,-2.6399,-2.5717,-2.587,-2.5813,-2.587,-2.6747,-2.6882,-2.6795,-2.6956,-2.7533,-2.7881,-2.7171,-2.7642,-2.8275,-2.8276,-2.838,-2.8495,-2.8495,-2.838,-2.8269,-2.8275,-2.7437,-2.6773,-2.6781,-2.6041,-2.5471,-2.5471,-2.5476,-2.5447,-2.539,-2.5428,-2.5447,-2.539,-2.5428,-2.5447,-2.539,-2.5428,-2.5447,-2.539,-2.539,-2.539,-2.539,-2.5322,-2.5322,-2.539,-2.5322,-2.5303,-2.5303,-2.5303,-2.5303,-2.5264,-2.595,-2.6492,-2.7799,-2.8279,-2.833,-2.79,-2.8657,-2.9265,-2.8567,-2.9387,-3.0268,-3.0381,-3.1406,-3.2135,-3.1918,-3.2621,-3.3229,-3.3248,-3.2385,-3.1763,-3.1534,-3.0415,-2.9638,-2.9582,-2.8736,-2.8235,-2.8282,-2.7957,-2.7531,-2.7106,-2.6204,-2.5267,-2.4284,-2.4722,-2.4732,-2.4264,-2.4705,-2.4923,-2.4904,-2.4904,-2.5012,-2.522,-2.522,-2.5271,-2.5409,-2.5409,-2.5428,-2.5457,-2.5445,-2.5471,-2.551,-2.551,-2.551,-2.5495,-2.5533,-2.5541,-2.5549,-2.5585,-2.561,-2.5673,-2.6093,-2.5909,-2.551,-2.551,-2.551,-2.5587,-2.6001,-2.6118,-2.6118,-2.6122,-2.6432,-2.6633,-2.6214,-2.6796,-2.7544,-2.8006,-2.8094,-2.8094,-2.8094,-2.7718,-2.7417,-2.7415,-2.6688,-2.6133,-2.6169,-2.5809,-2.5557,-2.5542,-2.5577,-2.5572,-2.5456,-2.5471,-2.549,-2.5452,-2.5483,-2.5484,-2.5444,-2.5471,-2.549,-2.5452,-2.5455,-2.5447,-2.5447,-2.5418,-2.5418,-2.5447,-2.5428,-2.539,-2.5341,-2.5341,-2.5322,-2.3421,-2.4139,-2.4585,-2.623,-2.6568,-2.6441,-2.6213,-2.7252,-2.8131,-2.7611,-2.8752,-2.9995,-3.0427,-3.1385,-3.1975,-3.1565,-3.2424,-3.2931,-3.2401,-3.2073,-3.162,-3.0867,-3.0377,-2.9826,-2.9057,-2.8352,-2.7764,-2.723,-2.6951,-2.6958,-2.7326,-2.569,-2.4598,-2.434,-2.4478,-2.4575,-2.4604,-2.4775,-2.4942,-2.5096,-2.5096,-2.5209,-2.5428,-2.5427,-2.5444,-2.5511,-2.5511,-2.5514,-2.5524,-2.5524,-2.5522,-2.5547,-2.5547,-2.5547,-2.5554,-2.5596,-2.5615,-2.5638,-2.5673,-2.5703,-2.5703,-2.5703,-2.5625,-2.5547,-2.5547,-2.5547,-2.5547,-2.5547,-2.5547,-2.5547,-2.5547,-2.5547,-2.5547,-2.5547,-2.6077,-2.6755,-2.7444,-2.7595,-2.7595,-2.7595,-2.7026,-2.6554,-2.6554,-2.6007,-2.5556,-2.5599,-2.5615,-2.5615,-2.5613,-2.5667,-2.5665,-2.5556,-2.5537,-2.5547,-2.5527,-2.5525,-2.5529,-2.5517,-2.5522,-2.5547,-2.5527,-2.5518,-2.5517,-2.5524,-2.5512,-2.551,-2.5519,-2.5509,-2.5464,-2.5425,-2.5409,-2.539,-2.0996,-2.1983,-2.2547,-2.3834,-2.4852,-2.532,-2.4526,-2.6027,-2.7466,-2.6971,-2.8215,-2.9546,-3.0136,-3.0392,-3.0735,-3.1397,-3.1565,-3.2165,-3.3834,-3.304,-3.2409,-3.2847,-3.1298,-2.988,-2.9074,-2.7683,-2.6951,-2.7169,-2.6353,-2.5857,-2.5894,-2.5022,-2.4601,-2.4746,-2.476,-2.4842,-2.4943,-2.5019,-2.5163,-2.537,-2.5427,-2.5476,-2.5495,-2.5479,-2.5493,-2.5493,-2.5493,-2.5524,0.0,-2.5592,-2.5621,-2.5683,-2.5683,-2.5683,-2.5683,-2.5681,-2.5681,-2.5681,-2.5702,-2.5702,-2.5702,-2.5702,-2.5683,-2.5683,-2.5683,-2.5683,-2.5683,-2.5683,-2.5683,-2.5683,-2.5683,-2.5683,-2.5683,-2.5683,-2.5741,-2.5819,-2.5897,-2.5917,-2.5917,-2.5917,-2.5858,-2.58,-2.58,-2.5722,-2.5683,-2.5681,-2.5681,-2.5681,-2.5683,-2.5701,-2.5704,-2.5685,-2.5675,-2.5663,-2.5604,-2.5642,-2.5658,-2.559,-2.5644,-2.5643,-2.5585,-2.5584,-2.559,-2.5592,-2.5531,-2.5535,-2.5583,-2.5524,-2.5493,-2.5488,-2.549,-2.5447,-1.6814,-1.8054,-1.9197,-2.0769,-2.1447,-2.1883,-2.2551,-2.4136,-2.5549,-2.5837,-2.7567,-2.9139,-2.9517,-2.9953,-3.0295,-3.0448,-3.1035,-3.1757,-3.2597,-3.224,-3.1748,-3.144,-3.0185,-2.8793,-2.7395,-2.6483,-2.5861,-2.5585,-2.5314,-2.5186,-2.5267,-2.4915,-2.4723,-2.4817,-2.4927,-2.5029,-2.5118,-2.5263,-2.538,-2.5453,-2.5492,-2.553,-2.5563,-2.5567,-2.5574,-2.5629,-2.5629,-2.5634,0.0,-2.566,-2.5681,-2.5703,-2.5663,-2.564,-2.5632,-2.559,-2.557,-2.557,-2.557,-2.557,-2.557,-2.557,-2.557,-2.558,-2.5629,-2.5642,-2.5644,-2.5644,-2.5664,-2.5703,-2.5703,-2.5703,-2.5703,-2.5703,-2.5703,-2.5703,-2.5703,-2.5703,-2.5703,-2.5703,-2.5703,-2.5703,-2.5703,-2.5703,-2.5703,-2.5703,-2.5703,-2.5703,-2.5703,-2.5703,-2.5699,-2.5707,-2.5693,-2.5684,-2.5664,-2.5684,-2.5698,-2.5664,-2.5694,-2.5684,-2.5664,-2.5664,-2.5658,-2.566,-2.5637,-2.5638,-2.5664,-2.5637,-2.559,-2.557,-2.5571,-2.5511,-1.3204,-1.451,-1.5788,-1.7721,-1.8236,-1.8689,-2.0254,-2.1867,-2.3306,-2.4362,-2.6162,-2.7709,-2.8239,-2.9019,-2.955,-2.9433,-3.0449,-3.1336,-3.1609,-3.1578,-3.1366,-3.0884,-2.9952,-2.8829,-2.753,-2.6453,-2.5479,-2.4638,-2.4716,-2.4883,-2.5077,-2.5019,-2.4972,-2.4984,-2.5108,-2.5225,-2.5287,-2.5454,-2.5539,-2.5525,-2.555,-2.5576,-2.5628,-2.5605,-2.5636,-2.5671,-2.565,-2.5636,0.0,-2.5636,-2.5636,-2.565,-2.559,-2.5571,-2.5563,-2.551,-2.5499,-2.5499,-2.5499,-2.5499,-2.5499,-2.5499,-2.548,-2.5479,-2.5523,-2.5544,-2.5576,-2.5574,-2.5597,-2.5658,-2.5664,-2.5664,-2.5684,-2.5703,-2.5703,-2.5703,-2.5703,-2.5703,-2.5703,-2.5703,-2.5703,-2.5703,-2.5703,-2.5703,-2.5703,-2.5703,-2.5703,-2.5703,-2.5703,-2.5703,-2.5703,-2.5703,-2.5703,-2.5703,-2.5703,-2.5703,-2.5703,-2.5703,-2.5703,-2.5703,-2.5703,-2.5703,-2.5703,-2.5703,-2.5703,-2.5703,-2.5703,-2.5703,-2.5684,-2.5625,-2.5622,-2.5597,-1.0713,-1.1877,-1.2663,-1.4796,-1.5661,-1.6254,-1.757,-1.9208,-2.0907,-2.2598,-2.3798,-2.4926,-2.6106,-2.7309,-2.8217,-2.8472,-2.9693,-3.0827,-3.1416,-3.1437,-3.1611,-3.221,-3.1278,-3.0565,-3.0551,-2.8165,-2.6096,-2.4892,-2.4804,-2.4955,-2.5274,-2.536,-2.538,-2.538,-2.5399,-2.5421,-2.5503,-2.5564,-2.5601,-2.5592,-2.5662,-2.5703,-2.5703,-2.5622,-2.5601,-2.5611,-2.5525,-2.5493,0.0,-2.5493,-2.5493,-2.5493,-2.5508,-2.5511,-2.5505,-2.5505,-2.5505,-2.5505,-2.5505,-2.5505,-2.5505,-2.5505,-2.5466,-2.5409,-2.5409,-2.5447,-2.5504,-2.549,-2.5493,-2.552,-2.5583,-2.5605,-2.5625,-2.5684,-2.5703,-2.5703,-2.5703,-2.5703,-2.5703,-2.5703,-2.5703,-2.5703,-2.5703,-2.5703,-2.5703,-2.5703,-2.5703,-2.5703,-2.5703,-2.5703,-2.5703,-2.5703,-2.5703,-2.5703,-2.5703,-2.5703,-2.5703,-2.5703,-2.5703,-2.5703,-2.5703,-2.5703,-2.5703,-2.5703,-2.5703,-2.5703,-2.5703,-2.5703,-2.5703,-2.5703,-2.5703,-2.5664,-0.5527,-0.7058,-0.8477,-0.988,-1.1571,-1.311,-1.3937,-1.6201,-1.8397,-1.9305,-2.229,-2.4647,-2.4503,-2.6691,-2.8426,-2.8017,-2.9321,-3.0672,-3.1467,-3.1222,-3.0951,-3.0818,-2.8636,-2.6898,-2.6345,-2.5743,-2.5217,-2.4827,-2.5,-2.522,-2.536,-2.539,-2.5428,-2.5466,-2.5505,-2.5575,-2.5634,-2.5657,-2.5665,-2.5665,-2.5632,-2.5635,-2.5635,-2.5551,-2.5519,-2.5524,-2.5511,-2.5506,-2.5506,-2.5506,-2.5506,-2.5506,-2.5448,-2.5436,-2.5428,-2.539,-2.537,-2.537,-2.537,-2.537,-2.537,-2.537,-2.5341,-2.5322,-2.5322,-2.539,-2.5447,-2.5481,-2.5506,-2.5503,-2.5524,-2.5522,-2.5542,-2.5561,-2.5561,-2.5561,-2.5561,-2.5561,-2.5561,-2.5561,-2.5561,-2.5561,-2.5561,-2.5561,-2.5561,-2.5561,-2.5561,-2.5581,-2.5625,-2.5625,-2.5644,-2.5703,-2.5703,-2.5703,-2.5703,-2.5703,-2.5703,-2.5703,-2.5703,-2.5703,-2.5703,-2.5703,-2.5703,-2.5703,-2.5703,-2.5703,-2.5703,-2.5703,-2.5703,-2.5703,-2.5703,-2.5684,-0.0953,-0.2968,-0.4563,-0.5474,-0.7524,-0.9518,-1.0287,-1.2805,-1.5303,-1.636,-1.9371,-2.183,-2.18,-2.4082,-2.5905,-2.5702,-2.7773,-2.9543,-2.9882,-3.0228,-3.0212,-2.9544,-2.7565,-2.5984,-2.5147,-2.5002,-2.4955,-2.4917,-2.5106,-2.5299,-2.5418,-2.5437,-2.5453,-2.5492,-2.5531,-2.5613,-2.5703,-2.5664,-2.5658,-2.5664,-2.5627,-2.5582,-2.5572,-2.548,-2.5453,-2.5466,-2.5447,-2.5428,0.0,-2.5428,-2.5428,-2.539,-2.5043,-2.4909,-2.4909,-2.4851,-2.4851,-2.4889,-2.5187,-2.5303,-2.5303,-2.5303,-2.5303,-2.5303,-2.5303,-2.5322,-2.537,-2.5409,-2.5428,-2.5428,-2.5466,-2.5459,-2.546,-2.5499,-2.5499,-2.5499,-2.5499,-2.5499,-2.5499,-2.5499,-2.5499,-2.5499,-2.5499,-2.5499,-2.5499,-2.5499,-2.5499,-2.5517,-2.5559,-2.5559,-2.5572,-2.5611,-2.5611,-2.5611,-2.5611,-2.5662,-2.5703,-2.5703,-2.5703,-2.5703,-2.5703,-2.5703,-2.5703,-2.5703,-2.5703,-2.5703,-2.5703,-2.5703,-2.5703,-2.5703,-2.5703,-2.5703,0.0,0.0867,-0.065,-0.1374,-0.3406,-0.5483,-0.6622,-0.911,0.0,-1.3721,-1.5568,-1.7162,-1.8302,-2.0038,-2.151,-2.2118,-2.5332,-2.763,-2.7296,-2.8509,-2.9098,-2.814,-2.7529,-2.6913,-2.6169,-2.5546,-2.5151,-2.5094,-2.512,-2.5236,-2.5495,-2.5503,-2.5508,-2.5506,-2.5506,-2.5545,-2.5681,-2.5624,-2.5597,-2.5592,-2.5592,-2.5543,-2.5486,-2.5428,-2.539,-2.539,-2.5322,-2.5264,-2.5207,-2.5207,-2.5207,-2.5139,-2.4399,-2.411,-2.411,-2.4168,-2.4149,-2.4206,-2.4995,-2.5274,-2.5274,-2.5264,-2.5264,-2.5274,-2.5274,-2.5303,-2.5303,-2.5303,-2.5303,-2.5303,-2.539,-2.539,-2.5409,-2.5466,-2.5486,-2.5486,-2.5486,-2.5486,-2.5486,-2.5486,-2.5486,-2.5486,-2.5486,-2.5486,-2.5486,-2.5486,-2.5486,-2.5486,-2.5486,-2.5498,-2.5498,-2.5498,-2.5498,-2.5498,-2.5498,-2.5605,-2.5683,-2.5683,-2.5683,-2.5683,-2.5684,-2.5684,-2.5703,-2.5703,-2.5703,-2.5703,-2.5703,-2.5703,-2.5703,-2.5703,-2.5703,-2.5703,0.8917,0.0,0.5151,0.4138,0.1821,-0.0646,0.0,0.0,0.0,0.0,0.0,-1.5337,-1.5629,-1.8859,-2.1511,-2.1389,-2.3565,-2.5802,-2.7429,-2.6139,-2.4794,-2.4204,-2.3636,-2.3549,-2.4089,-2.4598,-2.4957,-2.5088,-2.524,-2.5378,-2.5486,-2.5446,-2.5447,-2.5503,-2.5449,-2.5449,-2.5553,-2.5522,-2.5522,-2.5517,-2.5481,-2.5447,-2.5428,-2.5341,-2.5322,-2.5322,-2.5303,-2.4947,-2.4379,-2.4379,-2.4379,-2.436,-2.4168,-2.411,-2.4168,-2.4793,-2.462,-2.4188,-2.4834,-2.5077,-2.5053,-2.4949,-2.5,-2.5077,-2.5077,-2.5173,-2.5303,-2.5303,-2.5303,-2.5303,-2.5322,-2.5322,-2.5322,-2.5341,-2.5341,-2.5341,-2.5341,-2.5341,-2.5341,-2.5341,-2.5341,-2.5341,-2.5341,-2.5341,-2.5341,-2.5341,-2.5341,-2.537,-2.5428,-2.5418,-2.5434,-2.5492,-2.5492,-2.5492,-2.5492,-2.5535,-2.5551,-2.5551,-2.5551,-2.5579,-2.5625,-2.5625,-2.5644,-2.5703,-2.5703,-2.5703,-2.5703,-2.5703,-2.5703,-2.5703,-2.5703,-2.5703,1.3289,1.1092,0.8599,0.7727,0.6457,0.4804,0.2603,0.0,0.0,0.0,0.0,-0.8255,-0.7679,-0.9401,-1.0661,-0.9887,-1.1968,-1.537,-2.0274,-2.1903,-2.2305,-2.1591,-2.2007,-2.2736,-2.3809,-2.4208,-2.4642,-2.5282,-2.539,-2.5481,-2.5546,-2.5444,-2.5408,-2.5457,-2.539,-2.5409,-2.5505,-2.5476,-2.5459,-2.5459,-2.5416,-2.539,-2.5341,-2.5222,-2.5163,-2.5163,-2.5163,-2.4913,-2.4483,-2.4217,-2.411,-2.4014,-2.3225,-2.2908,-2.2947,-2.3333,-2.3199,-2.291,-2.3534,-2.3999,-2.4296,-2.4241,-2.4515,-2.4917,-2.4917,-2.4968,-2.5103,-2.5253,-2.5303,-2.5303,-2.5303,-2.5303,-2.5303,-2.5303,-2.5303,-2.5303,-2.5303,-2.5303,-2.5303,-2.5303,-2.5303,-2.5303,-2.5303,-2.5303,-2.5303,-2.5303,-2.5303,-2.5303,-2.5341,-2.5341,-2.537,-2.5409,-2.5409,-2.5409,-2.5409,-2.541,-2.5439,-2.5498,-2.5498,-2.5518,-2.5556,-2.5548,-2.5597,-2.5644,-2.5684,-2.5703,-2.5703,-2.5703,-2.5703,-2.5703,-2.5703,-2.5703,1.6558,1.4412,1.179,1.0878,1.0516,0.9929,0.8237,0.0,0.0,0.0,0.0,0.2217,0.3482,0.4575,0.5778,0.7213,0.3436,-0.2048,-0.875,-1.4699,-1.8414,-1.8493,-1.9989,-2.1862,-2.4023,-2.4111,-2.4476,-2.5502,-2.5492,-2.5468,-2.5514,-2.5417,-2.534,-2.534,-2.5283,-2.5321,-2.5417,-2.5379,-2.534,-2.534,-2.534,-2.5311,-2.5203,-2.4943,-2.4865,-2.4955,-2.4841,0.0,-2.4548,-2.4061,-2.3775,-2.3525,-2.2055,-2.1479,-2.1462,-2.1453,-2.1374,-2.1352,-2.2029,-2.2763,-2.3418,-2.3418,-2.4015,-2.476,-2.476,-2.4775,-2.4861,-2.5138,-2.5243,-2.5264,-2.5284,-2.5303,-2.5303,-2.5303,-2.5303,-2.5303,-2.5303,-2.5303,-2.5303,-2.5303,-2.5303,-2.5303,-2.5303,-2.5303,-2.5303,-2.5303,-2.5303,-2.5303,-2.5303,-2.5303,-2.5303,-2.5303,-2.5303,-2.5303,-2.5303,-2.5303,-2.5341,-2.5466,-2.5466,-2.5466,-2.5486,-2.5498,-2.5539,-2.5583,-2.5644,-2.5684,-2.5684,-2.5703,-2.5703,-2.5703,-2.5703,-2.5703,1.86,1.8634,1.8098,1.5575,1.3817,1.2993,1.4155,0.0,0.0,0.0,0.0,1.5184,1.6623,1.9516,2.2371,2.4582,1.4395,0.5896,0.5006,-0.0388,-0.6082,-1.1116,-1.2633,-1.5959,-2.2807,-2.4243,-2.4966,-2.5478,-2.5292,-2.5176,-2.5177,-2.5099,-2.5065,-2.5065,-2.5046,-2.5065,-2.5084,-2.5065,-2.5065,-2.5065,-2.5065,-2.5012,-2.485,-2.4269,-2.4302,-2.479,0.0,-2.3334,-2.2729,-2.2742,-2.2331,-2.1703,-2.1435,-2.133,-2.1396,-2.1931,-2.1713,-2.1216,-2.1826,-2.2511,-2.3086,-2.3086,-2.3742,-2.4561,-2.4561,-2.467,-2.4818,-2.4874,-2.4956,-2.5088,-2.5264,-2.5303,-2.5303,-2.5303,-2.5303,-2.5303,-2.5303,-2.5303,-2.5303,-2.5303,-2.5303,-2.5303,-2.5303,-2.5303,-2.5303,-2.5303,-2.5303,-2.5303,-2.5303,-2.5303,-2.5303,-2.5303,-2.5303,-2.5303,-2.5303,-2.5303,-2.5303,-2.5322,-2.5322,-2.537,-2.5409,-2.5466,-2.5495,-2.5516,-2.5579,-2.5625,-2.5625,-2.5664,-2.5703,-2.5703,-2.5703,-2.5703,2.0733,2.1007,2.105,2.0127,1.8656,1.747,1.7644,0.0,0.0,0.0,0.0,0.0,2.0279,2.2497,2.4445,2.564,2.0375,1.5419,1.336,1.0387,0.5014,-0.4187,-0.8675,-1.3444,-1.9731,-2.2968,-2.4922,-2.5508,-2.5179,-2.4998,-2.5095,-2.4961,-2.4891,-2.4891,-2.4891,-2.4891,-2.4891,-2.4795,-2.4795,-2.4891,-2.4962,-2.4943,-2.4766,-2.3992,-2.3769,-2.3926,0.0,-2.2478,-2.2121,-2.1852,-2.1533,-2.1145,-2.066,-2.0489,-2.0524,-2.0759,-2.0549,-2.0173,-2.0426,-2.1334,-2.2354,-2.2354,-2.3252,-2.4339,-2.4339,-2.441,-2.4495,-2.4607,-2.4771,-2.493,-2.5107,-2.5141,-2.5163,-2.5274,-2.5303,-2.5303,-2.5303,-2.5303,-2.5303,-2.5303,-2.5303,-2.5303,-2.5303,-2.5303,-2.5303,-2.5303,-2.5303,-2.5303,-2.5303,-2.5303,-2.5303,-2.5303,-2.5303,-2.5303,-2.5303,-2.5303,-2.5303,-2.5303,-2.5303,-2.5303,-2.5341,-2.5409,-2.5446,-2.5449,-2.5511,-2.5554,-2.5605,-2.5625,-2.5664,-2.5703,-2.5703,-2.5703,2.2562,2.2682,2.2905,2.3547,0.0,0.0,0.0,0.0,0.0,0.0,0.0,2.0335,2.1684,2.3084,2.3982,2.3802,2.3472,2.2062,1.8676,1.7183,1.2422,0.1564,-0.5287,-1.1401,-1.7241,-2.1918,-2.4861,-2.5522,-2.5083,-2.4862,-2.5023,-2.469,-2.4488,-2.4448,-2.4256,-2.4143,-2.4143,-2.3995,-2.4182,-2.4731,-2.4818,-2.4714,-2.4351,-2.3526,-2.3082,-2.2903,-2.2027,-2.1637,-2.1615,-2.1197,-2.0916,-2.069,-2.0007,-1.9707,-1.967,-1.9564,-1.9423,-1.9341,-1.951,-2.0556,-2.1839,-2.2006,-2.3033,-2.419,-2.419,-2.419,-2.4228,-2.4393,-2.4545,-2.4697,-2.4898,-2.4949,-2.4993,-2.5149,-2.5222,-2.5224,-2.5224,-2.5264,-2.5303,-2.5303,-2.5303,-2.5303,-2.5303,-2.5457,-2.5534,-2.5322,-2.5476,-2.5534,-2.5322,-2.5303,-2.5303,-2.5303,-2.5303,-2.5303,-2.5303,-2.5303,-2.5303,-2.5303,-2.5303,-2.5303,-2.5303,-2.5341,-2.539,-2.539,-2.5447,-2.5503,-2.5544,-2.5577,-2.5603,-2.5684,-2.5684,-2.5684,2.3779,2.4132,2.4501,2.4797,2.3663,0.0,2.442,2.4286,0.0,2.3775,0.0,2.4803,2.3953,2.5602,2.6688,2.5454,2.3692,2.2099,2.0971,1.8208,1.3317,0.5308,-0.1173,-0.8406,-1.6981,-2.2092,-2.5042,-2.5484,-2.5064,-2.4808,-2.4818,-2.4044,-2.3545,-2.3406,-2.2622,-2.2208,-2.2208,-2.2193,-2.2961,-2.4528,-2.4526,-2.4036,-2.3106,-2.2418,-2.203,-2.1857,-2.0976,-2.0609,-2.0625,-2.0752,-2.0374,-1.9702,-1.9647,-1.9495,-1.9335,-1.932,-1.9305,-1.9399,-2.0152,-2.1015,-2.1931,-2.2666,-2.3511,-2.419,-2.419,-2.419,-2.419,-2.4209,-2.4228,-2.4321,-2.4697,-2.4799,-2.4818,-2.4832,-2.493,-2.5022,-2.5022,-2.5163,-2.5303,-2.5303,-2.5303,-2.5303,-2.5303,-2.5967,-2.6236,-2.5418,-2.5986,-2.6217,-2.5399,-2.5303,-2.5303,-2.5303,-2.5303,-2.5303,-2.5303,-2.5303,-2.5303,-2.5303,-2.5303,-2.5303,-2.5303,-2.5303,-2.5303,-2.5303,-2.537,-2.5409,-2.5398,-2.5479,-2.5531,-2.5605,-2.5605,-2.5644,2.4573,2.4748,2.4928,2.5286,2.4839,0.0,0.0,2.5152,2.4979,2.4819,2.5054,2.5215,2.4973,2.589,2.6127,2.4475,2.3069,2.1755,2.0699,1.923,1.6292,1.1035,0.4834,-0.2473,-1.1294,-1.9776,-2.4887,-2.528,-2.4375,-2.3823,-2.3861,-2.3245,-2.2648,-2.2135,-2.1963,-2.1797,-2.1622,-2.1778,-2.2196,-2.2842,-2.3459,-2.3242,-2.2262,-2.2086,-2.1628,-2.096,-2.0115,-1.9748,-1.9748,-1.9841,-1.9686,-1.9409,-1.9409,-1.9365,-1.9305,-1.9305,-1.9305,-1.9418,-2.0225,-2.107,-2.1914,-2.274,-2.3547,-2.419,-2.419,-2.419,-2.419,-2.419,-2.419,-2.4247,-2.4545,-2.4607,-2.4639,-2.4775,-2.4842,-2.4883,-2.4883,-2.534,-2.5767,-2.591,-2.5891,-2.6067,-2.6792,-2.6736,-2.6486,-2.6159,-2.639,-2.6294,-2.5399,-2.5303,-2.5303,-2.5303,-2.5303,-2.5303,-2.5303,-2.5303,-2.5303,-2.5303,-2.5303,-2.5303,-2.5303,-2.5303,-2.5303,-2.5303,-2.5322,-2.537,-2.5409,-2.5423,-2.5483,-2.5595,-2.559,-2.5644,2.5043,2.5143,2.5213,2.547,0.0,0.0,2.5371,2.5577,2.5711,2.5578,2.5264,2.5132,2.549,2.5714,2.5349,2.3764,2.2805,2.1973,2.1106,2.0158,1.8452,1.548,0.9758,0.2373,-0.7066,-1.5564,-2.1797,-2.496,-2.3815,-2.3009,-2.3167,-2.2337,-2.1567,-2.091,-2.0969,-2.0893,-2.0644,-2.0825,-2.0964,-2.1031,-2.1904,-2.198,-2.1399,-2.1488,-2.101,-2.0097,-1.9528,-1.9305,-1.9305,-1.9305,-1.9305,-1.9305,-1.9305,-1.9305,-1.9305,-1.9305,-1.9305,-1.9418,-2.0225,-2.0904,-2.1565,-2.2648,-2.3382,-2.3878,-2.4116,-2.419,-2.419,-2.419,-2.419,-2.4228,-2.4375,-2.441,-2.4426,-2.4594,-2.4654,-2.47,-2.47,-2.5197,-2.5668,-2.5791,-2.5785,-2.6078,-2.7115,-2.7012,-2.6802,-2.679,-2.6837,-2.6584,-2.5729,-2.5426,-2.5303,-2.5303,-2.5303,-2.5303,-2.5303,-2.5303,-2.5303,-2.5303,-2.5303,-2.5303,-2.5303,-2.5303,-2.5303,-2.5303,-2.5303,-2.5322,-2.537,-2.537,-2.5428,-2.5534,-2.5541,-2.5579,2.517,2.5343,2.5488,2.5417,0.0,0.0,2.5321,2.5809,2.6296,2.6294,2.5498,2.4994,2.5574,2.5372,2.4764,2.3684,2.3187,2.2841,2.2738,2.1117,1.9453,1.8192,1.3203,0.559,-0.5228,-0.947,-1.5312,-2.4485,-2.3437,-2.2515,-2.2849,-2.1357,-2.0276,-1.9797,-1.9482,-1.9214,-1.9002,-1.9002,-1.9102,-1.9289,-1.99,-2.0298,-2.0484,-2.0503,-2.006,-1.9305,-1.9305,-1.9305,-1.9305,-1.9305,-1.9305,-1.9305,-1.9305,-1.9305,-1.9305,-1.9305,-1.9305,-1.9418,-2.0225,-2.0503,-2.0759,-2.2447,-2.2978,-2.3162,-2.3951,-2.419,-2.419,-2.419,-2.419,-2.419,-2.419,-2.419,-2.419,-2.419,-2.4339,-2.4495,-2.4495,-2.4654,-2.4808,-2.4823,-2.4823,-2.5073,-2.5872,-2.6679,-2.7207,-2.7213,-2.738,-2.7203,-2.639,-2.5707,-2.5303,-2.5303,-2.5303,-2.5303,-2.5303,-2.5303,-2.5303,-2.5303,-2.5303,-2.5303,-2.5303,-2.5303,-2.5303,-2.5303,-2.5303,-2.5303,-2.5303,-2.5303,-2.5322,-2.5409,-2.541,-2.5472,2.5411,2.5498,2.5503,2.5526,2.5954,2.6176,0.0,2.5515,0.0,0.0,2.5408,2.5358,2.5117,2.5023,2.4756,2.4155,2.3666,2.3369,2.3458,2.2876,2.2129,2.1278,2.057,1.5384,0.3151,-0.3185,-1.1084,-2.2039,-2.1401,-2.0567,-2.0707,-2.0205,-1.955,-1.87,-1.895,-1.8966,-1.8734,-1.8715,-1.8843,-1.9102,-1.927,-1.9464,-1.9675,-2.0228,-2.006,-1.9305,-1.9305,-1.9305,-1.9305,-1.9305,-1.9305,-1.9305,-1.9305,-1.9305,-1.9305,-1.9305,-1.9305,-1.9418,-2.0225,-2.0503,-2.0668,-2.1804,-2.2538,-2.3033,-2.329,-2.3749,-2.419,-2.419,-2.419,-2.419,-2.419,-2.419,-2.419,-2.419,-2.4247,-2.4284,-2.4284,-2.4764,-2.5263,-2.5398,-2.5884,-2.6592,-2.7584,-2.7921,-2.8037,-2.8039,-2.7614,-2.679,-2.5423,-2.508,-2.4987,-2.5077,-2.5088,-2.5152,-2.5303,-2.5303,-2.5303,-2.5303,-2.5303,-2.5303,-2.5303,-2.5303,-2.5303,-2.5303,-2.5303,-2.5303,-2.5303,-2.5303,-2.5322,-2.5409,-2.5398,-2.5448,2.5581,2.5603,2.5663,2.6039,2.6459,2.6637,2.6047,2.5635,2.5292,2.5057,2.5229,2.5295,2.4884,2.483,2.4727,2.4366,2.4153,2.4008,2.4038,2.3933,2.3801,2.3643,2.3913,1.9534,0.7865,0.1654,-0.6915,-1.9614,-1.9264,-1.8663,-1.9186,-1.8714,-1.83,-1.8035,-1.8434,-1.8643,-1.8585,-1.8489,-1.8623,-1.9002,-1.8789,-1.886,-1.92,-1.9693,-1.9638,-1.9182,-1.9182,-1.923,-1.9305,-1.9305,-1.9305,-1.9289,-1.9214,-1.9182,-1.9166,-1.9066,-1.9099,-1.9255,-1.9747,-1.9961,-2.017,-2.1015,-2.1568,-2.2045,-2.2758,-2.3271,-2.3634,-2.4079,-2.419,-2.419,-2.419,-2.419,-2.419,-2.419,-2.419,-2.419,-2.419,-2.4575,-2.4964,-2.5097,-2.5505,-2.6247,-2.7512,-2.7456,-2.7419,-2.8054,-2.7266,-2.6167,-2.4959,-2.4804,-2.4828,-2.4917,-2.493,-2.4993,-2.5163,-2.5173,-2.5214,-2.5284,-2.5303,-2.5303,-2.5303,-2.5303,-2.5303,-2.5303,-2.5303,-2.5303,-2.5303,-2.5303,-2.5322,-2.537,-2.537,-2.5409,2.5683,2.5742,2.5975,2.6722,2.6908,2.6887,2.6845,2.6039,2.5254,2.5077,2.5022,2.4962,2.4842,2.4818,2.4723,2.442,2.4633,2.4747,2.4542,2.449,2.4686,2.5231,2.4237,1.989,1.0688,0.5814,-0.2406,-1.6037,-1.6659,-1.6899,-1.8021,-1.7083,-1.6881,-1.7726,-1.795,-1.8203,-1.8528,-1.829,-1.841,-1.8914,-1.843,-1.845,-1.8931,-1.8949,-1.8966,-1.8966,-1.8966,-1.9084,-1.9274,-1.9274,-1.9274,-1.9243,-1.9069,-1.9002,-1.8931,-1.8697,-1.8752,-1.8966,-1.8966,-1.9101,-1.9387,-2.0138,-2.0296,-2.0554,-2.2337,-2.2756,-2.2859,-2.3894,-2.419,-2.419,-2.419,-2.419,-2.419,-2.419,-2.419,-2.419,-2.419,-2.419,-2.419,-2.419,-2.4263,-2.4777,-2.6245,-2.5952,-2.5991,-2.7365,-2.6483,-2.5461,-2.4828,-2.4746,-2.476,-2.4775,-2.4775,-2.4828,-2.4974,-2.4986,-2.5065,-2.5243,-2.5264,-2.5274,-2.5274,-2.5284,-2.5303,-2.5303,-2.5303,-2.5303,-2.5303,-2.5303,-2.5303,-2.5303,-2.5303,-2.5322,2.5664,2.6169,2.6685,2.6854,2.6851,2.6991,2.7651,2.6533,2.5343,2.5254,2.5111,2.4998,2.4962,2.4864,2.4831,2.4905,2.4998,2.5091,2.5239,2.5128,2.5085,2.5215,2.4656,2.2838,1.9217,1.276,0.463,-0.5421,-1.1525,-1.5268,-1.6349,-1.6473,-1.6783,-1.7392,-1.7642,-1.7825,-1.789,-1.7893,-1.8057,-1.8371,-1.8249,-1.827,-1.8371,-1.8585,-1.8697,-1.8697,-1.8697,-1.8825,-1.9069,-1.9069,-1.9069,-1.9069,-1.9018,-1.8878,-1.8678,-1.8623,-1.8641,-1.8697,-1.8697,-1.8861,-1.9087,-1.9268,-1.9825,-2.0636,-2.1731,-2.2447,-2.3106,-2.395,-2.419,-2.419,-2.419,-2.419,-2.419,-2.419,-2.419,-2.419,-2.419,-2.419,-2.419,-2.419,-2.4704,-2.5256,-2.5605,-2.6043,-2.6245,-2.5972,-2.5663,-2.5206,-2.4414,-2.4339,-2.4393,-2.4561,-2.4559,-2.4639,-2.4828,-2.4842,-2.4855,-2.4896,-2.5005,-2.5057,-2.5057,-2.5214,-2.5303,-2.5303,-2.5303,-2.5303,-2.5303,-2.5303,-2.5303,-2.5303,-2.5303,-2.5303,2.5684,2.6014,2.6439,2.6849,2.7808,2.8478,2.7694,2.7084,2.645,2.5587,2.5264,2.5154,2.5187,2.5137,2.5128,2.526,2.529,2.5331,2.5473,2.5405,2.5301,2.5208,2.4443,2.3554,2.26,1.4959,0.7449,0.1176,-0.7723,-1.3376,-1.4546,-1.4788,-1.5456,-1.6735,-1.6905,-1.7205,-1.7693,-1.7777,-1.7927,-1.8187,-1.8078,-1.8014,-1.8014,-1.829,-1.841,-1.841,-1.841,-1.8547,-1.8807,-1.8807,-1.8807,-1.8789,-1.8678,-1.8528,-1.8391,-1.827,-1.829,-1.841,-1.841,-1.8585,-1.8807,-1.8807,-1.9165,-1.983,-2.1207,-2.1899,-2.2482,-2.363,-2.3976,-2.3976,-2.3976,-2.3837,-2.3774,-2.3917,-2.4074,-2.419,-2.419,-2.419,-2.419,-2.419,-2.4538,-2.4962,-2.5329,-2.575,-2.575,-2.4942,-2.4814,-2.4667,-2.4245,-2.419,-2.4247,-2.4358,-2.4357,-2.4445,-2.4639,-2.4654,-2.47,-2.479,-2.4869,-2.4924,-2.4998,-2.5099,-2.5203,-2.5303,-2.5303,-2.5303,-2.5303,-2.5303,-2.5303,-2.5303,-2.5303,-2.5303,2.5703,2.5801,2.6172,2.7187,2.8881,2.9728,2.762,2.753,2.7435,2.5831,2.5402,2.5354,2.5383,2.5396,2.542,2.5465,2.5476,2.5464,2.5446,2.5443,2.533,2.5054,2.4034,2.3286,2.3094,1.5816,0.9496,0.5682,-0.4113,-1.0739,-1.2596,-1.2771,-1.3767,-1.5801,-1.5955,-1.6423,-1.7323,-1.7539,-1.7755,-1.8044,-1.7839,-1.7659,-1.7541,-1.7885,-1.8082,-1.8125,-1.8125,-1.829,-1.8528,-1.8528,-1.8528,-1.8508,-1.829,-1.8166,-1.8103,-1.7883,-1.7949,-1.8125,-1.8125,-1.831,-1.8528,-1.8528,-1.8566,-1.8908,-2.0603,-2.1239,-2.1694,-2.31,-2.3584,-2.3692,-2.3692,-2.3437,-2.3282,-2.361,-2.3917,-2.4113,-2.4113,-2.417,-2.419,-2.419,-2.419,-2.441,-2.509,-2.5201,-2.498,-2.43,-2.419,-2.419,-2.419,-2.419,-2.419,-2.419,-2.4318,-2.4432,-2.4445,-2.4574,-2.4678,-2.4685,-2.4731,-2.4814,-2.4962,-2.4998,-2.5099,-2.5303,-2.5303,-2.5303,-2.5303,-2.5303,-2.5303,-2.5303,-2.5303,-2.5303,2.5683,2.625,2.7226,2.8848,2.8926,2.8534,2.8183,2.7569,2.6754,2.5719,2.5486,2.5464,2.5402,2.5392,2.5393,2.5406,2.5401,2.5364,2.5251,2.5247,2.499,2.4331,2.3838,2.3081,2.1864,1.8956,1.4875,0.9421,0.0715,-0.6201,-1.0479,-1.1389,-1.2638,-1.4494,-1.489,-1.5329,-1.5872,-1.657,-1.7101,-1.7422,-1.7392,-1.706,-1.6525,-1.714,-1.7595,-1.7839,-1.7839,-1.8014,-1.8249,-1.8249,-1.8249,-1.8249,-1.8208,-1.8057,-1.7856,-1.7811,-1.7833,-1.7839,-1.7839,-1.8035,-1.8249,-1.8249,-1.841,-1.8781,-1.9728,-2.0655,-2.1585,-2.2508,-2.3208,-2.3692,-2.3692,-2.3437,-2.3282,-2.361,-2.3735,-2.3774,-2.3774,-2.3996,-2.419,-2.419,-2.419,-2.4226,-2.4337,-2.4355,-2.4318,-2.4208,-2.419,-2.419,-2.419,-2.419,-2.419,-2.419,-2.4814,-2.4962,-2.4302,-2.4872,-2.5002,-2.4321,-2.4444,-2.4623,-2.4814,-2.4937,-2.5099,-2.5303,-2.5303,-2.5303,-2.5303,-2.5303,-2.5303,-2.5303,-2.5303,-2.5303,2.5683,2.6348,2.7187,2.7949,2.8223,2.8164,2.7631,2.7205,2.6638,2.5681,2.5497,2.5487,2.541,2.539,2.5405,2.5441,2.5469,2.5372,2.5178,2.5014,2.4705,2.4112,2.3397,2.2639,2.1905,1.9706,1.6467,1.1998,0.3984,-0.2542,-0.6774,-0.9458,-1.1469,-1.2762,-1.3688,-1.4404,-1.4857,-1.5927,-1.6767,-1.7296,-1.7296,-1.6964,-1.6332,-1.699,-1.7176,-1.6987,-1.7558,-1.7878,-1.7971,-1.7971,-1.7971,-1.7971,-1.7971,-1.7905,-1.7811,-1.7811,-1.7811,-1.7811,-1.7811,-1.7878,-1.7971,-1.7971,-1.8146,-1.8531,-1.9324,-2.0306,-2.1253,-2.1866,-2.2713,-2.3414,-2.3414,-2.3323,-2.3282,-2.361,-2.3692,-2.3692,-2.3692,-2.3958,-2.419,-2.419,-2.419,-2.419,-2.419,-2.419,-2.419,-2.419,-2.419,-2.419,-2.419,-2.4575,-2.4685,-2.4245,-2.4905,-2.5072,-2.4263,-2.452,-2.4575,-2.4226,-2.4284,-2.4478,-2.479,-2.4855,-2.5024,-2.5284,-2.5303,-2.5303,-2.5303,-2.5303,-2.5303,-2.5303,-2.5303,-2.5303,2.5662,2.6149,2.6673,2.6888,2.7591,2.8016,2.7081,2.7053,2.686,2.5651,2.5395,2.5362,2.5263,2.5294,2.5313,2.5311,2.5255,2.5108,2.4874,2.4574,2.4182,2.3599,2.281,2.2136,2.1691,1.9436,1.6765,1.371,0.661,0.0774,-0.3083,-0.6754,-0.9527,-1.1237,-1.22,-1.3119,-1.4006,-1.5225,-1.6129,-1.6719,-1.666,-1.6395,-1.5933,-1.658,-1.6581,-1.6121,-1.7209,-1.7681,-1.7681,-1.7681,-1.7726,-1.7789,-1.7704,-1.7726,-1.7794,-1.7591,-1.7523,-1.7523,-1.7523,-1.7523,-1.7557,-1.7743,-1.7927,-1.8207,-1.8802,-1.9852,-2.0881,-2.1231,-2.2164,-2.3069,-2.3069,-2.3021,-2.3038,-2.3369,-2.3522,-2.361,-2.3795,-2.4016,-2.419,-2.419,-2.419,-2.419,-2.419,-2.419,-2.419,-2.419,-2.419,-2.419,-2.419,-2.4722,-2.4869,-2.4263,-2.4905,-2.5072,-2.4263,-2.4392,-2.441,-2.4208,-2.419,-2.4375,-2.479,-2.4804,-2.4968,-2.5284,-2.5303,-2.5303,-2.5303,-2.5303,-2.5303,-2.5303,-2.5303,-2.5303,2.5603,2.5597,2.5775,2.6597,2.7469,2.7873,2.7002,2.7444,2.7478,2.5522,2.5129,2.5051,2.4872,2.4992,2.5051,2.4877,2.4569,2.4288,2.41,2.376,2.3218,2.2293,2.2163,2.1661,2.0518,1.8502,1.642,1.4367,0.8865,0.3883,-0.0042,-0.301,-0.6369,-1.0254,-1.027,-1.1133,-1.315,-1.424,-1.4883,-1.5139,-1.4924,-1.4815,-1.4799,-1.5405,-1.5567,-1.5436,-1.6767,-1.7344,-1.7344,-1.7344,-1.7526,-1.7766,-1.7439,-1.7526,-1.7726,-1.7037,-1.6766,-1.6766,-1.6766,-1.6766,-1.6885,-1.7574,-1.7811,-1.7833,-1.7867,-1.9116,-2.0524,-2.0535,-2.1593,-2.2721,-2.2721,-2.2554,-2.2415,-2.2686,-2.2996,-2.3392,-2.4054,-2.419,-2.419,-2.419,-2.419,-2.419,-2.419,-2.419,-2.419,-2.419,-2.419,-2.419,-2.419,-2.4245,-2.4245,-2.419,-2.4905,-2.5072,-2.4263,-2.4887,-2.5017,-2.4245,-2.419,-2.4375,-2.479,-2.4804,-2.4968,-2.5284,-2.5303,-2.5303,-2.5303,-2.5303,-2.5303,-2.5303,-2.5303,-2.5303,2.5601,2.5554,2.5707,2.6588,2.6603,2.647,2.6689,2.6435,2.5964,2.5192,2.4972,2.4774,2.4364,2.4633,2.4801,2.4523,2.4375,2.4152,2.3739,2.316,2.2613,2.2163,2.1423,2.0766,2.0333,1.8407,1.6652,1.5284,1.1478,0.743,0.3442,0.0169,-0.3034,-0.6327,-0.791,-0.9516,-1.1172,-1.2241,-1.3033,-1.3586,-1.3494,-1.3406,-1.3262,-1.3882,-1.3905,-1.3431,-1.4374,-1.5631,-1.6977,-1.6977,-1.68,-1.6495,-1.6377,-1.6147,-1.5857,-1.5761,-1.5741,-1.5829,-1.6467,-1.6699,-1.6834,-1.7557,-1.7811,-1.7811,-1.7811,-1.858,-1.9576,-2.0047,-2.1059,-2.2114,-2.2574,-2.2789,-2.2908,-2.2996,-2.3117,-2.3305,-2.3774,-2.4054,-2.419,-2.419,-2.419,-2.419,-2.419,-2.419,-2.419,-2.419,-2.419,-2.419,-2.419,-2.4649,-2.4759,-2.4263,-2.4905,-2.5072,-2.4263,-2.4447,-2.4502,-2.4208,-2.419,-2.4375,-2.479,-2.4804,-2.4968,-2.5284,-2.5303,-2.5303,-2.5303,-2.5303,-2.5303,-2.5303,-2.5303,-2.5303,2.5586,2.552,2.5613,2.6182,2.61,2.5919,2.6177,2.5851,2.5401,2.5019,2.4814,2.4572,2.4155,2.4264,2.4315,2.3989,2.3839,2.3642,2.3294,2.2598,2.2033,2.1766,2.0895,2.0246,2.0124,1.8527,1.6983,1.5761,1.3106,1.0031,0.6582,0.3218,-0.03,-0.3925,-0.6144,-0.7975,-0.9401,-1.0354,-1.1171,-1.183,-1.2006,-1.2127,-1.2172,-1.2738,-1.2803,-1.2499,-1.3003,-1.4397,-1.6285,-1.6176,-1.5994,-1.5815,-1.5925,-1.5479,-1.482,-1.4968,-1.4885,-1.4796,-1.5566,-1.5832,-1.597,-1.6792,-1.7236,-1.7439,-1.7439,-1.8115,-1.8995,-1.9502,-2.0525,-2.1575,-2.2074,-2.2539,-2.2933,-2.3021,-2.3021,-2.3117,-2.3459,-2.3795,-2.4074,-2.417,-2.419,-2.419,-2.419,-2.419,-2.419,-2.419,-2.419,-2.419,-2.419,-2.4667,-2.4777,-2.4263,-2.4667,-2.4777,-2.4245,-2.419,-2.419,-2.419,-2.4247,-2.4444,-2.479,-2.4842,-2.5012,-2.5284,-2.5303,-2.5303,-2.5303,-2.5303,-2.5303,-2.5303,-2.5303,-2.5303,0.0,0.0,0.0,2.5394,2.5983,2.6351,2.5495,2.5792,2.5977,2.4998,2.4639,2.4426,2.4228,2.3917,2.3566,2.3236,2.2923,2.2695,2.2695,2.2046,2.143,2.1055,2.0583,2.0124,1.9747,1.8727,1.7435,1.5811,1.3692,1.1557,0.9396,0.5979,0.1791,-0.3172,-0.4915,-0.6468,-0.7953,-0.8674,-0.9284,-0.9799,-1.0338,-1.0963,-1.1615,-1.1945,-1.2316,-1.2705,-1.2705,-1.3653,-1.515,-1.4871,-1.5113,-1.5727,-1.6061,-1.5559,-1.4674,-1.4623,-1.4207,-1.3693,-1.3992,-1.4087,-1.4242,-1.5244,-1.6069,-1.6661,-1.6678,-1.7693,-1.8843,-1.8877,-1.9976,-2.1153,-2.1204,-2.1752,-2.2377,-2.2634,-2.2695,-2.2797,-2.3117,-2.3437,-2.3795,-2.4094,-2.417,-2.417,-2.417,-2.417,-2.419,-2.419,-2.419,-2.419,-2.419,-2.419,-2.419,-2.419,-2.419,-2.419,-2.419,-2.419,-2.419,-2.419,-2.4375,-2.4575,-2.479,-2.4911,-2.5088,-2.5303,-2.5303,-2.5303,-2.5303,-2.5303,-2.5303,-2.5303,-2.5303,-2.5303,2.5488,0.0,0.0,0.0,0.0,0.0,2.5341,2.5251,2.5125,2.4875,2.4528,2.4191,2.3878,2.3566,2.3212,2.288,2.2772,2.2634,2.2453,2.1688,2.1118,2.0991,2.0345,1.9818,1.9711,1.908,1.8335,1.7489,1.5812,1.3891,1.1611,0.6808,0.2937,0.035,-0.2542,-0.4302,-0.4833,-0.6359,-0.7257,-0.7525,-0.7941,-0.852,-0.9181,-0.9566,-0.9943,-1.0284,-1.0321,-1.1137,-1.2448,-1.31,-1.3202,-1.3015,-1.3281,-1.2936,-1.2328,-1.2731,-1.2786,-1.2733,-1.3533,-1.3812,-1.3925,-1.4766,-1.5291,-1.5699,-1.6237,-1.6819,-1.7545,-1.8589,-1.9198,-1.9773,-2.0916,-2.1752,-2.2338,-2.2371,-2.2563,-2.2721,-2.2822,-2.3093,-2.3369,-2.3459,-2.3477,-2.3477,-2.3477,-2.3671,-2.3837,-2.3837,-2.4036,-2.419,-2.419,-2.419,-2.419,-2.419,-2.419,-2.419,-2.419,-2.419,-2.419,-2.419,-2.4266,-2.4375,-2.4559,-2.4756,-2.4917,-2.5088,-2.5224,-2.5303,-2.5303,-2.5303,-2.5303,-2.5303,-2.5303,-2.5303,0.0,0.0,0.0,2.5446,0.0,0.0,2.5348,2.5111,2.4877,2.482,2.4554,2.4229,2.3958,2.3522,2.3141,2.2947,2.2704,2.2419,2.2061,2.1415,2.0926,2.0731,2.0104,1.969,1.969,1.9207,1.8559,1.7786,1.6686,1.4856,1.2183,0.8051,0.4951,0.3129,0.0696,-0.1142,-0.233,-0.3991,-0.5034,-0.5444,-0.6339,-0.7001,-0.7483,-0.8206,-0.8673,-0.8858,-0.905,-0.9685,-1.0603,-1.1146,-1.1588,-1.1978,-1.2625,-1.2181,-1.1244,-1.2243,-1.2276,-1.1927,-1.2786,-1.3072,-1.3156,-1.37,-1.4184,-1.4717,-1.5419,-1.6045,-1.6785,-1.7897,-1.8781,-1.9638,-2.0899,-2.1752,-2.231,-2.231,-2.2426,-2.2546,-2.2686,-2.2848,-2.3045,-2.3165,-2.3305,-2.3414,-2.3414,-2.3692,-2.3917,-2.3917,-2.4074,-2.419,-2.419,-2.419,-2.419,-2.419,-2.419,-2.419,-2.419,-2.419,-2.419,-2.419,-2.4266,-2.4375,-2.4495,-2.47,-2.4828,-2.4917,-2.5037,-2.5126,-2.5192,-2.5264,-2.5303,-2.5303,-2.5303,-2.5303,0.0,0.0,0.0,2.5496,2.5451,0.0,2.5398,2.5178,2.4936,2.4822,2.4584,2.4356,2.4171,2.3606,2.3141,2.3141,2.266,2.2135,2.1658,2.1244,2.0829,2.0348,1.9929,1.969,1.969,1.9281,1.8507,1.7396,1.6705,1.497,1.194,0.9642,0.748,0.5524,0.4287,0.2425,-0.0123,-0.1436,-0.2551,-0.3603,-0.5024,-0.5866,-0.6209,-0.7434,-0.7952,-0.797,-0.8462,-0.8921,-0.9296,-0.9313,-1.0285,-1.1869,-1.2927,-1.2347,-1.1093,-1.2453,-1.2213,-1.1318,-1.1861,-1.2086,-1.2149,-1.238,-1.2927,-1.3663,-1.4345,-1.5275,-1.6281,-1.7042,-1.8502,-2.0001,-2.0786,-2.1589,-2.2209,-2.2293,-2.2321,-2.2398,-2.2625,-2.2669,-2.2772,-2.3063,-2.3392,-2.3631,-2.3631,-2.3917,-2.4133,-2.4133,-2.417,-2.419,-2.419,-2.419,-2.419,-2.419,-2.419,-2.419,-2.419,-2.419,-2.419,-2.419,-2.4357,-2.4461,-2.4461,-2.4654,-2.4775,-2.4775,-2.479,-2.4869,-2.4986,-2.5163,-2.5274,-2.5303,-2.5303,-2.5303,2.5081,2.5356,2.5508,2.5506,2.5457,0.0,2.5398,2.5105,2.4842,2.4823,2.4299,2.384,2.3816,2.3236,2.2797,2.2797,2.2517,2.2135,2.1658,2.1244,2.0829,2.0348,1.9929,1.969,1.969,1.9603,1.908,1.8013,1.6591,1.5116,1.3564,1.1451,0.9708,0.8429,0.6459,0.4508,0.2655,0.1767,0.0165,-0.2196,-0.2921,-0.3809,-0.4822,-0.5983,-0.6419,-0.634,-0.7443,-0.7967,-0.8096,-0.8684,-0.9763,-1.102,-1.1043,-1.1095,-1.1162,-1.1314,-1.1186,-1.0977,-1.1118,-1.1287,-1.1475,-1.1542,-1.1979,-1.2619,-1.3355,-1.4247,-1.5282,-1.6547,-1.7771,-1.8908,-1.9648,-2.0619,-2.1549,-2.2175,-2.2463,-2.259,-2.2398,-2.2537,-2.266,-2.249,-2.2908,-2.33,-2.33,-2.3566,-2.3795,-2.3795,-2.4016,-2.419,-2.419,-2.419,-2.419,-2.419,-2.419,-2.419,-2.419,-2.419,-2.419,-2.419,-2.4247,-2.4266,-2.4266,-2.4444,-2.4561,-2.4561,-2.4716,-2.4818,-2.4842,-2.4993,-2.5152,-2.5303,-2.5303,-2.5303,2.4712,2.5097,2.5325,2.5466,2.5475,0.0,0.0,2.526,2.5042,2.4835,2.4511,2.4137,2.3777,2.33,2.288,2.2721,2.249,2.2077,2.1415,2.1118,2.0764,2.007,1.9818,1.969,1.969,1.969,1.9369,1.8574,1.6957,1.577,1.5217,1.3477,1.1854,1.0476,0.8869,0.7286,0.5761,0.4047,0.2407,0.076,-0.063,-0.1943,-0.3155,-0.4273,-0.4916,-0.5179,-0.6257,-0.6989,-0.7433,-0.8016,-0.9034,-1.0237,-1.0064,-1.0108,-1.0335,-1.0677,-1.0736,-1.0667,-1.0849,-1.0991,-1.1094,-1.1094,-1.1618,-1.2388,-1.3103,-1.4329,-1.5706,-1.6758,-1.7698,-1.8616,-1.951,-2.048,-2.138,-2.2124,-2.2398,-2.25,-2.25,-2.2599,-2.2712,-2.2747,-2.2989,-2.3141,-2.2972,-2.3369,-2.3692,-2.3692,-2.3996,-2.419,-2.419,-2.419,-2.419,-2.419,-2.419,-2.419,-2.419,-2.419,-2.419,-2.419,-2.419,-2.419,-2.419,-2.4303,-2.4339,-2.4339,-2.4444,-2.4561,-2.4654,-2.4708,-2.4885,-2.5152,-2.5152,-2.5203,2.4298,2.4762,2.5042,2.5347,2.5425,2.5449,0.0,0.0,0.0,2.493,2.4745,2.4482,2.3885,2.3441,2.3093,2.2746,2.2527,2.2044,2.1118,2.0991,2.0681,1.9782,1.9603,1.9603,1.969,1.9722,1.9516,1.8945,1.7679,1.6833,1.6549,1.5205,1.3725,1.2197,1.1096,0.9844,0.8511,0.6145,0.4509,0.3609,0.1679,0.007,-0.1155,-0.2311,-0.3219,-0.3965,-0.4934,-0.5902,-0.6795,-0.7167,-0.8015,-0.9094,-0.9346,-0.9448,-0.9505,-1.0095,-1.0298,-1.0247,-1.0521,-1.0691,-1.0801,-1.0801,-1.143,-1.2309,-1.3069,-1.4504,-1.6045,-1.6786,-1.7483,-1.8248,-1.9233,-2.0083,-2.0877,-2.1743,-2.1916,-2.197,-2.2332,-2.2427,-2.2487,-2.2761,-2.2933,-2.2989,-2.2822,-2.3253,-2.3588,-2.3588,-2.3896,-2.4094,-2.4094,-2.417,-2.419,-2.419,-2.419,-2.419,-2.419,-2.419,-2.419,-2.419,-2.419,-2.419,-2.419,-2.419,-2.419,-2.419,-2.419,-2.4284,-2.4426,-2.4426,-2.462,-2.4962,-2.4998,-2.5088,2.3783,2.4276,2.4594,2.5024,2.5196,2.5281,2.5469,0.0,2.5182,2.5091,0.0,2.4128,2.3988,0.0,0.0,2.2746,2.2669,2.2252,2.1181,2.0991,2.0681,1.9782,1.9281,1.9169,1.9639,1.9824,1.9604,1.8936,1.8831,1.8303,1.7164,1.6169,1.5047,1.3848,1.241,1.1095,0.999,0.8674,0.6859,0.456,0.3758,0.2688,0.1354,0.0164,-0.1015,-0.2145,-0.3291,-0.4411,-0.554,-0.5867,-0.6352,-0.6994,-0.8361,-0.9159,-0.9538,-0.9153,-0.9217,-0.9528,-0.9555,-0.9957,-1.0458,-1.0458,-1.106,-1.1957,-1.2991,-1.3803,-1.4571,-1.5645,-1.6237,-1.6729,-1.7499,-1.8205,-1.9072,-2.0456,-2.0525,-2.0467,-2.1196,-2.1375,-2.1375,-2.1428,-2.1973,-2.2544,-2.3063,-2.3212,-2.3277,-2.3277,-2.3544,-2.3774,-2.3774,-2.4016,-2.419,-2.419,-2.419,-2.419,-2.419,-2.419,-2.419,-2.419,-2.419,-2.419,-2.419,-2.419,-2.419,-2.419,-2.419,-2.4209,-2.4228,-2.4228,-2.4426,-2.4832,-2.4937,-2.501,2.2847,2.3472,2.4002,2.4555,2.4711,2.4822,2.5196,2.5209,2.5128,2.511,0.0,0.0,0.0,0.0,0.0,0.0,2.2788,2.2388,2.1475,2.115,2.0681,1.9782,1.9834,2.0034,2.0236,2.0338,2.0106,1.9413,1.9497,1.916,1.8249,1.7502,1.6491,1.5125,1.4122,1.2968,1.1627,1.005,0.8464,0.6888,0.5375,0.4206,0.3252,0.174,0.0757,0.0198,-0.1702,-0.2974,-0.3807,-0.4627,-0.5428,-0.6151,-0.6819,-0.7647,-0.8492,-0.8514,-0.8745,-0.9062,-0.9062,-0.9384,-0.9956,-1.0729,-1.1429,-1.2224,-1.3512,-1.4241,-1.4892,-1.5821,-1.6191,-1.6495,-1.7444,-1.7893,-1.8367,-1.943,-1.9695,-1.9794,-2.0137,-2.0733,-2.1042,-2.0602,-2.1481,-2.2289,-2.2272,-2.2794,-2.3189,-2.3189,-2.3649,-2.3996,-2.3996,-2.4113,-2.419,-2.419,-2.419,-2.419,-2.419,-2.419,-2.419,-2.419,-2.419,-2.419,-2.419,-2.419,-2.419,-2.419,-2.419,-2.419,-2.419,-2.4321,-2.4461,-2.4623,-2.4795,-2.4981,2.2119,2.273,2.3271,2.3984,2.4245,2.442,2.4816,2.4988,2.505,2.5093,2.5028,0.0,0.0,0.0,2.4024,0.0,0.0,2.2753,2.1874,2.1653,2.1167,1.9995,2.0197,2.031,2.0015,2.0398,2.0348,1.9538,1.9874,1.9754,1.8921,1.8535,1.7728,1.648,1.5866,1.4879,1.3447,1.1796,1.0316,0.8994,0.7213,0.5858,0.4939,0.3436,0.257,0.2137,0.0099,-0.1213,-0.198,-0.3203,-0.4278,-0.5173,-0.5366,-0.6075,-0.71,-0.7734,-0.8259,-0.8662,-0.8662,-0.8992,-0.9574,-1.0624,-1.1463,-1.2221,-1.3221,-1.4096,-1.4895,-1.5585,-1.5872,-1.62,-1.7098,-1.7389,-1.7645,-1.8387,-1.8653,-1.8831,-1.9028,-1.9694,-2.0224,-1.9924,-2.0773,-2.1589,-2.1747,-2.2499,-2.3093,-2.3189,-2.3692,-2.4074,-2.4074,-2.4151,-2.419,-2.419,-2.419,-2.419,-2.419,-2.419,-2.419,-2.419,-2.419,-2.419,-2.419,-2.419,-2.419,-2.419,-2.419,-2.419,-2.419,-2.441,-2.4528,-2.4594,-2.4771,-2.4987,2.1778,2.2135,2.2373,2.3303,2.3823,2.4166,2.4374,2.4671,2.4932,2.5065,2.4937,2.4844,2.4956,2.4868,2.4598,0.0,0.0,0.0,0.0,2.2688,2.241,2.0512,1.996,1.9325,1.8291,1.9706,2.022,1.9026,2.0003,2.0167,1.8959,1.8893,1.8598,1.8025,1.7522,1.6664,1.5501,1.449,1.2758,1.0345,0.9423,0.8066,0.64,0.5577,0.4555,0.3379,0.2202,0.102,-0.0164,-0.1383,-0.2544,-0.3635,-0.4205,-0.4777,-0.5418,-0.6683,-0.7627,-0.8319,-0.8319,-0.88,-0.9461,-0.9814,-1.0712,-1.1606,-1.1533,-1.2641,-1.4009,-1.427,-1.4747,-1.5255,-1.5756,-1.6126,-1.6557,-1.7267,-1.7144,-1.7081,-1.7808,-1.7969,-1.8313,-1.9306,-1.9568,-2.0173,-2.1978,-2.2537,-2.2822,-2.3141,-2.3482,-2.3714,-2.3714,-2.3996,-2.419,-2.419,-2.419,-2.419,-2.419,-2.419,-2.419,-2.419,-2.419,-2.419,-2.419,-2.419,-2.419,-2.419,-2.419,-2.419,-2.419,-2.441,-2.4591,-2.479,-2.4924,-2.501,0.0,0.0,2.1576,2.2365,2.2681,2.2946,2.3652,2.4058,2.4377,2.4583,2.4783,2.4948,2.5051,0.0,0.0,0.0,0.0,0.0,0.0,2.2694,2.2049,2.0894,2.0852,2.078,2.0504,2.062,2.0542,2.0138,2.0459,2.0333,1.9472,1.9442,1.9339,1.9096,1.8259,1.7619,1.7128,1.5389,1.38,1.2411,1.0717,0.9181,0.7771,0.6587,0.5654,0.4959,0.395,0.2841,0.1655,0.0656,-0.079,-0.2449,-0.3045,-0.3612,-0.4256,-0.5692,-0.6794,-0.7598,-0.8109,-0.8449,-0.8784,-0.9369,-1.031,-1.1302,-1.1788,-1.286,-1.3979,-1.4346,-1.4553,-1.4752,-1.4907,-1.5015,-1.5239,-1.5773,-1.593,-1.616,-1.6729,-1.7411,-1.7936,-1.8045,-1.8821,-1.9694,-2.0281,-2.1278,-2.2173,-2.2778,-2.3141,-2.3437,-2.3671,-2.3795,-2.3937,-2.417,-2.419,-2.419,-2.419,-2.419,-2.419,-2.419,-2.419,-2.419,-2.419,-2.419,-2.419,-2.419,-2.419,-2.419,-2.419,-2.441,-2.4526,-2.4607,-2.4785,-2.4917,1.9904,2.04,0.0,2.1315,2.1761,0.0,2.2863,2.3378,2.3777,2.4038,2.4379,2.4683,0.0,0.0,0.0,0.0,0.0,0.0,0.0,2.3312,2.2519,2.1849,2.1502,2.1374,2.1427,2.1289,2.1075,2.0845,2.1044,2.0896,2.0185,2.0139,2.0158,2.0112,1.9459,1.8906,1.845,1.6661,1.5222,1.4159,1.2235,1.068,0.9478,0.8169,0.7296,0.6775,0.5609,0.4528,0.3483,0.2476,0.1048,-0.0561,-0.1089,-0.1938,-0.3099,-0.4909,-0.6151,-0.6961,-0.7608,-0.7945,-0.8184,-0.8778,-0.9684,-1.0545,-1.0883,-1.2005,-1.3207,-1.3431,-1.3875,-1.431,-1.447,-1.4501,-1.4564,-1.4814,-1.5047,-1.533,-1.5781,-1.6725,-1.7595,-1.7857,-1.8769,-1.971,-2.0309,-2.1007,-2.1685,-2.2377,-2.2893,-2.3277,-2.3482,-2.3522,-2.3588,-2.3816,-2.3837,-2.3896,-2.4016,-2.4113,-2.419,-2.419,-2.419,-2.419,-2.419,-2.419,-2.419,-2.419,-2.419,-2.419,-2.419,-2.441,-2.4495,-2.4512,-2.4623,-2.4741]}]]